<?xml version="1.0" encoding="UTF-8" standalone="no" ?>
<gpx xmlns="http://www.topografix.com/GPX/1/1" xmlns:xsi="http://www.w3.org/2001/XMLSchema-instance" xsi:schemaLocation="http://www.topografix.com/GPX/1/1 http://www.topografix.com/GPX/1/1/gpx.xsd" version="1.1" creator="VisuGPX - https://www.visugpx.com">
  <metadata>
    <name>Gr Queyras + Crêtes des Chalanchettes</name>
    <desc><![CDATA[grp_trc:]]></desc>
  </metadata>
  <trk>
    <name><![CDATA[18 nov. 2021]]></name>
    <cmt><![CDATA[08:37:15]]></cmt>
    <desc><![CDATA[comment ...]]></desc>
    <trkseg>
      <trkpt lat="44.71914" lon="6.90411">
        <ele>1995</ele>
        <time>2021-11-18T07:37:14Z</time>
      </trkpt>
      <trkpt lat="44.71914" lon="6.90411">
        <ele>1994</ele>
        <time>2021-11-18T07:37:15Z</time>
      </trkpt>
      <trkpt lat="44.71912" lon="6.90413">
        <ele>1992</ele>
        <time>2021-11-18T07:37:19Z</time>
      </trkpt>
      <trkpt lat="44.7191" lon="6.90412">
        <ele>1991</ele>
        <time>2021-11-18T07:37:24Z</time>
      </trkpt>
      <trkpt lat="44.71908" lon="6.90413">
        <ele>1989</ele>
        <time>2021-11-18T07:37:26Z</time>
      </trkpt>
      <trkpt lat="44.71907" lon="6.90414">
        <ele>1987</ele>
        <time>2021-11-18T07:37:30Z</time>
      </trkpt>
      <trkpt lat="44.71906" lon="6.90414">
        <ele>1987</ele>
        <time>2021-11-18T07:37:37Z</time>
      </trkpt>
      <trkpt lat="44.71905" lon="6.90412">
        <ele>1985</ele>
        <time>2021-11-18T07:37:54Z</time>
      </trkpt>
      <trkpt lat="44.71904" lon="6.90411">
        <ele>1985</ele>
        <time>2021-11-18T07:38:12Z</time>
      </trkpt>
      <trkpt lat="44.71905" lon="6.90412">
        <ele>1986</ele>
        <time>2021-11-18T07:39:10Z</time>
      </trkpt>
      <trkpt lat="44.71905" lon="6.90415">
        <ele>1987</ele>
        <time>2021-11-18T07:39:12Z</time>
      </trkpt>
      <trkpt lat="44.71904" lon="6.9042">
        <ele>1988</ele>
        <time>2021-11-18T07:39:17Z</time>
      </trkpt>
      <trkpt lat="44.71902" lon="6.90421">
        <ele>1988</ele>
        <time>2021-11-18T07:39:19Z</time>
      </trkpt>
      <trkpt lat="44.719" lon="6.90423">
        <ele>1988</ele>
        <time>2021-11-18T07:39:21Z</time>
      </trkpt>
      <trkpt lat="44.71898" lon="6.90429">
        <ele>1988</ele>
        <time>2021-11-18T07:39:26Z</time>
      </trkpt>
      <trkpt lat="44.71897" lon="6.90431">
        <ele>1988</ele>
        <time>2021-11-18T07:39:28Z</time>
      </trkpt>
      <trkpt lat="44.71895" lon="6.90433">
        <ele>1988</ele>
        <time>2021-11-18T07:39:30Z</time>
      </trkpt>
      <trkpt lat="44.71894" lon="6.90436">
        <ele>1989</ele>
        <time>2021-11-18T07:39:32Z</time>
      </trkpt>
      <trkpt lat="44.71894" lon="6.90439">
        <ele>1989</ele>
        <time>2021-11-18T07:39:34Z</time>
      </trkpt>
      <trkpt lat="44.71894" lon="6.90444">
        <ele>1989</ele>
        <time>2021-11-18T07:39:38Z</time>
      </trkpt>
      <trkpt lat="44.71894" lon="6.90446">
        <ele>1989</ele>
        <time>2021-11-18T07:39:42Z</time>
      </trkpt>
      <trkpt lat="44.71895" lon="6.90448">
        <ele>1989</ele>
        <time>2021-11-18T07:39:44Z</time>
      </trkpt>
      <trkpt lat="44.71898" lon="6.90453">
        <ele>1989</ele>
        <time>2021-11-18T07:39:48Z</time>
      </trkpt>
      <trkpt lat="44.71899" lon="6.90455">
        <ele>1988</ele>
        <time>2021-11-18T07:39:50Z</time>
      </trkpt>
      <trkpt lat="44.71901" lon="6.90457">
        <ele>1988</ele>
        <time>2021-11-18T07:39:52Z</time>
      </trkpt>
      <trkpt lat="44.71902" lon="6.90462">
        <ele>1988</ele>
        <time>2021-11-18T07:39:56Z</time>
      </trkpt>
      <trkpt lat="44.71901" lon="6.9047">
        <ele>1987</ele>
        <time>2021-11-18T07:40:01Z</time>
      </trkpt>
      <trkpt lat="44.719" lon="6.90473">
        <ele>1987</ele>
        <time>2021-11-18T07:40:03Z</time>
      </trkpt>
      <trkpt lat="44.71899" lon="6.90476">
        <ele>1987</ele>
        <time>2021-11-18T07:40:05Z</time>
      </trkpt>
      <trkpt lat="44.71898" lon="6.90475">
        <ele>1986</ele>
        <time>2021-11-18T07:40:13Z</time>
      </trkpt>
      <trkpt lat="44.71902" lon="6.90478">
        <ele>1986</ele>
        <time>2021-11-18T07:40:33Z</time>
      </trkpt>
      <trkpt lat="44.71904" lon="6.90481">
        <ele>1986</ele>
        <time>2021-11-18T07:40:35Z</time>
      </trkpt>
      <trkpt lat="44.71905" lon="6.9048">
        <ele>1986</ele>
        <time>2021-11-18T07:40:42Z</time>
      </trkpt>
      <trkpt lat="44.71905" lon="6.90483">
        <ele>1986</ele>
        <time>2021-11-18T07:41:02Z</time>
      </trkpt>
      <trkpt lat="44.71904" lon="6.90488">
        <ele>1985</ele>
        <time>2021-11-18T07:41:27Z</time>
      </trkpt>
      <trkpt lat="44.71905" lon="6.90491">
        <ele>1985</ele>
        <time>2021-11-18T07:41:31Z</time>
      </trkpt>
      <trkpt lat="44.71907" lon="6.90493">
        <ele>1985</ele>
        <time>2021-11-18T07:41:33Z</time>
      </trkpt>
      <trkpt lat="44.71908" lon="6.90494">
        <ele>1985</ele>
        <time>2021-11-18T07:41:34Z</time>
      </trkpt>
      <trkpt lat="44.7191" lon="6.90496">
        <ele>1984</ele>
        <time>2021-11-18T07:41:36Z</time>
      </trkpt>
      <trkpt lat="44.71911" lon="6.90498">
        <ele>1984</ele>
        <time>2021-11-18T07:41:38Z</time>
      </trkpt>
      <trkpt lat="44.71912" lon="6.90501">
        <ele>1983</ele>
        <time>2021-11-18T07:41:40Z</time>
      </trkpt>
      <trkpt lat="44.71912" lon="6.90504">
        <ele>1982</ele>
        <time>2021-11-18T07:41:44Z</time>
      </trkpt>
      <trkpt lat="44.71913" lon="6.90506">
        <ele>1981</ele>
        <time>2021-11-18T07:41:47Z</time>
      </trkpt>
      <trkpt lat="44.71915" lon="6.90508">
        <ele>1981</ele>
        <time>2021-11-18T07:41:50Z</time>
      </trkpt>
      <trkpt lat="44.71917" lon="6.90513">
        <ele>1980</ele>
        <time>2021-11-18T07:41:54Z</time>
      </trkpt>
      <trkpt lat="44.71917" lon="6.90516">
        <ele>1980</ele>
        <time>2021-11-18T07:41:57Z</time>
      </trkpt>
      <trkpt lat="44.71919" lon="6.90518">
        <ele>1981</ele>
        <time>2021-11-18T07:41:59Z</time>
      </trkpt>
      <trkpt lat="44.71919" lon="6.90523">
        <ele>1981</ele>
        <time>2021-11-18T07:42:05Z</time>
      </trkpt>
      <trkpt lat="44.71919" lon="6.90525">
        <ele>1981</ele>
        <time>2021-11-18T07:42:07Z</time>
      </trkpt>
      <trkpt lat="44.7192" lon="6.9053">
        <ele>1982</ele>
        <time>2021-11-18T07:42:15Z</time>
      </trkpt>
      <trkpt lat="44.71921" lon="6.90533">
        <ele>1983</ele>
        <time>2021-11-18T07:42:18Z</time>
      </trkpt>
      <trkpt lat="44.71923" lon="6.90544">
        <ele>1986</ele>
        <time>2021-11-18T07:42:28Z</time>
      </trkpt>
      <trkpt lat="44.71925" lon="6.90548">
        <ele>1987</ele>
        <time>2021-11-18T07:42:37Z</time>
      </trkpt>
      <trkpt lat="44.71926" lon="6.9055">
        <ele>1988</ele>
        <time>2021-11-18T07:42:39Z</time>
      </trkpt>
      <trkpt lat="44.71926" lon="6.90553">
        <ele>1988</ele>
        <time>2021-11-18T07:42:41Z</time>
      </trkpt>
      <trkpt lat="44.71929" lon="6.9056">
        <ele>1991</ele>
        <time>2021-11-18T07:42:51Z</time>
      </trkpt>
      <trkpt lat="44.71929" lon="6.90566">
        <ele>1993</ele>
        <time>2021-11-18T07:42:58Z</time>
      </trkpt>
      <trkpt lat="44.71929" lon="6.90568">
        <ele>1994</ele>
        <time>2021-11-18T07:43:01Z</time>
      </trkpt>
      <trkpt lat="44.71933" lon="6.90578">
        <ele>1997</ele>
        <time>2021-11-18T07:43:15Z</time>
      </trkpt>
      <trkpt lat="44.71935" lon="6.9058">
        <ele>1997</ele>
        <time>2021-11-18T07:43:19Z</time>
      </trkpt>
      <trkpt lat="44.71937" lon="6.90587">
        <ele>1999</ele>
        <time>2021-11-18T07:43:28Z</time>
      </trkpt>
      <trkpt lat="44.71938" lon="6.90589">
        <ele>2000</ele>
        <time>2021-11-18T07:43:31Z</time>
      </trkpt>
      <trkpt lat="44.7194" lon="6.90591">
        <ele>2000</ele>
        <time>2021-11-18T07:43:35Z</time>
      </trkpt>
      <trkpt lat="44.7194" lon="6.90594">
        <ele>2001</ele>
        <time>2021-11-18T07:43:37Z</time>
      </trkpt>
      <trkpt lat="44.71942" lon="6.90598">
        <ele>2002</ele>
        <time>2021-11-18T07:43:43Z</time>
      </trkpt>
      <trkpt lat="44.71946" lon="6.9061">
        <ele>2004</ele>
        <time>2021-11-18T07:43:56Z</time>
      </trkpt>
      <trkpt lat="44.71951" lon="6.90621">
        <ele>2005</ele>
        <time>2021-11-18T07:44:10Z</time>
      </trkpt>
      <trkpt lat="44.71953" lon="6.90623">
        <ele>2005</ele>
        <time>2021-11-18T07:44:13Z</time>
      </trkpt>
      <trkpt lat="44.71953" lon="6.90626">
        <ele>2006</ele>
        <time>2021-11-18T07:44:16Z</time>
      </trkpt>
      <trkpt lat="44.71954" lon="6.90631">
        <ele>2006</ele>
        <time>2021-11-18T07:44:20Z</time>
      </trkpt>
      <trkpt lat="44.71955" lon="6.90631">
        <ele>2006</ele>
        <time>2021-11-18T07:44:34Z</time>
      </trkpt>
      <trkpt lat="44.71956" lon="6.90633">
        <ele>2007</ele>
        <time>2021-11-18T07:44:38Z</time>
      </trkpt>
      <trkpt lat="44.71958" lon="6.90635">
        <ele>2007</ele>
        <time>2021-11-18T07:44:41Z</time>
      </trkpt>
      <trkpt lat="44.71959" lon="6.90637">
        <ele>2007</ele>
        <time>2021-11-18T07:44:43Z</time>
      </trkpt>
      <trkpt lat="44.71959" lon="6.9064">
        <ele>2008</ele>
        <time>2021-11-18T07:44:45Z</time>
      </trkpt>
      <trkpt lat="44.7196" lon="6.90643">
        <ele>2008</ele>
        <time>2021-11-18T07:44:48Z</time>
      </trkpt>
      <trkpt lat="44.71961" lon="6.90645">
        <ele>2008</ele>
        <time>2021-11-18T07:44:51Z</time>
      </trkpt>
      <trkpt lat="44.71964" lon="6.9065">
        <ele>2009</ele>
        <time>2021-11-18T07:44:57Z</time>
      </trkpt>
      <trkpt lat="44.71965" lon="6.90652">
        <ele>2009</ele>
        <time>2021-11-18T07:45:00Z</time>
      </trkpt>
      <trkpt lat="44.71966" lon="6.90654">
        <ele>2010</ele>
        <time>2021-11-18T07:45:03Z</time>
      </trkpt>
      <trkpt lat="44.71967" lon="6.90657">
        <ele>2010</ele>
        <time>2021-11-18T07:45:07Z</time>
      </trkpt>
      <trkpt lat="44.71969" lon="6.90662">
        <ele>2011</ele>
        <time>2021-11-18T07:45:14Z</time>
      </trkpt>
      <trkpt lat="44.71968" lon="6.90664">
        <ele>2011</ele>
        <time>2021-11-18T07:45:16Z</time>
      </trkpt>
      <trkpt lat="44.71974" lon="6.90673">
        <ele>2013</ele>
        <time>2021-11-18T07:45:31Z</time>
      </trkpt>
      <trkpt lat="44.71975" lon="6.90678">
        <ele>2014</ele>
        <time>2021-11-18T07:45:37Z</time>
      </trkpt>
      <trkpt lat="44.71977" lon="6.90682">
        <ele>2014</ele>
        <time>2021-11-18T07:45:43Z</time>
      </trkpt>
      <trkpt lat="44.7198" lon="6.90685">
        <ele>2015</ele>
        <time>2021-11-18T07:45:50Z</time>
      </trkpt>
      <trkpt lat="44.71982" lon="6.90686">
        <ele>2015</ele>
        <time>2021-11-18T07:45:52Z</time>
      </trkpt>
      <trkpt lat="44.71985" lon="6.90691">
        <ele>2017</ele>
        <time>2021-11-18T07:45:58Z</time>
      </trkpt>
      <trkpt lat="44.71989" lon="6.90697">
        <ele>2019</ele>
        <time>2021-11-18T07:46:07Z</time>
      </trkpt>
      <trkpt lat="44.7199" lon="6.90699">
        <ele>2019</ele>
        <time>2021-11-18T07:46:10Z</time>
      </trkpt>
      <trkpt lat="44.71997" lon="6.9071">
        <ele>2020</ele>
        <time>2021-11-18T07:46:29Z</time>
      </trkpt>
      <trkpt lat="44.71999" lon="6.90717">
        <ele>2021</ele>
        <time>2021-11-18T07:46:40Z</time>
      </trkpt>
      <trkpt lat="44.71999" lon="6.9072">
        <ele>2021</ele>
        <time>2021-11-18T07:46:43Z</time>
      </trkpt>
      <trkpt lat="44.71999" lon="6.90722">
        <ele>2021</ele>
        <time>2021-11-18T07:46:47Z</time>
      </trkpt>
      <trkpt lat="44.72001" lon="6.90725">
        <ele>2022</ele>
        <time>2021-11-18T07:46:51Z</time>
      </trkpt>
      <trkpt lat="44.72001" lon="6.90734">
        <ele>2022</ele>
        <time>2021-11-18T07:46:58Z</time>
      </trkpt>
      <trkpt lat="44.72002" lon="6.90736">
        <ele>2023</ele>
        <time>2021-11-18T07:47:02Z</time>
      </trkpt>
      <trkpt lat="44.72003" lon="6.90738">
        <ele>2024</ele>
        <time>2021-11-18T07:47:06Z</time>
      </trkpt>
      <trkpt lat="44.72004" lon="6.9075">
        <ele>2028</ele>
        <time>2021-11-18T07:47:23Z</time>
      </trkpt>
      <trkpt lat="44.72005" lon="6.90752">
        <ele>2028</ele>
        <time>2021-11-18T07:47:27Z</time>
      </trkpt>
      <trkpt lat="44.72006" lon="6.9076">
        <ele>2030</ele>
        <time>2021-11-18T07:47:37Z</time>
      </trkpt>
      <trkpt lat="44.72006" lon="6.90762">
        <ele>2030</ele>
        <time>2021-11-18T07:47:44Z</time>
      </trkpt>
      <trkpt lat="44.72007" lon="6.90763">
        <ele>2031</ele>
        <time>2021-11-18T07:47:50Z</time>
      </trkpt>
      <trkpt lat="44.72013" lon="6.90764">
        <ele>2030</ele>
        <time>2021-11-18T07:47:58Z</time>
      </trkpt>
      <trkpt lat="44.72014" lon="6.90766">
        <ele>2030</ele>
        <time>2021-11-18T07:48:01Z</time>
      </trkpt>
      <trkpt lat="44.72015" lon="6.90767">
        <ele>2030</ele>
        <time>2021-11-18T07:48:04Z</time>
      </trkpt>
      <trkpt lat="44.72016" lon="6.90769">
        <ele>2030</ele>
        <time>2021-11-18T07:48:08Z</time>
      </trkpt>
      <trkpt lat="44.72017" lon="6.90772">
        <ele>2030</ele>
        <time>2021-11-18T07:48:11Z</time>
      </trkpt>
      <trkpt lat="44.72017" lon="6.90774">
        <ele>2031</ele>
        <time>2021-11-18T07:48:13Z</time>
      </trkpt>
      <trkpt lat="44.72017" lon="6.90777">
        <ele>2031</ele>
        <time>2021-11-18T07:48:16Z</time>
      </trkpt>
      <trkpt lat="44.72019" lon="6.90782">
        <ele>2031</ele>
        <time>2021-11-18T07:48:24Z</time>
      </trkpt>
      <trkpt lat="44.72019" lon="6.90793">
        <ele>2032</ele>
        <time>2021-11-18T07:48:35Z</time>
      </trkpt>
      <trkpt lat="44.72018" lon="6.90799">
        <ele>2033</ele>
        <time>2021-11-18T07:48:41Z</time>
      </trkpt>
      <trkpt lat="44.72018" lon="6.90806">
        <ele>2033</ele>
        <time>2021-11-18T07:48:47Z</time>
      </trkpt>
      <trkpt lat="44.72019" lon="6.90816">
        <ele>2034</ele>
        <time>2021-11-18T07:48:57Z</time>
      </trkpt>
      <trkpt lat="44.72019" lon="6.90818">
        <ele>2034</ele>
        <time>2021-11-18T07:48:59Z</time>
      </trkpt>
      <trkpt lat="44.72019" lon="6.90823">
        <ele>2035</ele>
        <time>2021-11-18T07:49:07Z</time>
      </trkpt>
      <trkpt lat="44.7202" lon="6.90826">
        <ele>2035</ele>
        <time>2021-11-18T07:49:16Z</time>
      </trkpt>
      <trkpt lat="44.72018" lon="6.90836">
        <ele>2037</ele>
        <time>2021-11-18T07:49:28Z</time>
      </trkpt>
      <trkpt lat="44.72017" lon="6.90838">
        <ele>2037</ele>
        <time>2021-11-18T07:49:31Z</time>
      </trkpt>
      <trkpt lat="44.72017" lon="6.90843">
        <ele>2037</ele>
        <time>2021-11-18T07:49:36Z</time>
      </trkpt>
      <trkpt lat="44.72016" lon="6.90851">
        <ele>2038</ele>
        <time>2021-11-18T07:49:45Z</time>
      </trkpt>
      <trkpt lat="44.72016" lon="6.90853">
        <ele>2039</ele>
        <time>2021-11-18T07:49:48Z</time>
      </trkpt>
      <trkpt lat="44.72016" lon="6.90856">
        <ele>2039</ele>
        <time>2021-11-18T07:49:51Z</time>
      </trkpt>
      <trkpt lat="44.72013" lon="6.90861">
        <ele>2040</ele>
        <time>2021-11-18T07:49:58Z</time>
      </trkpt>
      <trkpt lat="44.72013" lon="6.90863">
        <ele>2040</ele>
        <time>2021-11-18T07:50:00Z</time>
      </trkpt>
      <trkpt lat="44.72012" lon="6.90865">
        <ele>2040</ele>
        <time>2021-11-18T07:50:02Z</time>
      </trkpt>
      <trkpt lat="44.72011" lon="6.90867">
        <ele>2040</ele>
        <time>2021-11-18T07:50:04Z</time>
      </trkpt>
      <trkpt lat="44.7201" lon="6.90869">
        <ele>2041</ele>
        <time>2021-11-18T07:50:07Z</time>
      </trkpt>
      <trkpt lat="44.7201" lon="6.90873">
        <ele>2041</ele>
        <time>2021-11-18T07:50:12Z</time>
      </trkpt>
      <trkpt lat="44.7201" lon="6.90876">
        <ele>2041</ele>
        <time>2021-11-18T07:50:16Z</time>
      </trkpt>
      <trkpt lat="44.72012" lon="6.90879">
        <ele>2041</ele>
        <time>2021-11-18T07:50:19Z</time>
      </trkpt>
      <trkpt lat="44.72015" lon="6.90889">
        <ele>2042</ele>
        <time>2021-11-18T07:50:33Z</time>
      </trkpt>
      <trkpt lat="44.72015" lon="6.90891">
        <ele>2043</ele>
        <time>2021-11-18T07:50:36Z</time>
      </trkpt>
      <trkpt lat="44.72016" lon="6.90894">
        <ele>2043</ele>
        <time>2021-11-18T07:50:39Z</time>
      </trkpt>
      <trkpt lat="44.72016" lon="6.90897">
        <ele>2043</ele>
        <time>2021-11-18T07:50:42Z</time>
      </trkpt>
      <trkpt lat="44.72027" lon="6.90904">
        <ele>2047</ele>
        <time>2021-11-18T07:51:05Z</time>
      </trkpt>
      <trkpt lat="44.7203" lon="6.90906">
        <ele>2048</ele>
        <time>2021-11-18T07:51:09Z</time>
      </trkpt>
      <trkpt lat="44.72032" lon="6.90907">
        <ele>2048</ele>
        <time>2021-11-18T07:51:13Z</time>
      </trkpt>
      <trkpt lat="44.72033" lon="6.90909">
        <ele>2048</ele>
        <time>2021-11-18T07:51:16Z</time>
      </trkpt>
      <trkpt lat="44.72034" lon="6.90912">
        <ele>2049</ele>
        <time>2021-11-18T07:51:19Z</time>
      </trkpt>
      <trkpt lat="44.72034" lon="6.90915">
        <ele>2050</ele>
        <time>2021-11-18T07:51:22Z</time>
      </trkpt>
      <trkpt lat="44.72034" lon="6.90918">
        <ele>2050</ele>
        <time>2021-11-18T07:51:25Z</time>
      </trkpt>
      <trkpt lat="44.72035" lon="6.90923">
        <ele>2052</ele>
        <time>2021-11-18T07:51:32Z</time>
      </trkpt>
      <trkpt lat="44.72032" lon="6.90929">
        <ele>2052</ele>
        <time>2021-11-18T07:51:42Z</time>
      </trkpt>
      <trkpt lat="44.72031" lon="6.90932">
        <ele>2052</ele>
        <time>2021-11-18T07:51:46Z</time>
      </trkpt>
      <trkpt lat="44.7203" lon="6.90937">
        <ele>2053</ele>
        <time>2021-11-18T07:51:53Z</time>
      </trkpt>
      <trkpt lat="44.72032" lon="6.90937">
        <ele>2053</ele>
        <time>2021-11-18T07:51:56Z</time>
      </trkpt>
      <trkpt lat="44.72035" lon="6.9094">
        <ele>2055</ele>
        <time>2021-11-18T07:52:06Z</time>
      </trkpt>
      <trkpt lat="44.72038" lon="6.9094">
        <ele>2055</ele>
        <time>2021-11-18T07:52:10Z</time>
      </trkpt>
      <trkpt lat="44.72039" lon="6.9094">
        <ele>2056</ele>
        <time>2021-11-18T07:52:13Z</time>
      </trkpt>
      <trkpt lat="44.72041" lon="6.90942">
        <ele>2056</ele>
        <time>2021-11-18T07:52:16Z</time>
      </trkpt>
      <trkpt lat="44.72042" lon="6.90943">
        <ele>2056</ele>
        <time>2021-11-18T07:52:21Z</time>
      </trkpt>
      <trkpt lat="44.72047" lon="6.90943">
        <ele>2058</ele>
        <time>2021-11-18T07:52:35Z</time>
      </trkpt>
      <trkpt lat="44.7205" lon="6.90941">
        <ele>2059</ele>
        <time>2021-11-18T07:52:40Z</time>
      </trkpt>
      <trkpt lat="44.72051" lon="6.90939">
        <ele>2060</ele>
        <time>2021-11-18T07:52:43Z</time>
      </trkpt>
      <trkpt lat="44.72052" lon="6.90937">
        <ele>2061</ele>
        <time>2021-11-18T07:52:48Z</time>
      </trkpt>
      <trkpt lat="44.72053" lon="6.90932">
        <ele>2062</ele>
        <time>2021-11-18T07:52:56Z</time>
      </trkpt>
      <trkpt lat="44.72054" lon="6.90931">
        <ele>2064</ele>
        <time>2021-11-18T07:53:00Z</time>
      </trkpt>
      <trkpt lat="44.72056" lon="6.90929">
        <ele>2065</ele>
        <time>2021-11-18T07:53:04Z</time>
      </trkpt>
      <trkpt lat="44.72057" lon="6.90927">
        <ele>2066</ele>
        <time>2021-11-18T07:53:07Z</time>
      </trkpt>
      <trkpt lat="44.72058" lon="6.90925">
        <ele>2066</ele>
        <time>2021-11-18T07:53:10Z</time>
      </trkpt>
      <trkpt lat="44.72062" lon="6.9092">
        <ele>2069</ele>
        <time>2021-11-18T07:53:18Z</time>
      </trkpt>
      <trkpt lat="44.72064" lon="6.90919">
        <ele>2069</ele>
        <time>2021-11-18T07:53:21Z</time>
      </trkpt>
      <trkpt lat="44.72065" lon="6.90919">
        <ele>2070</ele>
        <time>2021-11-18T07:53:24Z</time>
      </trkpt>
      <trkpt lat="44.72066" lon="6.90917">
        <ele>2070</ele>
        <time>2021-11-18T07:53:28Z</time>
      </trkpt>
      <trkpt lat="44.72068" lon="6.90918">
        <ele>2071</ele>
        <time>2021-11-18T07:53:33Z</time>
      </trkpt>
      <trkpt lat="44.72071" lon="6.90925">
        <ele>2071</ele>
        <time>2021-11-18T07:53:40Z</time>
      </trkpt>
      <trkpt lat="44.72075" lon="6.90942">
        <ele>2071</ele>
        <time>2021-11-18T07:54:04Z</time>
      </trkpt>
      <trkpt lat="44.72074" lon="6.90953">
        <ele>2072</ele>
        <time>2021-11-18T07:54:14Z</time>
      </trkpt>
      <trkpt lat="44.72075" lon="6.90955">
        <ele>2072</ele>
        <time>2021-11-18T07:54:19Z</time>
      </trkpt>
      <trkpt lat="44.72074" lon="6.90962">
        <ele>2073</ele>
        <time>2021-11-18T07:54:28Z</time>
      </trkpt>
      <trkpt lat="44.72074" lon="6.90964">
        <ele>2073</ele>
        <time>2021-11-18T07:54:30Z</time>
      </trkpt>
      <trkpt lat="44.72075" lon="6.90976">
        <ele>2076</ele>
        <time>2021-11-18T07:54:41Z</time>
      </trkpt>
      <trkpt lat="44.72077" lon="6.9098">
        <ele>2077</ele>
        <time>2021-11-18T07:54:46Z</time>
      </trkpt>
      <trkpt lat="44.72078" lon="6.90982">
        <ele>2077</ele>
        <time>2021-11-18T07:54:48Z</time>
      </trkpt>
      <trkpt lat="44.72081" lon="6.90987">
        <ele>2078</ele>
        <time>2021-11-18T07:54:54Z</time>
      </trkpt>
      <trkpt lat="44.72082" lon="6.90988">
        <ele>2079</ele>
        <time>2021-11-18T07:54:56Z</time>
      </trkpt>
      <trkpt lat="44.72084" lon="6.90993">
        <ele>2080</ele>
        <time>2021-11-18T07:55:01Z</time>
      </trkpt>
      <trkpt lat="44.72087" lon="6.90999">
        <ele>2081</ele>
        <time>2021-11-18T07:55:11Z</time>
      </trkpt>
      <trkpt lat="44.72087" lon="6.91002">
        <ele>2082</ele>
        <time>2021-11-18T07:55:15Z</time>
      </trkpt>
      <trkpt lat="44.72086" lon="6.91003">
        <ele>2082</ele>
        <time>2021-11-18T07:55:20Z</time>
      </trkpt>
      <trkpt lat="44.72085" lon="6.91005">
        <ele>2083</ele>
        <time>2021-11-18T07:55:23Z</time>
      </trkpt>
      <trkpt lat="44.72084" lon="6.91007">
        <ele>2084</ele>
        <time>2021-11-18T07:55:26Z</time>
      </trkpt>
      <trkpt lat="44.72083" lon="6.91009">
        <ele>2085</ele>
        <time>2021-11-18T07:55:30Z</time>
      </trkpt>
      <trkpt lat="44.72081" lon="6.91014">
        <ele>2085</ele>
        <time>2021-11-18T07:55:37Z</time>
      </trkpt>
      <trkpt lat="44.72081" lon="6.91016">
        <ele>2086</ele>
        <time>2021-11-18T07:55:39Z</time>
      </trkpt>
      <trkpt lat="44.72079" lon="6.9102">
        <ele>2087</ele>
        <time>2021-11-18T07:55:44Z</time>
      </trkpt>
      <trkpt lat="44.72079" lon="6.91023">
        <ele>2087</ele>
        <time>2021-11-18T07:55:47Z</time>
      </trkpt>
      <trkpt lat="44.72078" lon="6.91025">
        <ele>2087</ele>
        <time>2021-11-18T07:55:49Z</time>
      </trkpt>
      <trkpt lat="44.72076" lon="6.91031">
        <ele>2086</ele>
        <time>2021-11-18T07:55:59Z</time>
      </trkpt>
      <trkpt lat="44.72074" lon="6.91035">
        <ele>2086</ele>
        <time>2021-11-18T07:56:05Z</time>
      </trkpt>
      <trkpt lat="44.72072" lon="6.91043">
        <ele>2086</ele>
        <time>2021-11-18T07:56:14Z</time>
      </trkpt>
      <trkpt lat="44.72071" lon="6.91049">
        <ele>2086</ele>
        <time>2021-11-18T07:56:24Z</time>
      </trkpt>
      <trkpt lat="44.72072" lon="6.91053">
        <ele>2087</ele>
        <time>2021-11-18T07:56:28Z</time>
      </trkpt>
      <trkpt lat="44.72072" lon="6.91055">
        <ele>2088</ele>
        <time>2021-11-18T07:56:31Z</time>
      </trkpt>
      <trkpt lat="44.72072" lon="6.91058">
        <ele>2088</ele>
        <time>2021-11-18T07:56:34Z</time>
      </trkpt>
      <trkpt lat="44.72074" lon="6.91065">
        <ele>2089</ele>
        <time>2021-11-18T07:56:40Z</time>
      </trkpt>
      <trkpt lat="44.72074" lon="6.9107">
        <ele>2089</ele>
        <time>2021-11-18T07:56:44Z</time>
      </trkpt>
      <trkpt lat="44.72074" lon="6.91076">
        <ele>2090</ele>
        <time>2021-11-18T07:56:50Z</time>
      </trkpt>
      <trkpt lat="44.72075" lon="6.91081">
        <ele>2091</ele>
        <time>2021-11-18T07:56:55Z</time>
      </trkpt>
      <trkpt lat="44.72076" lon="6.91084">
        <ele>2092</ele>
        <time>2021-11-18T07:56:58Z</time>
      </trkpt>
      <trkpt lat="44.72076" lon="6.91087">
        <ele>2093</ele>
        <time>2021-11-18T07:57:01Z</time>
      </trkpt>
      <trkpt lat="44.72076" lon="6.91094">
        <ele>2094</ele>
        <time>2021-11-18T07:57:10Z</time>
      </trkpt>
      <trkpt lat="44.72075" lon="6.91096">
        <ele>2095</ele>
        <time>2021-11-18T07:57:14Z</time>
      </trkpt>
      <trkpt lat="44.72074" lon="6.91098">
        <ele>2095</ele>
        <time>2021-11-18T07:57:17Z</time>
      </trkpt>
      <trkpt lat="44.72072" lon="6.91101">
        <ele>2098</ele>
        <time>2021-11-18T07:57:21Z</time>
      </trkpt>
      <trkpt lat="44.72069" lon="6.91106">
        <ele>2101</ele>
        <time>2021-11-18T07:57:30Z</time>
      </trkpt>
      <trkpt lat="44.72068" lon="6.9111">
        <ele>2102</ele>
        <time>2021-11-18T07:57:34Z</time>
      </trkpt>
      <trkpt lat="44.72067" lon="6.91112">
        <ele>2103</ele>
        <time>2021-11-18T07:57:38Z</time>
      </trkpt>
      <trkpt lat="44.72066" lon="6.91113">
        <ele>2103</ele>
        <time>2021-11-18T07:57:40Z</time>
      </trkpt>
      <trkpt lat="44.72065" lon="6.91118">
        <ele>2104</ele>
        <time>2021-11-18T07:57:45Z</time>
      </trkpt>
      <trkpt lat="44.72064" lon="6.9112">
        <ele>2104</ele>
        <time>2021-11-18T07:57:50Z</time>
      </trkpt>
      <trkpt lat="44.72062" lon="6.91128">
        <ele>2105</ele>
        <time>2021-11-18T07:57:57Z</time>
      </trkpt>
      <trkpt lat="44.72062" lon="6.91132">
        <ele>2105</ele>
        <time>2021-11-18T07:58:00Z</time>
      </trkpt>
      <trkpt lat="44.72062" lon="6.91134">
        <ele>2105</ele>
        <time>2021-11-18T07:58:03Z</time>
      </trkpt>
      <trkpt lat="44.72062" lon="6.91141">
        <ele>2106</ele>
        <time>2021-11-18T07:58:11Z</time>
      </trkpt>
      <trkpt lat="44.72058" lon="6.9115">
        <ele>2110</ele>
        <time>2021-11-18T07:58:22Z</time>
      </trkpt>
      <trkpt lat="44.72057" lon="6.91152">
        <ele>2110</ele>
        <time>2021-11-18T07:58:24Z</time>
      </trkpt>
      <trkpt lat="44.72056" lon="6.91155">
        <ele>2110</ele>
        <time>2021-11-18T07:58:27Z</time>
      </trkpt>
      <trkpt lat="44.72055" lon="6.91157">
        <ele>2110</ele>
        <time>2021-11-18T07:58:30Z</time>
      </trkpt>
      <trkpt lat="44.72054" lon="6.91159">
        <ele>2110</ele>
        <time>2021-11-18T07:58:33Z</time>
      </trkpt>
      <trkpt lat="44.72053" lon="6.91161">
        <ele>2111</ele>
        <time>2021-11-18T07:58:36Z</time>
      </trkpt>
      <trkpt lat="44.72052" lon="6.91164">
        <ele>2111</ele>
        <time>2021-11-18T07:58:39Z</time>
      </trkpt>
      <trkpt lat="44.72051" lon="6.91166">
        <ele>2111</ele>
        <time>2021-11-18T07:58:42Z</time>
      </trkpt>
      <trkpt lat="44.72051" lon="6.91169">
        <ele>2112</ele>
        <time>2021-11-18T07:58:45Z</time>
      </trkpt>
      <trkpt lat="44.72049" lon="6.91173">
        <ele>2113</ele>
        <time>2021-11-18T07:58:51Z</time>
      </trkpt>
      <trkpt lat="44.72048" lon="6.91178">
        <ele>2114</ele>
        <time>2021-11-18T07:58:57Z</time>
      </trkpt>
      <trkpt lat="44.72051" lon="6.91182">
        <ele>2115</ele>
        <time>2021-11-18T07:59:03Z</time>
      </trkpt>
      <trkpt lat="44.72051" lon="6.91184">
        <ele>2115</ele>
        <time>2021-11-18T07:59:06Z</time>
      </trkpt>
      <trkpt lat="44.7205" lon="6.91189">
        <ele>2116</ele>
        <time>2021-11-18T07:59:12Z</time>
      </trkpt>
      <trkpt lat="44.7205" lon="6.91192">
        <ele>2116</ele>
        <time>2021-11-18T07:59:16Z</time>
      </trkpt>
      <trkpt lat="44.72047" lon="6.91198">
        <ele>2117</ele>
        <time>2021-11-18T07:59:24Z</time>
      </trkpt>
      <trkpt lat="44.72046" lon="6.912">
        <ele>2117</ele>
        <time>2021-11-18T07:59:26Z</time>
      </trkpt>
      <trkpt lat="44.72045" lon="6.91202">
        <ele>2117</ele>
        <time>2021-11-18T07:59:29Z</time>
      </trkpt>
      <trkpt lat="44.72045" lon="6.91209">
        <ele>2118</ele>
        <time>2021-11-18T07:59:38Z</time>
      </trkpt>
      <trkpt lat="44.72046" lon="6.91215">
        <ele>2119</ele>
        <time>2021-11-18T07:59:45Z</time>
      </trkpt>
      <trkpt lat="44.72047" lon="6.91218">
        <ele>2119</ele>
        <time>2021-11-18T07:59:48Z</time>
      </trkpt>
      <trkpt lat="44.72049" lon="6.91223">
        <ele>2120</ele>
        <time>2021-11-18T07:59:56Z</time>
      </trkpt>
      <trkpt lat="44.7205" lon="6.91225">
        <ele>2120</ele>
        <time>2021-11-18T07:59:59Z</time>
      </trkpt>
      <trkpt lat="44.72051" lon="6.9123">
        <ele>2120</ele>
        <time>2021-11-18T08:00:09Z</time>
      </trkpt>
      <trkpt lat="44.72052" lon="6.91232">
        <ele>2120</ele>
        <time>2021-11-18T08:00:14Z</time>
      </trkpt>
      <trkpt lat="44.72052" lon="6.91237">
        <ele>2121</ele>
        <time>2021-11-18T08:02:05Z</time>
      </trkpt>
      <trkpt lat="44.72051" lon="6.91234">
        <ele>2121</ele>
        <time>2021-11-18T08:02:14Z</time>
      </trkpt>
      <trkpt lat="44.7205" lon="6.91231">
        <ele>2121</ele>
        <time>2021-11-18T08:02:19Z</time>
      </trkpt>
      <trkpt lat="44.7205" lon="6.91232">
        <ele>2122</ele>
        <time>2021-11-18T08:02:37Z</time>
      </trkpt>
      <trkpt lat="44.72051" lon="6.91239">
        <ele>2122</ele>
        <time>2021-11-18T08:02:49Z</time>
      </trkpt>
      <trkpt lat="44.72053" lon="6.91244">
        <ele>2122</ele>
        <time>2021-11-18T08:02:56Z</time>
      </trkpt>
      <trkpt lat="44.72052" lon="6.91251">
        <ele>2122</ele>
        <time>2021-11-18T08:03:00Z</time>
      </trkpt>
      <trkpt lat="44.72052" lon="6.91254">
        <ele>2122</ele>
        <time>2021-11-18T08:03:03Z</time>
      </trkpt>
      <trkpt lat="44.72053" lon="6.9126">
        <ele>2123</ele>
        <time>2021-11-18T08:03:10Z</time>
      </trkpt>
      <trkpt lat="44.72054" lon="6.91262">
        <ele>2123</ele>
        <time>2021-11-18T08:03:12Z</time>
      </trkpt>
      <trkpt lat="44.72054" lon="6.91265">
        <ele>2123</ele>
        <time>2021-11-18T08:03:15Z</time>
      </trkpt>
      <trkpt lat="44.72055" lon="6.91268">
        <ele>2123</ele>
        <time>2021-11-18T08:03:18Z</time>
      </trkpt>
      <trkpt lat="44.72058" lon="6.91278">
        <ele>2124</ele>
        <time>2021-11-18T08:03:29Z</time>
      </trkpt>
      <trkpt lat="44.72058" lon="6.9128">
        <ele>2124</ele>
        <time>2021-11-18T08:03:31Z</time>
      </trkpt>
      <trkpt lat="44.72059" lon="6.91283">
        <ele>2124</ele>
        <time>2021-11-18T08:03:35Z</time>
      </trkpt>
      <trkpt lat="44.7206" lon="6.91285">
        <ele>2125</ele>
        <time>2021-11-18T08:03:38Z</time>
      </trkpt>
      <trkpt lat="44.72061" lon="6.91286">
        <ele>2126</ele>
        <time>2021-11-18T08:03:44Z</time>
      </trkpt>
      <trkpt lat="44.72063" lon="6.91286">
        <ele>2126</ele>
        <time>2021-11-18T08:03:47Z</time>
      </trkpt>
      <trkpt lat="44.72068" lon="6.91284">
        <ele>2128</ele>
        <time>2021-11-18T08:03:58Z</time>
      </trkpt>
      <trkpt lat="44.72076" lon="6.91286">
        <ele>2131</ele>
        <time>2021-11-18T08:04:11Z</time>
      </trkpt>
      <trkpt lat="44.7208" lon="6.91286">
        <ele>2134</ele>
        <time>2021-11-18T08:04:18Z</time>
      </trkpt>
      <trkpt lat="44.72084" lon="6.91286">
        <ele>2135</ele>
        <time>2021-11-18T08:04:23Z</time>
      </trkpt>
      <trkpt lat="44.72086" lon="6.91286">
        <ele>2136</ele>
        <time>2021-11-18T08:04:25Z</time>
      </trkpt>
      <trkpt lat="44.72087" lon="6.91285">
        <ele>2137</ele>
        <time>2021-11-18T08:04:29Z</time>
      </trkpt>
      <trkpt lat="44.72089" lon="6.91284">
        <ele>2138</ele>
        <time>2021-11-18T08:04:34Z</time>
      </trkpt>
      <trkpt lat="44.72091" lon="6.91285">
        <ele>2139</ele>
        <time>2021-11-18T08:04:36Z</time>
      </trkpt>
      <trkpt lat="44.72092" lon="6.91286">
        <ele>2140</ele>
        <time>2021-11-18T08:04:40Z</time>
      </trkpt>
      <trkpt lat="44.72092" lon="6.91288">
        <ele>2142</ele>
        <time>2021-11-18T08:04:50Z</time>
      </trkpt>
      <trkpt lat="44.72093" lon="6.91291">
        <ele>2143</ele>
        <time>2021-11-18T08:04:53Z</time>
      </trkpt>
      <trkpt lat="44.72092" lon="6.91294">
        <ele>2144</ele>
        <time>2021-11-18T08:04:56Z</time>
      </trkpt>
      <trkpt lat="44.72092" lon="6.91301">
        <ele>2145</ele>
        <time>2021-11-18T08:05:03Z</time>
      </trkpt>
      <trkpt lat="44.72091" lon="6.91305">
        <ele>2146</ele>
        <time>2021-11-18T08:05:09Z</time>
      </trkpt>
      <trkpt lat="44.72091" lon="6.91308">
        <ele>2148</ele>
        <time>2021-11-18T08:05:12Z</time>
      </trkpt>
      <trkpt lat="44.7209" lon="6.9131">
        <ele>2148</ele>
        <time>2021-11-18T08:05:14Z</time>
      </trkpt>
      <trkpt lat="44.72088" lon="6.91317">
        <ele>2153</ele>
        <time>2021-11-18T08:05:23Z</time>
      </trkpt>
      <trkpt lat="44.72089" lon="6.9132">
        <ele>2154</ele>
        <time>2021-11-18T08:05:27Z</time>
      </trkpt>
      <trkpt lat="44.72089" lon="6.91325">
        <ele>2154</ele>
        <time>2021-11-18T08:05:33Z</time>
      </trkpt>
      <trkpt lat="44.72087" lon="6.91331">
        <ele>2154</ele>
        <time>2021-11-18T08:05:40Z</time>
      </trkpt>
      <trkpt lat="44.72088" lon="6.91334">
        <ele>2154</ele>
        <time>2021-11-18T08:05:43Z</time>
      </trkpt>
      <trkpt lat="44.72087" lon="6.91336">
        <ele>2154</ele>
        <time>2021-11-18T08:05:46Z</time>
      </trkpt>
      <trkpt lat="44.72087" lon="6.91341">
        <ele>2155</ele>
        <time>2021-11-18T08:05:55Z</time>
      </trkpt>
      <trkpt lat="44.72086" lon="6.91343">
        <ele>2156</ele>
        <time>2021-11-18T08:05:58Z</time>
      </trkpt>
      <trkpt lat="44.72087" lon="6.91346">
        <ele>2156</ele>
        <time>2021-11-18T08:06:02Z</time>
      </trkpt>
      <trkpt lat="44.72087" lon="6.91348">
        <ele>2156</ele>
        <time>2021-11-18T08:06:04Z</time>
      </trkpt>
      <trkpt lat="44.72087" lon="6.91355">
        <ele>2157</ele>
        <time>2021-11-18T08:06:10Z</time>
      </trkpt>
      <trkpt lat="44.72086" lon="6.91359">
        <ele>2157</ele>
        <time>2021-11-18T08:06:12Z</time>
      </trkpt>
      <trkpt lat="44.72087" lon="6.91364">
        <ele>2157</ele>
        <time>2021-11-18T08:06:16Z</time>
      </trkpt>
      <trkpt lat="44.72086" lon="6.91386">
        <ele>2156</ele>
        <time>2021-11-18T08:06:30Z</time>
      </trkpt>
      <trkpt lat="44.72085" lon="6.91391">
        <ele>2156</ele>
        <time>2021-11-18T08:06:35Z</time>
      </trkpt>
      <trkpt lat="44.72085" lon="6.91393">
        <ele>2156</ele>
        <time>2021-11-18T08:06:37Z</time>
      </trkpt>
      <trkpt lat="44.72085" lon="6.91396">
        <ele>2155</ele>
        <time>2021-11-18T08:06:41Z</time>
      </trkpt>
      <trkpt lat="44.72086" lon="6.91398">
        <ele>2156</ele>
        <time>2021-11-18T08:06:43Z</time>
      </trkpt>
      <trkpt lat="44.72086" lon="6.91403">
        <ele>2156</ele>
        <time>2021-11-18T08:06:50Z</time>
      </trkpt>
      <trkpt lat="44.72087" lon="6.91406">
        <ele>2156</ele>
        <time>2021-11-18T08:06:53Z</time>
      </trkpt>
      <trkpt lat="44.72088" lon="6.91408">
        <ele>2156</ele>
        <time>2021-11-18T08:06:56Z</time>
      </trkpt>
      <trkpt lat="44.72089" lon="6.9141">
        <ele>2157</ele>
        <time>2021-11-18T08:06:58Z</time>
      </trkpt>
      <trkpt lat="44.7209" lon="6.91413">
        <ele>2157</ele>
        <time>2021-11-18T08:07:01Z</time>
      </trkpt>
      <trkpt lat="44.7209" lon="6.91415">
        <ele>2157</ele>
        <time>2021-11-18T08:07:03Z</time>
      </trkpt>
      <trkpt lat="44.72091" lon="6.91419">
        <ele>2157</ele>
        <time>2021-11-18T08:07:07Z</time>
      </trkpt>
      <trkpt lat="44.72091" lon="6.91422">
        <ele>2157</ele>
        <time>2021-11-18T08:07:10Z</time>
      </trkpt>
      <trkpt lat="44.72093" lon="6.91429">
        <ele>2158</ele>
        <time>2021-11-18T08:07:17Z</time>
      </trkpt>
      <trkpt lat="44.72094" lon="6.91431">
        <ele>2159</ele>
        <time>2021-11-18T08:07:21Z</time>
      </trkpt>
      <trkpt lat="44.72098" lon="6.91439">
        <ele>2159</ele>
        <time>2021-11-18T08:07:32Z</time>
      </trkpt>
      <trkpt lat="44.72098" lon="6.91442">
        <ele>2160</ele>
        <time>2021-11-18T08:07:34Z</time>
      </trkpt>
      <trkpt lat="44.72101" lon="6.91454">
        <ele>2160</ele>
        <time>2021-11-18T08:07:49Z</time>
      </trkpt>
      <trkpt lat="44.72102" lon="6.91456">
        <ele>2160</ele>
        <time>2021-11-18T08:07:52Z</time>
      </trkpt>
      <trkpt lat="44.72105" lon="6.9146">
        <ele>2161</ele>
        <time>2021-11-18T08:08:00Z</time>
      </trkpt>
      <trkpt lat="44.72106" lon="6.91468">
        <ele>2162</ele>
        <time>2021-11-18T08:08:10Z</time>
      </trkpt>
      <trkpt lat="44.72107" lon="6.91474">
        <ele>2164</ele>
        <time>2021-11-18T08:08:17Z</time>
      </trkpt>
      <trkpt lat="44.72107" lon="6.91477">
        <ele>2165</ele>
        <time>2021-11-18T08:08:23Z</time>
      </trkpt>
      <trkpt lat="44.72107" lon="6.9148">
        <ele>2166</ele>
        <time>2021-11-18T08:08:26Z</time>
      </trkpt>
      <trkpt lat="44.72108" lon="6.91486">
        <ele>2167</ele>
        <time>2021-11-18T08:08:33Z</time>
      </trkpt>
      <trkpt lat="44.72108" lon="6.91492">
        <ele>2169</ele>
        <time>2021-11-18T08:08:41Z</time>
      </trkpt>
      <trkpt lat="44.72109" lon="6.91494">
        <ele>2170</ele>
        <time>2021-11-18T08:08:44Z</time>
      </trkpt>
      <trkpt lat="44.72112" lon="6.91511">
        <ele>2175</ele>
        <time>2021-11-18T08:09:03Z</time>
      </trkpt>
      <trkpt lat="44.72113" lon="6.91513">
        <ele>2176</ele>
        <time>2021-11-18T08:09:06Z</time>
      </trkpt>
      <trkpt lat="44.72113" lon="6.91519">
        <ele>2177</ele>
        <time>2021-11-18T08:09:12Z</time>
      </trkpt>
      <trkpt lat="44.72112" lon="6.91522">
        <ele>2178</ele>
        <time>2021-11-18T08:09:15Z</time>
      </trkpt>
      <trkpt lat="44.72113" lon="6.91524">
        <ele>2178</ele>
        <time>2021-11-18T08:09:18Z</time>
      </trkpt>
      <trkpt lat="44.72115" lon="6.91534">
        <ele>2182</ele>
        <time>2021-11-18T08:09:33Z</time>
      </trkpt>
      <trkpt lat="44.72116" lon="6.91545">
        <ele>2184</ele>
        <time>2021-11-18T08:09:45Z</time>
      </trkpt>
      <trkpt lat="44.72117" lon="6.91555">
        <ele>2185</ele>
        <time>2021-11-18T08:09:55Z</time>
      </trkpt>
      <trkpt lat="44.72118" lon="6.91561">
        <ele>2186</ele>
        <time>2021-11-18T08:10:00Z</time>
      </trkpt>
      <trkpt lat="44.72119" lon="6.91563">
        <ele>2186</ele>
        <time>2021-11-18T08:10:03Z</time>
      </trkpt>
      <trkpt lat="44.72117" lon="6.91567">
        <ele>2187</ele>
        <time>2021-11-18T08:10:13Z</time>
      </trkpt>
      <trkpt lat="44.72115" lon="6.91568">
        <ele>2188</ele>
        <time>2021-11-18T08:10:15Z</time>
      </trkpt>
      <trkpt lat="44.72114" lon="6.91568">
        <ele>2188</ele>
        <time>2021-11-18T08:10:17Z</time>
      </trkpt>
      <trkpt lat="44.72112" lon="6.91569">
        <ele>2189</ele>
        <time>2021-11-18T08:10:21Z</time>
      </trkpt>
      <trkpt lat="44.72112" lon="6.91577">
        <ele>2190</ele>
        <time>2021-11-18T08:10:31Z</time>
      </trkpt>
      <trkpt lat="44.72113" lon="6.91582">
        <ele>2192</ele>
        <time>2021-11-18T08:10:37Z</time>
      </trkpt>
      <trkpt lat="44.72114" lon="6.91584">
        <ele>2192</ele>
        <time>2021-11-18T08:10:40Z</time>
      </trkpt>
      <trkpt lat="44.72114" lon="6.91587">
        <ele>2193</ele>
        <time>2021-11-18T08:10:44Z</time>
      </trkpt>
      <trkpt lat="44.72115" lon="6.91589">
        <ele>2193</ele>
        <time>2021-11-18T08:10:48Z</time>
      </trkpt>
      <trkpt lat="44.72115" lon="6.91592">
        <ele>2194</ele>
        <time>2021-11-18T08:10:52Z</time>
      </trkpt>
      <trkpt lat="44.72116" lon="6.91594">
        <ele>2195</ele>
        <time>2021-11-18T08:10:54Z</time>
      </trkpt>
      <trkpt lat="44.72115" lon="6.91597">
        <ele>2195</ele>
        <time>2021-11-18T08:10:57Z</time>
      </trkpt>
      <trkpt lat="44.72112" lon="6.91605">
        <ele>2200</ele>
        <time>2021-11-18T08:11:09Z</time>
      </trkpt>
      <trkpt lat="44.72112" lon="6.91608">
        <ele>2200</ele>
        <time>2021-11-18T08:11:13Z</time>
      </trkpt>
      <trkpt lat="44.72112" lon="6.91611">
        <ele>2201</ele>
        <time>2021-11-18T08:11:17Z</time>
      </trkpt>
      <trkpt lat="44.72111" lon="6.91615">
        <ele>2202</ele>
        <time>2021-11-18T08:11:22Z</time>
      </trkpt>
      <trkpt lat="44.72109" lon="6.91622">
        <ele>2203</ele>
        <time>2021-11-18T08:11:28Z</time>
      </trkpt>
      <trkpt lat="44.72108" lon="6.91626">
        <ele>2204</ele>
        <time>2021-11-18T08:11:33Z</time>
      </trkpt>
      <trkpt lat="44.72107" lon="6.91645">
        <ele>2207</ele>
        <time>2021-11-18T08:11:56Z</time>
      </trkpt>
      <trkpt lat="44.72113" lon="6.91645">
        <ele>2209</ele>
        <time>2021-11-18T08:12:14Z</time>
      </trkpt>
      <trkpt lat="44.72114" lon="6.91644">
        <ele>2209</ele>
        <time>2021-11-18T08:12:17Z</time>
      </trkpt>
      <trkpt lat="44.72116" lon="6.91642">
        <ele>2209</ele>
        <time>2021-11-18T08:12:20Z</time>
      </trkpt>
      <trkpt lat="44.72118" lon="6.9164">
        <ele>2209</ele>
        <time>2021-11-18T08:12:22Z</time>
      </trkpt>
      <trkpt lat="44.72122" lon="6.9164">
        <ele>2210</ele>
        <time>2021-11-18T08:12:28Z</time>
      </trkpt>
      <trkpt lat="44.72126" lon="6.91639">
        <ele>2211</ele>
        <time>2021-11-18T08:12:34Z</time>
      </trkpt>
      <trkpt lat="44.72128" lon="6.91639">
        <ele>2211</ele>
        <time>2021-11-18T08:12:37Z</time>
      </trkpt>
      <trkpt lat="44.72129" lon="6.91639">
        <ele>2211</ele>
        <time>2021-11-18T08:12:40Z</time>
      </trkpt>
      <trkpt lat="44.7213" lon="6.91642">
        <ele>2211</ele>
        <time>2021-11-18T08:12:43Z</time>
      </trkpt>
      <trkpt lat="44.72129" lon="6.91644">
        <ele>2211</ele>
        <time>2021-11-18T08:12:47Z</time>
      </trkpt>
      <trkpt lat="44.72127" lon="6.91651">
        <ele>2213</ele>
        <time>2021-11-18T08:12:55Z</time>
      </trkpt>
      <trkpt lat="44.72127" lon="6.91654">
        <ele>2213</ele>
        <time>2021-11-18T08:12:59Z</time>
      </trkpt>
      <trkpt lat="44.72125" lon="6.91665">
        <ele>2216</ele>
        <time>2021-11-18T08:13:11Z</time>
      </trkpt>
      <trkpt lat="44.72124" lon="6.91671">
        <ele>2217</ele>
        <time>2021-11-18T08:13:17Z</time>
      </trkpt>
      <trkpt lat="44.72125" lon="6.91673">
        <ele>2218</ele>
        <time>2021-11-18T08:13:20Z</time>
      </trkpt>
      <trkpt lat="44.72123" lon="6.9168">
        <ele>2221</ele>
        <time>2021-11-18T08:13:31Z</time>
      </trkpt>
      <trkpt lat="44.72123" lon="6.91683">
        <ele>2222</ele>
        <time>2021-11-18T08:13:34Z</time>
      </trkpt>
      <trkpt lat="44.72124" lon="6.91686">
        <ele>2223</ele>
        <time>2021-11-18T08:13:39Z</time>
      </trkpt>
      <trkpt lat="44.72124" lon="6.91688">
        <ele>2223</ele>
        <time>2021-11-18T08:13:42Z</time>
      </trkpt>
      <trkpt lat="44.72129" lon="6.91686">
        <ele>2226</ele>
        <time>2021-11-18T08:13:50Z</time>
      </trkpt>
      <trkpt lat="44.72131" lon="6.91683">
        <ele>2228</ele>
        <time>2021-11-18T08:14:00Z</time>
      </trkpt>
      <trkpt lat="44.72133" lon="6.91683">
        <ele>2228</ele>
        <time>2021-11-18T08:14:02Z</time>
      </trkpt>
      <trkpt lat="44.72135" lon="6.91683">
        <ele>2229</ele>
        <time>2021-11-18T08:14:04Z</time>
      </trkpt>
      <trkpt lat="44.72136" lon="6.91681">
        <ele>2229</ele>
        <time>2021-11-18T08:14:08Z</time>
      </trkpt>
      <trkpt lat="44.7214" lon="6.91682">
        <ele>2230</ele>
        <time>2021-11-18T08:14:13Z</time>
      </trkpt>
      <trkpt lat="44.72141" lon="6.91683">
        <ele>2230</ele>
        <time>2021-11-18T08:14:15Z</time>
      </trkpt>
      <trkpt lat="44.72143" lon="6.91683">
        <ele>2230</ele>
        <time>2021-11-18T08:14:18Z</time>
      </trkpt>
      <trkpt lat="44.72145" lon="6.91683">
        <ele>2230</ele>
        <time>2021-11-18T08:14:22Z</time>
      </trkpt>
      <trkpt lat="44.72147" lon="6.91683">
        <ele>2231</ele>
        <time>2021-11-18T08:14:26Z</time>
      </trkpt>
      <trkpt lat="44.72149" lon="6.91683">
        <ele>2231</ele>
        <time>2021-11-18T08:14:29Z</time>
      </trkpt>
      <trkpt lat="44.72157" lon="6.91683">
        <ele>2233</ele>
        <time>2021-11-18T08:14:42Z</time>
      </trkpt>
      <trkpt lat="44.72161" lon="6.91683">
        <ele>2234</ele>
        <time>2021-11-18T08:14:48Z</time>
      </trkpt>
      <trkpt lat="44.72163" lon="6.91683">
        <ele>2234</ele>
        <time>2021-11-18T08:14:51Z</time>
      </trkpt>
      <trkpt lat="44.72164" lon="6.91682">
        <ele>2234</ele>
        <time>2021-11-18T08:14:54Z</time>
      </trkpt>
      <trkpt lat="44.72166" lon="6.91682">
        <ele>2235</ele>
        <time>2021-11-18T08:14:57Z</time>
      </trkpt>
      <trkpt lat="44.72168" lon="6.91681">
        <ele>2235</ele>
        <time>2021-11-18T08:15:00Z</time>
      </trkpt>
      <trkpt lat="44.7217" lon="6.91681">
        <ele>2235</ele>
        <time>2021-11-18T08:15:03Z</time>
      </trkpt>
      <trkpt lat="44.72171" lon="6.9168">
        <ele>2236</ele>
        <time>2021-11-18T08:15:09Z</time>
      </trkpt>
      <trkpt lat="44.72171" lon="6.91682">
        <ele>2236</ele>
        <time>2021-11-18T08:15:13Z</time>
      </trkpt>
      <trkpt lat="44.7217" lon="6.91684">
        <ele>2236</ele>
        <time>2021-11-18T08:15:16Z</time>
      </trkpt>
      <trkpt lat="44.72169" lon="6.91687">
        <ele>2238</ele>
        <time>2021-11-18T08:15:20Z</time>
      </trkpt>
      <trkpt lat="44.72168" lon="6.91697">
        <ele>2241</ele>
        <time>2021-11-18T08:15:29Z</time>
      </trkpt>
      <trkpt lat="44.72168" lon="6.91703">
        <ele>2240</ele>
        <time>2021-11-18T08:15:34Z</time>
      </trkpt>
      <trkpt lat="44.72168" lon="6.91705">
        <ele>2240</ele>
        <time>2021-11-18T08:15:37Z</time>
      </trkpt>
      <trkpt lat="44.72169" lon="6.91708">
        <ele>2239</ele>
        <time>2021-11-18T08:15:41Z</time>
      </trkpt>
      <trkpt lat="44.72168" lon="6.91711">
        <ele>2239</ele>
        <time>2021-11-18T08:15:45Z</time>
      </trkpt>
      <trkpt lat="44.72169" lon="6.91713">
        <ele>2238</ele>
        <time>2021-11-18T08:15:50Z</time>
      </trkpt>
      <trkpt lat="44.72171" lon="6.91713">
        <ele>2238</ele>
        <time>2021-11-18T08:15:53Z</time>
      </trkpt>
      <trkpt lat="44.72174" lon="6.9171">
        <ele>2237</ele>
        <time>2021-11-18T08:15:57Z</time>
      </trkpt>
      <trkpt lat="44.72176" lon="6.9171">
        <ele>2237</ele>
        <time>2021-11-18T08:15:59Z</time>
      </trkpt>
      <trkpt lat="44.72181" lon="6.91709">
        <ele>2238</ele>
        <time>2021-11-18T08:16:08Z</time>
      </trkpt>
      <trkpt lat="44.72182" lon="6.91707">
        <ele>2238</ele>
        <time>2021-11-18T08:16:13Z</time>
      </trkpt>
      <trkpt lat="44.72183" lon="6.9171">
        <ele>2239</ele>
        <time>2021-11-18T08:16:20Z</time>
      </trkpt>
      <trkpt lat="44.72183" lon="6.91717">
        <ele>2243</ele>
        <time>2021-11-18T08:16:29Z</time>
      </trkpt>
      <trkpt lat="44.72181" lon="6.91726">
        <ele>2245</ele>
        <time>2021-11-18T08:16:40Z</time>
      </trkpt>
      <trkpt lat="44.72182" lon="6.91729">
        <ele>2246</ele>
        <time>2021-11-18T08:16:43Z</time>
      </trkpt>
      <trkpt lat="44.72182" lon="6.91731">
        <ele>2246</ele>
        <time>2021-11-18T08:16:47Z</time>
      </trkpt>
      <trkpt lat="44.72187" lon="6.91729">
        <ele>2248</ele>
        <time>2021-11-18T08:16:58Z</time>
      </trkpt>
      <trkpt lat="44.7219" lon="6.91728">
        <ele>2250</ele>
        <time>2021-11-18T08:17:04Z</time>
      </trkpt>
      <trkpt lat="44.72196" lon="6.91726">
        <ele>2252</ele>
        <time>2021-11-18T08:17:15Z</time>
      </trkpt>
      <trkpt lat="44.72198" lon="6.91724">
        <ele>2252</ele>
        <time>2021-11-18T08:17:18Z</time>
      </trkpt>
      <trkpt lat="44.72199" lon="6.91726">
        <ele>2252</ele>
        <time>2021-11-18T08:17:26Z</time>
      </trkpt>
      <trkpt lat="44.72199" lon="6.91735">
        <ele>2253</ele>
        <time>2021-11-18T08:17:34Z</time>
      </trkpt>
      <trkpt lat="44.722" lon="6.91742">
        <ele>2258</ele>
        <time>2021-11-18T08:17:49Z</time>
      </trkpt>
      <trkpt lat="44.722" lon="6.91744">
        <ele>2259</ele>
        <time>2021-11-18T08:17:52Z</time>
      </trkpt>
      <trkpt lat="44.72201" lon="6.91746">
        <ele>2259</ele>
        <time>2021-11-18T08:17:55Z</time>
      </trkpt>
      <trkpt lat="44.72202" lon="6.91748">
        <ele>2260</ele>
        <time>2021-11-18T08:17:58Z</time>
      </trkpt>
      <trkpt lat="44.72202" lon="6.91746">
        <ele>2261</ele>
        <time>2021-11-18T08:18:03Z</time>
      </trkpt>
      <trkpt lat="44.72204" lon="6.91745">
        <ele>2262</ele>
        <time>2021-11-18T08:18:07Z</time>
      </trkpt>
      <trkpt lat="44.72208" lon="6.91744">
        <ele>2264</ele>
        <time>2021-11-18T08:18:19Z</time>
      </trkpt>
      <trkpt lat="44.72209" lon="6.91747">
        <ele>2264</ele>
        <time>2021-11-18T08:18:23Z</time>
      </trkpt>
      <trkpt lat="44.72208" lon="6.9175">
        <ele>2265</ele>
        <time>2021-11-18T08:18:26Z</time>
      </trkpt>
      <trkpt lat="44.72208" lon="6.91752">
        <ele>2266</ele>
        <time>2021-11-18T08:18:29Z</time>
      </trkpt>
      <trkpt lat="44.72207" lon="6.91755">
        <ele>2267</ele>
        <time>2021-11-18T08:18:32Z</time>
      </trkpt>
      <trkpt lat="44.72202" lon="6.91763">
        <ele>2268</ele>
        <time>2021-11-18T08:18:42Z</time>
      </trkpt>
      <trkpt lat="44.72201" lon="6.91772">
        <ele>2269</ele>
        <time>2021-11-18T08:18:56Z</time>
      </trkpt>
      <trkpt lat="44.72201" lon="6.91775">
        <ele>2270</ele>
        <time>2021-11-18T08:18:59Z</time>
      </trkpt>
      <trkpt lat="44.72203" lon="6.91777">
        <ele>2270</ele>
        <time>2021-11-18T08:19:04Z</time>
      </trkpt>
      <trkpt lat="44.72204" lon="6.91776">
        <ele>2271</ele>
        <time>2021-11-18T08:19:08Z</time>
      </trkpt>
      <trkpt lat="44.72206" lon="6.91776">
        <ele>2271</ele>
        <time>2021-11-18T08:19:21Z</time>
      </trkpt>
      <trkpt lat="44.72208" lon="6.91775">
        <ele>2272</ele>
        <time>2021-11-18T08:19:24Z</time>
      </trkpt>
      <trkpt lat="44.7221" lon="6.91774">
        <ele>2272</ele>
        <time>2021-11-18T08:19:27Z</time>
      </trkpt>
      <trkpt lat="44.72211" lon="6.91773">
        <ele>2272</ele>
        <time>2021-11-18T08:19:30Z</time>
      </trkpt>
      <trkpt lat="44.72213" lon="6.91771">
        <ele>2273</ele>
        <time>2021-11-18T08:19:33Z</time>
      </trkpt>
      <trkpt lat="44.72215" lon="6.91769">
        <ele>2273</ele>
        <time>2021-11-18T08:19:36Z</time>
      </trkpt>
      <trkpt lat="44.72216" lon="6.91768">
        <ele>2273</ele>
        <time>2021-11-18T08:19:39Z</time>
      </trkpt>
      <trkpt lat="44.72218" lon="6.91768">
        <ele>2274</ele>
        <time>2021-11-18T08:19:42Z</time>
      </trkpt>
      <trkpt lat="44.72224" lon="6.91764">
        <ele>2275</ele>
        <time>2021-11-18T08:19:50Z</time>
      </trkpt>
      <trkpt lat="44.72226" lon="6.91764">
        <ele>2275</ele>
        <time>2021-11-18T08:19:54Z</time>
      </trkpt>
      <trkpt lat="44.72226" lon="6.91767">
        <ele>2276</ele>
        <time>2021-11-18T08:19:57Z</time>
      </trkpt>
      <trkpt lat="44.72225" lon="6.91775">
        <ele>2278</ele>
        <time>2021-11-18T08:20:05Z</time>
      </trkpt>
      <trkpt lat="44.72223" lon="6.9178">
        <ele>2280</ele>
        <time>2021-11-18T08:20:12Z</time>
      </trkpt>
      <trkpt lat="44.72223" lon="6.91783">
        <ele>2282</ele>
        <time>2021-11-18T08:20:16Z</time>
      </trkpt>
      <trkpt lat="44.72222" lon="6.91788">
        <ele>2283</ele>
        <time>2021-11-18T08:20:21Z</time>
      </trkpt>
      <trkpt lat="44.72222" lon="6.91791">
        <ele>2284</ele>
        <time>2021-11-18T08:20:25Z</time>
      </trkpt>
      <trkpt lat="44.72222" lon="6.91794">
        <ele>2285</ele>
        <time>2021-11-18T08:20:29Z</time>
      </trkpt>
      <trkpt lat="44.72222" lon="6.91802">
        <ele>2287</ele>
        <time>2021-11-18T08:20:40Z</time>
      </trkpt>
      <trkpt lat="44.72221" lon="6.91805">
        <ele>2288</ele>
        <time>2021-11-18T08:20:43Z</time>
      </trkpt>
      <trkpt lat="44.7222" lon="6.91807">
        <ele>2289</ele>
        <time>2021-11-18T08:20:47Z</time>
      </trkpt>
      <trkpt lat="44.7222" lon="6.91809">
        <ele>2290</ele>
        <time>2021-11-18T08:20:50Z</time>
      </trkpt>
      <trkpt lat="44.7222" lon="6.91811">
        <ele>2290</ele>
        <time>2021-11-18T08:20:52Z</time>
      </trkpt>
      <trkpt lat="44.7222" lon="6.91814">
        <ele>2291</ele>
        <time>2021-11-18T08:20:55Z</time>
      </trkpt>
      <trkpt lat="44.72219" lon="6.91816">
        <ele>2291</ele>
        <time>2021-11-18T08:20:58Z</time>
      </trkpt>
      <trkpt lat="44.72219" lon="6.91819">
        <ele>2292</ele>
        <time>2021-11-18T08:21:01Z</time>
      </trkpt>
      <trkpt lat="44.7222" lon="6.91824">
        <ele>2293</ele>
        <time>2021-11-18T08:21:07Z</time>
      </trkpt>
      <trkpt lat="44.72219" lon="6.91827">
        <ele>2293</ele>
        <time>2021-11-18T08:21:14Z</time>
      </trkpt>
      <trkpt lat="44.72219" lon="6.91829">
        <ele>2294</ele>
        <time>2021-11-18T08:21:26Z</time>
      </trkpt>
      <trkpt lat="44.72219" lon="6.91833">
        <ele>2294</ele>
        <time>2021-11-18T08:21:29Z</time>
      </trkpt>
      <trkpt lat="44.72218" lon="6.91836">
        <ele>2294</ele>
        <time>2021-11-18T08:21:31Z</time>
      </trkpt>
      <trkpt lat="44.72218" lon="6.91839">
        <ele>2294</ele>
        <time>2021-11-18T08:21:34Z</time>
      </trkpt>
      <trkpt lat="44.72218" lon="6.91851">
        <ele>2294</ele>
        <time>2021-11-18T08:21:41Z</time>
      </trkpt>
      <trkpt lat="44.7222" lon="6.91855">
        <ele>2293</ele>
        <time>2021-11-18T08:21:43Z</time>
      </trkpt>
      <trkpt lat="44.7222" lon="6.9186">
        <ele>2292</ele>
        <time>2021-11-18T08:21:46Z</time>
      </trkpt>
      <trkpt lat="44.7222" lon="6.91868">
        <ele>2291</ele>
        <time>2021-11-18T08:21:52Z</time>
      </trkpt>
      <trkpt lat="44.7222" lon="6.9187">
        <ele>2292</ele>
        <time>2021-11-18T08:21:56Z</time>
      </trkpt>
      <trkpt lat="44.7222" lon="6.91874">
        <ele>2295</ele>
        <time>2021-11-18T08:21:58Z</time>
      </trkpt>
      <trkpt lat="44.72221" lon="6.91876">
        <ele>2296</ele>
        <time>2021-11-18T08:22:01Z</time>
      </trkpt>
      <trkpt lat="44.7222" lon="6.91881">
        <ele>2297</ele>
        <time>2021-11-18T08:22:07Z</time>
      </trkpt>
      <trkpt lat="44.72221" lon="6.91884">
        <ele>2298</ele>
        <time>2021-11-18T08:22:11Z</time>
      </trkpt>
      <trkpt lat="44.72226" lon="6.91887">
        <ele>2298</ele>
        <time>2021-11-18T08:22:15Z</time>
      </trkpt>
      <trkpt lat="44.72227" lon="6.91889">
        <ele>2298</ele>
        <time>2021-11-18T08:22:17Z</time>
      </trkpt>
      <trkpt lat="44.72228" lon="6.91896">
        <ele>2297</ele>
        <time>2021-11-18T08:22:23Z</time>
      </trkpt>
      <trkpt lat="44.72228" lon="6.91899">
        <ele>2297</ele>
        <time>2021-11-18T08:22:25Z</time>
      </trkpt>
      <trkpt lat="44.72227" lon="6.91902">
        <ele>2297</ele>
        <time>2021-11-18T08:22:27Z</time>
      </trkpt>
      <trkpt lat="44.72227" lon="6.91905">
        <ele>2298</ele>
        <time>2021-11-18T08:22:30Z</time>
      </trkpt>
      <trkpt lat="44.72226" lon="6.91911">
        <ele>2298</ele>
        <time>2021-11-18T08:22:34Z</time>
      </trkpt>
      <trkpt lat="44.72226" lon="6.91914">
        <ele>2298</ele>
        <time>2021-11-18T08:22:36Z</time>
      </trkpt>
      <trkpt lat="44.72226" lon="6.91917">
        <ele>2298</ele>
        <time>2021-11-18T08:22:38Z</time>
      </trkpt>
      <trkpt lat="44.72225" lon="6.91922">
        <ele>2299</ele>
        <time>2021-11-18T08:22:45Z</time>
      </trkpt>
      <trkpt lat="44.72222" lon="6.91934">
        <ele>2301</ele>
        <time>2021-11-18T08:22:58Z</time>
      </trkpt>
      <trkpt lat="44.7222" lon="6.9194">
        <ele>2302</ele>
        <time>2021-11-18T08:23:02Z</time>
      </trkpt>
      <trkpt lat="44.7222" lon="6.91945">
        <ele>2303</ele>
        <time>2021-11-18T08:23:08Z</time>
      </trkpt>
      <trkpt lat="44.7222" lon="6.91948">
        <ele>2303</ele>
        <time>2021-11-18T08:23:11Z</time>
      </trkpt>
      <trkpt lat="44.72219" lon="6.91951">
        <ele>2304</ele>
        <time>2021-11-18T08:23:16Z</time>
      </trkpt>
      <trkpt lat="44.72216" lon="6.9196">
        <ele>2305</ele>
        <time>2021-11-18T08:23:24Z</time>
      </trkpt>
      <trkpt lat="44.72215" lon="6.91962">
        <ele>2306</ele>
        <time>2021-11-18T08:23:27Z</time>
      </trkpt>
      <trkpt lat="44.72215" lon="6.91968">
        <ele>2306</ele>
        <time>2021-11-18T08:23:31Z</time>
      </trkpt>
      <trkpt lat="44.72213" lon="6.91977">
        <ele>2309</ele>
        <time>2021-11-18T08:23:39Z</time>
      </trkpt>
      <trkpt lat="44.7221" lon="6.91984">
        <ele>2310</ele>
        <time>2021-11-18T08:23:45Z</time>
      </trkpt>
      <trkpt lat="44.7221" lon="6.91987">
        <ele>2311</ele>
        <time>2021-11-18T08:23:47Z</time>
      </trkpt>
      <trkpt lat="44.7221" lon="6.91993">
        <ele>2313</ele>
        <time>2021-11-18T08:23:51Z</time>
      </trkpt>
      <trkpt lat="44.72209" lon="6.91995">
        <ele>2314</ele>
        <time>2021-11-18T08:23:54Z</time>
      </trkpt>
      <trkpt lat="44.72209" lon="6.91998">
        <ele>2317</ele>
        <time>2021-11-18T08:23:57Z</time>
      </trkpt>
      <trkpt lat="44.72208" lon="6.92">
        <ele>2318</ele>
        <time>2021-11-18T08:24:00Z</time>
      </trkpt>
      <trkpt lat="44.722" lon="6.92011">
        <ele>2320</ele>
        <time>2021-11-18T08:24:10Z</time>
      </trkpt>
      <trkpt lat="44.72197" lon="6.92019">
        <ele>2321</ele>
        <time>2021-11-18T08:24:16Z</time>
      </trkpt>
      <trkpt lat="44.72195" lon="6.92022">
        <ele>2321</ele>
        <time>2021-11-18T08:24:18Z</time>
      </trkpt>
      <trkpt lat="44.72192" lon="6.92024">
        <ele>2323</ele>
        <time>2021-11-18T08:24:22Z</time>
      </trkpt>
      <trkpt lat="44.7219" lon="6.92024">
        <ele>2324</ele>
        <time>2021-11-18T08:24:24Z</time>
      </trkpt>
      <trkpt lat="44.72185" lon="6.92028">
        <ele>2327</ele>
        <time>2021-11-18T08:24:35Z</time>
      </trkpt>
      <trkpt lat="44.72184" lon="6.92031">
        <ele>2328</ele>
        <time>2021-11-18T08:24:40Z</time>
      </trkpt>
      <trkpt lat="44.72183" lon="6.92034">
        <ele>2329</ele>
        <time>2021-11-18T08:24:43Z</time>
      </trkpt>
      <trkpt lat="44.72184" lon="6.92036">
        <ele>2329</ele>
        <time>2021-11-18T08:24:46Z</time>
      </trkpt>
      <trkpt lat="44.72185" lon="6.92039">
        <ele>2329</ele>
        <time>2021-11-18T08:24:52Z</time>
      </trkpt>
      <trkpt lat="44.72186" lon="6.92043">
        <ele>2329</ele>
        <time>2021-11-18T08:24:54Z</time>
      </trkpt>
      <trkpt lat="44.72185" lon="6.92045">
        <ele>2329</ele>
        <time>2021-11-18T08:24:56Z</time>
      </trkpt>
      <trkpt lat="44.72181" lon="6.92047">
        <ele>2328</ele>
        <time>2021-11-18T08:25:02Z</time>
      </trkpt>
      <trkpt lat="44.72179" lon="6.92051">
        <ele>2329</ele>
        <time>2021-11-18T08:25:08Z</time>
      </trkpt>
      <trkpt lat="44.72173" lon="6.92059">
        <ele>2329</ele>
        <time>2021-11-18T08:25:18Z</time>
      </trkpt>
      <trkpt lat="44.72172" lon="6.92062">
        <ele>2329</ele>
        <time>2021-11-18T08:25:21Z</time>
      </trkpt>
      <trkpt lat="44.72169" lon="6.92066">
        <ele>2329</ele>
        <time>2021-11-18T08:25:29Z</time>
      </trkpt>
      <trkpt lat="44.72167" lon="6.92065">
        <ele>2328</ele>
        <time>2021-11-18T08:25:32Z</time>
      </trkpt>
      <trkpt lat="44.72165" lon="6.92068">
        <ele>2328</ele>
        <time>2021-11-18T08:25:35Z</time>
      </trkpt>
      <trkpt lat="44.72163" lon="6.9207">
        <ele>2328</ele>
        <time>2021-11-18T08:25:37Z</time>
      </trkpt>
      <trkpt lat="44.72162" lon="6.92071">
        <ele>2327</ele>
        <time>2021-11-18T08:25:41Z</time>
      </trkpt>
      <trkpt lat="44.7216" lon="6.92074">
        <ele>2328</ele>
        <time>2021-11-18T08:25:47Z</time>
      </trkpt>
      <trkpt lat="44.72158" lon="6.92075">
        <ele>2329</ele>
        <time>2021-11-18T08:25:52Z</time>
      </trkpt>
      <trkpt lat="44.72156" lon="6.92076">
        <ele>2329</ele>
        <time>2021-11-18T08:25:58Z</time>
      </trkpt>
      <trkpt lat="44.72157" lon="6.92079">
        <ele>2330</ele>
        <time>2021-11-18T08:26:01Z</time>
      </trkpt>
      <trkpt lat="44.72154" lon="6.92082">
        <ele>2331</ele>
        <time>2021-11-18T08:26:10Z</time>
      </trkpt>
      <trkpt lat="44.72153" lon="6.92085">
        <ele>2332</ele>
        <time>2021-11-18T08:26:13Z</time>
      </trkpt>
      <trkpt lat="44.72154" lon="6.92089">
        <ele>2333</ele>
        <time>2021-11-18T08:26:17Z</time>
      </trkpt>
      <trkpt lat="44.72154" lon="6.92091">
        <ele>2334</ele>
        <time>2021-11-18T08:26:23Z</time>
      </trkpt>
      <trkpt lat="44.72153" lon="6.92094">
        <ele>2335</ele>
        <time>2021-11-18T08:26:27Z</time>
      </trkpt>
      <trkpt lat="44.72152" lon="6.92098">
        <ele>2336</ele>
        <time>2021-11-18T08:26:29Z</time>
      </trkpt>
      <trkpt lat="44.72152" lon="6.92104">
        <ele>2336</ele>
        <time>2021-11-18T08:26:33Z</time>
      </trkpt>
      <trkpt lat="44.72152" lon="6.92107">
        <ele>2336</ele>
        <time>2021-11-18T08:26:37Z</time>
      </trkpt>
      <trkpt lat="44.72151" lon="6.92109">
        <ele>2336</ele>
        <time>2021-11-18T08:26:40Z</time>
      </trkpt>
      <trkpt lat="44.7215" lon="6.92112">
        <ele>2336</ele>
        <time>2021-11-18T08:26:42Z</time>
      </trkpt>
      <trkpt lat="44.72148" lon="6.92113">
        <ele>2337</ele>
        <time>2021-11-18T08:26:44Z</time>
      </trkpt>
      <trkpt lat="44.72147" lon="6.92114">
        <ele>2338</ele>
        <time>2021-11-18T08:26:46Z</time>
      </trkpt>
      <trkpt lat="44.72145" lon="6.92116">
        <ele>2341</ele>
        <time>2021-11-18T08:26:49Z</time>
      </trkpt>
      <trkpt lat="44.72144" lon="6.9212">
        <ele>2342</ele>
        <time>2021-11-18T08:26:55Z</time>
      </trkpt>
      <trkpt lat="44.72142" lon="6.92121">
        <ele>2342</ele>
        <time>2021-11-18T08:26:57Z</time>
      </trkpt>
      <trkpt lat="44.72142" lon="6.92123">
        <ele>2342</ele>
        <time>2021-11-18T08:27:01Z</time>
      </trkpt>
      <trkpt lat="44.72141" lon="6.92126">
        <ele>2343</ele>
        <time>2021-11-18T08:27:04Z</time>
      </trkpt>
      <trkpt lat="44.72141" lon="6.92128">
        <ele>2343</ele>
        <time>2021-11-18T08:27:07Z</time>
      </trkpt>
      <trkpt lat="44.7214" lon="6.9213">
        <ele>2344</ele>
        <time>2021-11-18T08:27:09Z</time>
      </trkpt>
      <trkpt lat="44.72139" lon="6.92134">
        <ele>2346</ele>
        <time>2021-11-18T08:27:17Z</time>
      </trkpt>
      <trkpt lat="44.72138" lon="6.92136">
        <ele>2346</ele>
        <time>2021-11-18T08:27:20Z</time>
      </trkpt>
      <trkpt lat="44.72138" lon="6.92139">
        <ele>2346</ele>
        <time>2021-11-18T08:27:23Z</time>
      </trkpt>
      <trkpt lat="44.72137" lon="6.92141">
        <ele>2346</ele>
        <time>2021-11-18T08:27:25Z</time>
      </trkpt>
      <trkpt lat="44.72137" lon="6.92144">
        <ele>2346</ele>
        <time>2021-11-18T08:27:27Z</time>
      </trkpt>
      <trkpt lat="44.72136" lon="6.92149">
        <ele>2345</ele>
        <time>2021-11-18T08:27:31Z</time>
      </trkpt>
      <trkpt lat="44.72136" lon="6.92151">
        <ele>2345</ele>
        <time>2021-11-18T08:27:34Z</time>
      </trkpt>
      <trkpt lat="44.72133" lon="6.92163">
        <ele>2346</ele>
        <time>2021-11-18T08:27:48Z</time>
      </trkpt>
      <trkpt lat="44.72132" lon="6.92165">
        <ele>2346</ele>
        <time>2021-11-18T08:27:51Z</time>
      </trkpt>
      <trkpt lat="44.72131" lon="6.92168">
        <ele>2346</ele>
        <time>2021-11-18T08:27:53Z</time>
      </trkpt>
      <trkpt lat="44.72131" lon="6.9217">
        <ele>2347</ele>
        <time>2021-11-18T08:27:56Z</time>
      </trkpt>
      <trkpt lat="44.7213" lon="6.92174">
        <ele>2347</ele>
        <time>2021-11-18T08:27:59Z</time>
      </trkpt>
      <trkpt lat="44.72129" lon="6.92176">
        <ele>2347</ele>
        <time>2021-11-18T08:28:02Z</time>
      </trkpt>
      <trkpt lat="44.72128" lon="6.92178">
        <ele>2346</ele>
        <time>2021-11-18T08:28:05Z</time>
      </trkpt>
      <trkpt lat="44.72127" lon="6.92181">
        <ele>2347</ele>
        <time>2021-11-18T08:28:07Z</time>
      </trkpt>
      <trkpt lat="44.72126" lon="6.92184">
        <ele>2347</ele>
        <time>2021-11-18T08:28:09Z</time>
      </trkpt>
      <trkpt lat="44.72126" lon="6.92185">
        <ele>2348</ele>
        <time>2021-11-18T08:28:13Z</time>
      </trkpt>
      <trkpt lat="44.72125" lon="6.92188">
        <ele>2349</ele>
        <time>2021-11-18T08:28:16Z</time>
      </trkpt>
      <trkpt lat="44.72124" lon="6.92193">
        <ele>2349</ele>
        <time>2021-11-18T08:28:21Z</time>
      </trkpt>
      <trkpt lat="44.72123" lon="6.92195">
        <ele>2350</ele>
        <time>2021-11-18T08:28:24Z</time>
      </trkpt>
      <trkpt lat="44.72121" lon="6.92197">
        <ele>2350</ele>
        <time>2021-11-18T08:28:27Z</time>
      </trkpt>
      <trkpt lat="44.7212" lon="6.92201">
        <ele>2352</ele>
        <time>2021-11-18T08:28:31Z</time>
      </trkpt>
      <trkpt lat="44.72117" lon="6.92208">
        <ele>2353</ele>
        <time>2021-11-18T08:28:40Z</time>
      </trkpt>
      <trkpt lat="44.72115" lon="6.92214">
        <ele>2353</ele>
        <time>2021-11-18T08:28:47Z</time>
      </trkpt>
      <trkpt lat="44.72114" lon="6.92216">
        <ele>2353</ele>
        <time>2021-11-18T08:28:50Z</time>
      </trkpt>
      <trkpt lat="44.72113" lon="6.92219">
        <ele>2353</ele>
        <time>2021-11-18T08:28:52Z</time>
      </trkpt>
      <trkpt lat="44.72112" lon="6.92221">
        <ele>2354</ele>
        <time>2021-11-18T08:28:55Z</time>
      </trkpt>
      <trkpt lat="44.72112" lon="6.92223">
        <ele>2354</ele>
        <time>2021-11-18T08:28:57Z</time>
      </trkpt>
      <trkpt lat="44.72112" lon="6.92226">
        <ele>2354</ele>
        <time>2021-11-18T08:28:59Z</time>
      </trkpt>
      <trkpt lat="44.72111" lon="6.92228">
        <ele>2355</ele>
        <time>2021-11-18T08:29:01Z</time>
      </trkpt>
      <trkpt lat="44.72111" lon="6.9223">
        <ele>2355</ele>
        <time>2021-11-18T08:29:03Z</time>
      </trkpt>
      <trkpt lat="44.72112" lon="6.92232">
        <ele>2355</ele>
        <time>2021-11-18T08:29:05Z</time>
      </trkpt>
      <trkpt lat="44.72111" lon="6.92234">
        <ele>2355</ele>
        <time>2021-11-18T08:29:07Z</time>
      </trkpt>
      <trkpt lat="44.7211" lon="6.92236">
        <ele>2356</ele>
        <time>2021-11-18T08:29:09Z</time>
      </trkpt>
      <trkpt lat="44.7211" lon="6.92238">
        <ele>2356</ele>
        <time>2021-11-18T08:29:11Z</time>
      </trkpt>
      <trkpt lat="44.72109" lon="6.92241">
        <ele>2356</ele>
        <time>2021-11-18T08:29:14Z</time>
      </trkpt>
      <trkpt lat="44.72105" lon="6.92256">
        <ele>2356</ele>
        <time>2021-11-18T08:29:39Z</time>
      </trkpt>
      <trkpt lat="44.72104" lon="6.92266">
        <ele>2357</ele>
        <time>2021-11-18T08:29:49Z</time>
      </trkpt>
      <trkpt lat="44.72104" lon="6.92268">
        <ele>2357</ele>
        <time>2021-11-18T08:29:51Z</time>
      </trkpt>
      <trkpt lat="44.72103" lon="6.92278">
        <ele>2358</ele>
        <time>2021-11-18T08:30:01Z</time>
      </trkpt>
      <trkpt lat="44.72103" lon="6.92284">
        <ele>2358</ele>
        <time>2021-11-18T08:30:06Z</time>
      </trkpt>
      <trkpt lat="44.72104" lon="6.92286">
        <ele>2358</ele>
        <time>2021-11-18T08:30:09Z</time>
      </trkpt>
      <trkpt lat="44.72104" lon="6.92288">
        <ele>2359</ele>
        <time>2021-11-18T08:30:12Z</time>
      </trkpt>
      <trkpt lat="44.72105" lon="6.92295">
        <ele>2360</ele>
        <time>2021-11-18T08:30:18Z</time>
      </trkpt>
      <trkpt lat="44.72108" lon="6.92304">
        <ele>2361</ele>
        <time>2021-11-18T08:30:28Z</time>
      </trkpt>
      <trkpt lat="44.72109" lon="6.92306">
        <ele>2361</ele>
        <time>2021-11-18T08:30:31Z</time>
      </trkpt>
      <trkpt lat="44.7211" lon="6.92317">
        <ele>2362</ele>
        <time>2021-11-18T08:30:39Z</time>
      </trkpt>
      <trkpt lat="44.7211" lon="6.9232">
        <ele>2362</ele>
        <time>2021-11-18T08:30:41Z</time>
      </trkpt>
      <trkpt lat="44.72111" lon="6.92322">
        <ele>2362</ele>
        <time>2021-11-18T08:30:43Z</time>
      </trkpt>
      <trkpt lat="44.72111" lon="6.92325">
        <ele>2363</ele>
        <time>2021-11-18T08:30:47Z</time>
      </trkpt>
      <trkpt lat="44.7211" lon="6.92326">
        <ele>2364</ele>
        <time>2021-11-18T08:30:49Z</time>
      </trkpt>
      <trkpt lat="44.72108" lon="6.92327">
        <ele>2365</ele>
        <time>2021-11-18T08:30:51Z</time>
      </trkpt>
      <trkpt lat="44.72107" lon="6.92329">
        <ele>2365</ele>
        <time>2021-11-18T08:30:54Z</time>
      </trkpt>
      <trkpt lat="44.72106" lon="6.92331">
        <ele>2366</ele>
        <time>2021-11-18T08:30:57Z</time>
      </trkpt>
      <trkpt lat="44.72103" lon="6.9234">
        <ele>2367</ele>
        <time>2021-11-18T08:31:05Z</time>
      </trkpt>
      <trkpt lat="44.72101" lon="6.9235">
        <ele>2368</ele>
        <time>2021-11-18T08:31:14Z</time>
      </trkpt>
      <trkpt lat="44.721" lon="6.92361">
        <ele>2370</ele>
        <time>2021-11-18T08:31:24Z</time>
      </trkpt>
      <trkpt lat="44.721" lon="6.92364">
        <ele>2370</ele>
        <time>2021-11-18T08:31:27Z</time>
      </trkpt>
      <trkpt lat="44.72099" lon="6.92366">
        <ele>2371</ele>
        <time>2021-11-18T08:31:30Z</time>
      </trkpt>
      <trkpt lat="44.72099" lon="6.92368">
        <ele>2371</ele>
        <time>2021-11-18T08:31:33Z</time>
      </trkpt>
      <trkpt lat="44.72097" lon="6.92368">
        <ele>2372</ele>
        <time>2021-11-18T08:31:37Z</time>
      </trkpt>
      <trkpt lat="44.72096" lon="6.92374">
        <ele>2373</ele>
        <time>2021-11-18T08:31:43Z</time>
      </trkpt>
      <trkpt lat="44.72096" lon="6.92379">
        <ele>2374</ele>
        <time>2021-11-18T08:31:48Z</time>
      </trkpt>
      <trkpt lat="44.72096" lon="6.92384">
        <ele>2375</ele>
        <time>2021-11-18T08:31:52Z</time>
      </trkpt>
      <trkpt lat="44.72095" lon="6.92392">
        <ele>2378</ele>
        <time>2021-11-18T08:31:59Z</time>
      </trkpt>
      <trkpt lat="44.72095" lon="6.92394">
        <ele>2378</ele>
        <time>2021-11-18T08:32:01Z</time>
      </trkpt>
      <trkpt lat="44.72093" lon="6.92396">
        <ele>2378</ele>
        <time>2021-11-18T08:32:04Z</time>
      </trkpt>
      <trkpt lat="44.72093" lon="6.92398">
        <ele>2378</ele>
        <time>2021-11-18T08:32:07Z</time>
      </trkpt>
      <trkpt lat="44.72092" lon="6.924">
        <ele>2378</ele>
        <time>2021-11-18T08:32:10Z</time>
      </trkpt>
      <trkpt lat="44.72092" lon="6.92402">
        <ele>2378</ele>
        <time>2021-11-18T08:32:13Z</time>
      </trkpt>
      <trkpt lat="44.72091" lon="6.92404">
        <ele>2378</ele>
        <time>2021-11-18T08:32:15Z</time>
      </trkpt>
      <trkpt lat="44.72091" lon="6.92407">
        <ele>2378</ele>
        <time>2021-11-18T08:32:17Z</time>
      </trkpt>
      <trkpt lat="44.7209" lon="6.92408">
        <ele>2378</ele>
        <time>2021-11-18T08:32:21Z</time>
      </trkpt>
      <trkpt lat="44.72088" lon="6.92412">
        <ele>2379</ele>
        <time>2021-11-18T08:32:25Z</time>
      </trkpt>
      <trkpt lat="44.72086" lon="6.92417">
        <ele>2381</ele>
        <time>2021-11-18T08:32:29Z</time>
      </trkpt>
      <trkpt lat="44.72086" lon="6.9242">
        <ele>2381</ele>
        <time>2021-11-18T08:32:31Z</time>
      </trkpt>
      <trkpt lat="44.72087" lon="6.92422">
        <ele>2381</ele>
        <time>2021-11-18T08:32:33Z</time>
      </trkpt>
      <trkpt lat="44.72086" lon="6.9243">
        <ele>2381</ele>
        <time>2021-11-18T08:32:39Z</time>
      </trkpt>
      <trkpt lat="44.72085" lon="6.92432">
        <ele>2382</ele>
        <time>2021-11-18T08:32:41Z</time>
      </trkpt>
      <trkpt lat="44.72083" lon="6.92434">
        <ele>2382</ele>
        <time>2021-11-18T08:32:43Z</time>
      </trkpt>
      <trkpt lat="44.72081" lon="6.92446">
        <ele>2384</ele>
        <time>2021-11-18T08:32:54Z</time>
      </trkpt>
      <trkpt lat="44.7208" lon="6.92457">
        <ele>2384</ele>
        <time>2021-11-18T08:33:04Z</time>
      </trkpt>
      <trkpt lat="44.7208" lon="6.92459">
        <ele>2384</ele>
        <time>2021-11-18T08:33:06Z</time>
      </trkpt>
      <trkpt lat="44.72078" lon="6.92464">
        <ele>2384</ele>
        <time>2021-11-18T08:33:11Z</time>
      </trkpt>
      <trkpt lat="44.72078" lon="6.92468">
        <ele>2384</ele>
        <time>2021-11-18T08:33:14Z</time>
      </trkpt>
      <trkpt lat="44.72077" lon="6.92479">
        <ele>2386</ele>
        <time>2021-11-18T08:33:22Z</time>
      </trkpt>
      <trkpt lat="44.72076" lon="6.92484">
        <ele>2386</ele>
        <time>2021-11-18T08:33:26Z</time>
      </trkpt>
      <trkpt lat="44.72075" lon="6.92486">
        <ele>2387</ele>
        <time>2021-11-18T08:33:28Z</time>
      </trkpt>
      <trkpt lat="44.72074" lon="6.92488">
        <ele>2387</ele>
        <time>2021-11-18T08:33:31Z</time>
      </trkpt>
      <trkpt lat="44.72073" lon="6.92496">
        <ele>2388</ele>
        <time>2021-11-18T08:33:37Z</time>
      </trkpt>
      <trkpt lat="44.72072" lon="6.92502">
        <ele>2389</ele>
        <time>2021-11-18T08:33:41Z</time>
      </trkpt>
      <trkpt lat="44.72072" lon="6.92504">
        <ele>2389</ele>
        <time>2021-11-18T08:33:43Z</time>
      </trkpt>
      <trkpt lat="44.72071" lon="6.92509">
        <ele>2390</ele>
        <time>2021-11-18T08:33:48Z</time>
      </trkpt>
      <trkpt lat="44.72071" lon="6.92512">
        <ele>2390</ele>
        <time>2021-11-18T08:33:50Z</time>
      </trkpt>
      <trkpt lat="44.7207" lon="6.92514">
        <ele>2389</ele>
        <time>2021-11-18T08:33:52Z</time>
      </trkpt>
      <trkpt lat="44.7207" lon="6.92516">
        <ele>2389</ele>
        <time>2021-11-18T08:33:54Z</time>
      </trkpt>
      <trkpt lat="44.7207" lon="6.92519">
        <ele>2389</ele>
        <time>2021-11-18T08:33:56Z</time>
      </trkpt>
      <trkpt lat="44.72068" lon="6.92525">
        <ele>2389</ele>
        <time>2021-11-18T08:34:01Z</time>
      </trkpt>
      <trkpt lat="44.72068" lon="6.92527">
        <ele>2390</ele>
        <time>2021-11-18T08:34:04Z</time>
      </trkpt>
      <trkpt lat="44.72067" lon="6.9253">
        <ele>2390</ele>
        <time>2021-11-18T08:34:06Z</time>
      </trkpt>
      <trkpt lat="44.72066" lon="6.92534">
        <ele>2390</ele>
        <time>2021-11-18T08:34:11Z</time>
      </trkpt>
      <trkpt lat="44.72065" lon="6.92538">
        <ele>2391</ele>
        <time>2021-11-18T08:34:15Z</time>
      </trkpt>
      <trkpt lat="44.72065" lon="6.92541">
        <ele>2391</ele>
        <time>2021-11-18T08:34:18Z</time>
      </trkpt>
      <trkpt lat="44.72062" lon="6.92548">
        <ele>2392</ele>
        <time>2021-11-18T08:34:25Z</time>
      </trkpt>
      <trkpt lat="44.72061" lon="6.92551">
        <ele>2392</ele>
        <time>2021-11-18T08:34:28Z</time>
      </trkpt>
      <trkpt lat="44.7206" lon="6.92553">
        <ele>2392</ele>
        <time>2021-11-18T08:34:30Z</time>
      </trkpt>
      <trkpt lat="44.7206" lon="6.92554">
        <ele>2392</ele>
        <time>2021-11-18T08:34:32Z</time>
      </trkpt>
      <trkpt lat="44.72059" lon="6.92557">
        <ele>2392</ele>
        <time>2021-11-18T08:34:35Z</time>
      </trkpt>
      <trkpt lat="44.72058" lon="6.92559">
        <ele>2392</ele>
        <time>2021-11-18T08:34:37Z</time>
      </trkpt>
      <trkpt lat="44.72057" lon="6.92561">
        <ele>2393</ele>
        <time>2021-11-18T08:34:39Z</time>
      </trkpt>
      <trkpt lat="44.72057" lon="6.92563">
        <ele>2393</ele>
        <time>2021-11-18T08:34:41Z</time>
      </trkpt>
      <trkpt lat="44.72057" lon="6.92565">
        <ele>2393</ele>
        <time>2021-11-18T08:34:43Z</time>
      </trkpt>
      <trkpt lat="44.72056" lon="6.92567">
        <ele>2393</ele>
        <time>2021-11-18T08:34:46Z</time>
      </trkpt>
      <trkpt lat="44.72055" lon="6.92573">
        <ele>2394</ele>
        <time>2021-11-18T08:34:50Z</time>
      </trkpt>
      <trkpt lat="44.72055" lon="6.92575">
        <ele>2394</ele>
        <time>2021-11-18T08:34:52Z</time>
      </trkpt>
      <trkpt lat="44.72054" lon="6.9258">
        <ele>2394</ele>
        <time>2021-11-18T08:34:56Z</time>
      </trkpt>
      <trkpt lat="44.72054" lon="6.9259">
        <ele>2394</ele>
        <time>2021-11-18T08:35:04Z</time>
      </trkpt>
      <trkpt lat="44.72053" lon="6.92596">
        <ele>2395</ele>
        <time>2021-11-18T08:35:08Z</time>
      </trkpt>
      <trkpt lat="44.72052" lon="6.92609">
        <ele>2396</ele>
        <time>2021-11-18T08:35:19Z</time>
      </trkpt>
      <trkpt lat="44.72051" lon="6.92612">
        <ele>2396</ele>
        <time>2021-11-18T08:35:21Z</time>
      </trkpt>
      <trkpt lat="44.7205" lon="6.92621">
        <ele>2397</ele>
        <time>2021-11-18T08:35:27Z</time>
      </trkpt>
      <trkpt lat="44.72048" lon="6.92633">
        <ele>2398</ele>
        <time>2021-11-18T08:35:37Z</time>
      </trkpt>
      <trkpt lat="44.72048" lon="6.92636">
        <ele>2399</ele>
        <time>2021-11-18T08:35:40Z</time>
      </trkpt>
      <trkpt lat="44.72045" lon="6.92637">
        <ele>2400</ele>
        <time>2021-11-18T08:35:48Z</time>
      </trkpt>
      <trkpt lat="44.72044" lon="6.92638">
        <ele>2401</ele>
        <time>2021-11-18T08:35:56Z</time>
      </trkpt>
      <trkpt lat="44.72043" lon="6.92642">
        <ele>2402</ele>
        <time>2021-11-18T08:35:59Z</time>
      </trkpt>
      <trkpt lat="44.72041" lon="6.92644">
        <ele>2402</ele>
        <time>2021-11-18T08:36:03Z</time>
      </trkpt>
      <trkpt lat="44.72044" lon="6.92646">
        <ele>2402</ele>
        <time>2021-11-18T08:36:09Z</time>
      </trkpt>
      <trkpt lat="44.72045" lon="6.92647">
        <ele>2400</ele>
        <time>2021-11-18T08:36:21Z</time>
      </trkpt>
      <trkpt lat="44.72046" lon="6.92645">
        <ele>2399</ele>
        <time>2021-11-18T08:36:55Z</time>
      </trkpt>
      <trkpt lat="44.72047" lon="6.92641">
        <ele>2399</ele>
        <time>2021-11-18T08:37:08Z</time>
      </trkpt>
      <trkpt lat="44.72045" lon="6.92643">
        <ele>2398</ele>
        <time>2021-11-18T08:38:05Z</time>
      </trkpt>
      <trkpt lat="44.72044" lon="6.92647">
        <ele>2398</ele>
        <time>2021-11-18T08:39:56Z</time>
      </trkpt>
      <trkpt lat="44.72045" lon="6.92652">
        <ele>2398</ele>
        <time>2021-11-18T08:40:01Z</time>
      </trkpt>
      <trkpt lat="44.72045" lon="6.92655">
        <ele>2398</ele>
        <time>2021-11-18T08:40:03Z</time>
      </trkpt>
      <trkpt lat="44.72044" lon="6.92665">
        <ele>2400</ele>
        <time>2021-11-18T08:40:11Z</time>
      </trkpt>
      <trkpt lat="44.72044" lon="6.92674">
        <ele>2402</ele>
        <time>2021-11-18T08:40:19Z</time>
      </trkpt>
      <trkpt lat="44.72043" lon="6.92676">
        <ele>2402</ele>
        <time>2021-11-18T08:40:21Z</time>
      </trkpt>
      <trkpt lat="44.72042" lon="6.92679">
        <ele>2403</ele>
        <time>2021-11-18T08:40:24Z</time>
      </trkpt>
      <trkpt lat="44.7204" lon="6.92693">
        <ele>2405</ele>
        <time>2021-11-18T08:40:38Z</time>
      </trkpt>
      <trkpt lat="44.72038" lon="6.92701">
        <ele>2407</ele>
        <time>2021-11-18T08:40:45Z</time>
      </trkpt>
      <trkpt lat="44.72037" lon="6.92704">
        <ele>2408</ele>
        <time>2021-11-18T08:40:48Z</time>
      </trkpt>
      <trkpt lat="44.72036" lon="6.9272">
        <ele>2410</ele>
        <time>2021-11-18T08:41:00Z</time>
      </trkpt>
      <trkpt lat="44.72036" lon="6.92722">
        <ele>2410</ele>
        <time>2021-11-18T08:41:04Z</time>
      </trkpt>
      <trkpt lat="44.72036" lon="6.92724">
        <ele>2410</ele>
        <time>2021-11-18T08:41:06Z</time>
      </trkpt>
      <trkpt lat="44.72037" lon="6.92733">
        <ele>2410</ele>
        <time>2021-11-18T08:41:14Z</time>
      </trkpt>
      <trkpt lat="44.72037" lon="6.92736">
        <ele>2410</ele>
        <time>2021-11-18T08:41:16Z</time>
      </trkpt>
      <trkpt lat="44.72037" lon="6.92744">
        <ele>2411</ele>
        <time>2021-11-18T08:41:24Z</time>
      </trkpt>
      <trkpt lat="44.72038" lon="6.92749">
        <ele>2411</ele>
        <time>2021-11-18T08:41:30Z</time>
      </trkpt>
      <trkpt lat="44.72038" lon="6.92752">
        <ele>2412</ele>
        <time>2021-11-18T08:41:33Z</time>
      </trkpt>
      <trkpt lat="44.72038" lon="6.92754">
        <ele>2412</ele>
        <time>2021-11-18T08:41:36Z</time>
      </trkpt>
      <trkpt lat="44.72038" lon="6.92757">
        <ele>2412</ele>
        <time>2021-11-18T08:41:40Z</time>
      </trkpt>
      <trkpt lat="44.72039" lon="6.92762">
        <ele>2413</ele>
        <time>2021-11-18T08:41:47Z</time>
      </trkpt>
      <trkpt lat="44.72039" lon="6.92765">
        <ele>2413</ele>
        <time>2021-11-18T08:41:50Z</time>
      </trkpt>
      <trkpt lat="44.72039" lon="6.92767">
        <ele>2413</ele>
        <time>2021-11-18T08:41:52Z</time>
      </trkpt>
      <trkpt lat="44.72039" lon="6.92777">
        <ele>2414</ele>
        <time>2021-11-18T08:41:59Z</time>
      </trkpt>
      <trkpt lat="44.72038" lon="6.9278">
        <ele>2414</ele>
        <time>2021-11-18T08:42:02Z</time>
      </trkpt>
      <trkpt lat="44.72037" lon="6.92796">
        <ele>2418</ele>
        <time>2021-11-18T08:42:15Z</time>
      </trkpt>
      <trkpt lat="44.72038" lon="6.928">
        <ele>2418</ele>
        <time>2021-11-18T08:42:19Z</time>
      </trkpt>
      <trkpt lat="44.72038" lon="6.92803">
        <ele>2420</ele>
        <time>2021-11-18T08:42:21Z</time>
      </trkpt>
      <trkpt lat="44.72037" lon="6.92805">
        <ele>2420</ele>
        <time>2021-11-18T08:42:24Z</time>
      </trkpt>
      <trkpt lat="44.72037" lon="6.92811">
        <ele>2422</ele>
        <time>2021-11-18T08:42:29Z</time>
      </trkpt>
      <trkpt lat="44.72038" lon="6.92817">
        <ele>2423</ele>
        <time>2021-11-18T08:42:34Z</time>
      </trkpt>
      <trkpt lat="44.72038" lon="6.92819">
        <ele>2424</ele>
        <time>2021-11-18T08:42:38Z</time>
      </trkpt>
      <trkpt lat="44.72037" lon="6.92824">
        <ele>2426</ele>
        <time>2021-11-18T08:42:46Z</time>
      </trkpt>
      <trkpt lat="44.72038" lon="6.92826">
        <ele>2426</ele>
        <time>2021-11-18T08:42:53Z</time>
      </trkpt>
      <trkpt lat="44.72038" lon="6.92829">
        <ele>2426</ele>
        <time>2021-11-18T08:42:56Z</time>
      </trkpt>
      <trkpt lat="44.72039" lon="6.92832">
        <ele>2426</ele>
        <time>2021-11-18T08:43:08Z</time>
      </trkpt>
      <trkpt lat="44.72042" lon="6.92838">
        <ele>2426</ele>
        <time>2021-11-18T08:43:13Z</time>
      </trkpt>
      <trkpt lat="44.72045" lon="6.92847">
        <ele>2427</ele>
        <time>2021-11-18T08:43:20Z</time>
      </trkpt>
      <trkpt lat="44.72046" lon="6.92854">
        <ele>2427</ele>
        <time>2021-11-18T08:43:24Z</time>
      </trkpt>
      <trkpt lat="44.72048" lon="6.9286">
        <ele>2427</ele>
        <time>2021-11-18T08:43:29Z</time>
      </trkpt>
      <trkpt lat="44.7205" lon="6.92868">
        <ele>2429</ele>
        <time>2021-11-18T08:43:38Z</time>
      </trkpt>
      <trkpt lat="44.72052" lon="6.92873">
        <ele>2429</ele>
        <time>2021-11-18T08:43:45Z</time>
      </trkpt>
      <trkpt lat="44.72053" lon="6.92875">
        <ele>2430</ele>
        <time>2021-11-18T08:43:47Z</time>
      </trkpt>
      <trkpt lat="44.72054" lon="6.92878">
        <ele>2429</ele>
        <time>2021-11-18T08:43:50Z</time>
      </trkpt>
      <trkpt lat="44.72054" lon="6.9288">
        <ele>2430</ele>
        <time>2021-11-18T08:43:54Z</time>
      </trkpt>
      <trkpt lat="44.72055" lon="6.92882">
        <ele>2430</ele>
        <time>2021-11-18T08:43:56Z</time>
      </trkpt>
      <trkpt lat="44.72055" lon="6.92892">
        <ele>2431</ele>
        <time>2021-11-18T08:44:04Z</time>
      </trkpt>
      <trkpt lat="44.72056" lon="6.92894">
        <ele>2431</ele>
        <time>2021-11-18T08:44:07Z</time>
      </trkpt>
      <trkpt lat="44.72057" lon="6.92897">
        <ele>2432</ele>
        <time>2021-11-18T08:44:10Z</time>
      </trkpt>
      <trkpt lat="44.72057" lon="6.92903">
        <ele>2432</ele>
        <time>2021-11-18T08:44:15Z</time>
      </trkpt>
      <trkpt lat="44.72058" lon="6.92905">
        <ele>2433</ele>
        <time>2021-11-18T08:44:20Z</time>
      </trkpt>
      <trkpt lat="44.72059" lon="6.92915">
        <ele>2434</ele>
        <time>2021-11-18T08:44:28Z</time>
      </trkpt>
      <trkpt lat="44.72061" lon="6.92921">
        <ele>2433</ele>
        <time>2021-11-18T08:44:35Z</time>
      </trkpt>
      <trkpt lat="44.72062" lon="6.92924">
        <ele>2433</ele>
        <time>2021-11-18T08:44:38Z</time>
      </trkpt>
      <trkpt lat="44.72065" lon="6.92929">
        <ele>2432</ele>
        <time>2021-11-18T08:44:45Z</time>
      </trkpt>
      <trkpt lat="44.72066" lon="6.92935">
        <ele>2431</ele>
        <time>2021-11-18T08:44:51Z</time>
      </trkpt>
      <trkpt lat="44.72068" lon="6.9294">
        <ele>2430</ele>
        <time>2021-11-18T08:44:57Z</time>
      </trkpt>
      <trkpt lat="44.72068" lon="6.92947">
        <ele>2429</ele>
        <time>2021-11-18T08:45:01Z</time>
      </trkpt>
      <trkpt lat="44.72068" lon="6.92952">
        <ele>2430</ele>
        <time>2021-11-18T08:45:06Z</time>
      </trkpt>
      <trkpt lat="44.72067" lon="6.92966">
        <ele>2433</ele>
        <time>2021-11-18T08:45:20Z</time>
      </trkpt>
      <trkpt lat="44.72067" lon="6.92972">
        <ele>2434</ele>
        <time>2021-11-18T08:45:26Z</time>
      </trkpt>
      <trkpt lat="44.72067" lon="6.92978">
        <ele>2436</ele>
        <time>2021-11-18T08:45:30Z</time>
      </trkpt>
      <trkpt lat="44.72067" lon="6.9298">
        <ele>2436</ele>
        <time>2021-11-18T08:45:33Z</time>
      </trkpt>
      <trkpt lat="44.72067" lon="6.92983">
        <ele>2437</ele>
        <time>2021-11-18T08:45:36Z</time>
      </trkpt>
      <trkpt lat="44.72068" lon="6.92991">
        <ele>2439</ele>
        <time>2021-11-18T08:45:45Z</time>
      </trkpt>
      <trkpt lat="44.72069" lon="6.92993">
        <ele>2440</ele>
        <time>2021-11-18T08:45:48Z</time>
      </trkpt>
      <trkpt lat="44.7207" lon="6.92996">
        <ele>2441</ele>
        <time>2021-11-18T08:45:51Z</time>
      </trkpt>
      <trkpt lat="44.7207" lon="6.92999">
        <ele>2441</ele>
        <time>2021-11-18T08:45:53Z</time>
      </trkpt>
      <trkpt lat="44.7207" lon="6.93002">
        <ele>2442</ele>
        <time>2021-11-18T08:45:55Z</time>
      </trkpt>
      <trkpt lat="44.72072" lon="6.93016">
        <ele>2445</ele>
        <time>2021-11-18T08:46:07Z</time>
      </trkpt>
      <trkpt lat="44.72073" lon="6.93023">
        <ele>2446</ele>
        <time>2021-11-18T08:46:15Z</time>
      </trkpt>
      <trkpt lat="44.72075" lon="6.93028">
        <ele>2447</ele>
        <time>2021-11-18T08:46:22Z</time>
      </trkpt>
      <trkpt lat="44.72076" lon="6.93033">
        <ele>2448</ele>
        <time>2021-11-18T08:46:27Z</time>
      </trkpt>
      <trkpt lat="44.72076" lon="6.93036">
        <ele>2449</ele>
        <time>2021-11-18T08:46:31Z</time>
      </trkpt>
      <trkpt lat="44.72076" lon="6.93039">
        <ele>2449</ele>
        <time>2021-11-18T08:46:34Z</time>
      </trkpt>
      <trkpt lat="44.72076" lon="6.93057">
        <ele>2450</ele>
        <time>2021-11-18T08:46:50Z</time>
      </trkpt>
      <trkpt lat="44.72076" lon="6.9306">
        <ele>2450</ele>
        <time>2021-11-18T08:46:53Z</time>
      </trkpt>
      <trkpt lat="44.72077" lon="6.93064">
        <ele>2450</ele>
        <time>2021-11-18T08:47:00Z</time>
      </trkpt>
      <trkpt lat="44.72075" lon="6.93075">
        <ele>2451</ele>
        <time>2021-11-18T08:47:10Z</time>
      </trkpt>
      <trkpt lat="44.72075" lon="6.93077">
        <ele>2452</ele>
        <time>2021-11-18T08:47:13Z</time>
      </trkpt>
      <trkpt lat="44.72075" lon="6.93083">
        <ele>2452</ele>
        <time>2021-11-18T08:47:18Z</time>
      </trkpt>
      <trkpt lat="44.72073" lon="6.93096">
        <ele>2454</ele>
        <time>2021-11-18T08:47:31Z</time>
      </trkpt>
      <trkpt lat="44.72074" lon="6.93098">
        <ele>2454</ele>
        <time>2021-11-18T08:47:34Z</time>
      </trkpt>
      <trkpt lat="44.72073" lon="6.93103">
        <ele>2455</ele>
        <time>2021-11-18T08:47:38Z</time>
      </trkpt>
      <trkpt lat="44.72073" lon="6.93105">
        <ele>2455</ele>
        <time>2021-11-18T08:47:40Z</time>
      </trkpt>
      <trkpt lat="44.72073" lon="6.93111">
        <ele>2457</ele>
        <time>2021-11-18T08:47:49Z</time>
      </trkpt>
      <trkpt lat="44.72073" lon="6.93114">
        <ele>2457</ele>
        <time>2021-11-18T08:47:51Z</time>
      </trkpt>
      <trkpt lat="44.72073" lon="6.93117">
        <ele>2458</ele>
        <time>2021-11-18T08:47:53Z</time>
      </trkpt>
      <trkpt lat="44.72071" lon="6.93121">
        <ele>2458</ele>
        <time>2021-11-18T08:47:55Z</time>
      </trkpt>
      <trkpt lat="44.72071" lon="6.93132">
        <ele>2460</ele>
        <time>2021-11-18T08:48:05Z</time>
      </trkpt>
      <trkpt lat="44.72071" lon="6.93134">
        <ele>2460</ele>
        <time>2021-11-18T08:48:07Z</time>
      </trkpt>
      <trkpt lat="44.72071" lon="6.93138">
        <ele>2461</ele>
        <time>2021-11-18T08:48:10Z</time>
      </trkpt>
      <trkpt lat="44.72071" lon="6.93143">
        <ele>2462</ele>
        <time>2021-11-18T08:48:15Z</time>
      </trkpt>
      <trkpt lat="44.72071" lon="6.93146">
        <ele>2463</ele>
        <time>2021-11-18T08:48:17Z</time>
      </trkpt>
      <trkpt lat="44.72071" lon="6.93148">
        <ele>2463</ele>
        <time>2021-11-18T08:48:20Z</time>
      </trkpt>
      <trkpt lat="44.72071" lon="6.93159">
        <ele>2464</ele>
        <time>2021-11-18T08:48:29Z</time>
      </trkpt>
      <trkpt lat="44.72071" lon="6.93167">
        <ele>2464</ele>
        <time>2021-11-18T08:48:36Z</time>
      </trkpt>
      <trkpt lat="44.72072" lon="6.93172">
        <ele>2465</ele>
        <time>2021-11-18T08:48:41Z</time>
      </trkpt>
      <trkpt lat="44.72073" lon="6.93175">
        <ele>2465</ele>
        <time>2021-11-18T08:48:44Z</time>
      </trkpt>
      <trkpt lat="44.72072" lon="6.93178">
        <ele>2466</ele>
        <time>2021-11-18T08:48:47Z</time>
      </trkpt>
      <trkpt lat="44.72071" lon="6.93189">
        <ele>2469</ele>
        <time>2021-11-18T08:48:56Z</time>
      </trkpt>
      <trkpt lat="44.72071" lon="6.93197">
        <ele>2470</ele>
        <time>2021-11-18T08:49:02Z</time>
      </trkpt>
      <trkpt lat="44.72071" lon="6.932">
        <ele>2471</ele>
        <time>2021-11-18T08:49:04Z</time>
      </trkpt>
      <trkpt lat="44.72072" lon="6.93203">
        <ele>2471</ele>
        <time>2021-11-18T08:49:07Z</time>
      </trkpt>
      <trkpt lat="44.72072" lon="6.93208">
        <ele>2471</ele>
        <time>2021-11-18T08:49:11Z</time>
      </trkpt>
      <trkpt lat="44.72072" lon="6.93211">
        <ele>2472</ele>
        <time>2021-11-18T08:49:14Z</time>
      </trkpt>
      <trkpt lat="44.72072" lon="6.93214">
        <ele>2472</ele>
        <time>2021-11-18T08:49:17Z</time>
      </trkpt>
      <trkpt lat="44.72074" lon="6.93221">
        <ele>2472</ele>
        <time>2021-11-18T08:49:24Z</time>
      </trkpt>
      <trkpt lat="44.72075" lon="6.93226">
        <ele>2473</ele>
        <time>2021-11-18T08:49:31Z</time>
      </trkpt>
      <trkpt lat="44.72077" lon="6.93238">
        <ele>2473</ele>
        <time>2021-11-18T08:49:43Z</time>
      </trkpt>
      <trkpt lat="44.72078" lon="6.9324">
        <ele>2473</ele>
        <time>2021-11-18T08:49:46Z</time>
      </trkpt>
      <trkpt lat="44.72078" lon="6.93242">
        <ele>2473</ele>
        <time>2021-11-18T08:49:49Z</time>
      </trkpt>
      <trkpt lat="44.72079" lon="6.93245">
        <ele>2474</ele>
        <time>2021-11-18T08:49:52Z</time>
      </trkpt>
      <trkpt lat="44.72079" lon="6.93248">
        <ele>2474</ele>
        <time>2021-11-18T08:49:55Z</time>
      </trkpt>
      <trkpt lat="44.72079" lon="6.93251">
        <ele>2474</ele>
        <time>2021-11-18T08:49:59Z</time>
      </trkpt>
      <trkpt lat="44.7208" lon="6.93254">
        <ele>2475</ele>
        <time>2021-11-18T08:50:02Z</time>
      </trkpt>
      <trkpt lat="44.72079" lon="6.93256">
        <ele>2475</ele>
        <time>2021-11-18T08:50:04Z</time>
      </trkpt>
      <trkpt lat="44.7208" lon="6.93259">
        <ele>2475</ele>
        <time>2021-11-18T08:50:07Z</time>
      </trkpt>
      <trkpt lat="44.72078" lon="6.93268">
        <ele>2475</ele>
        <time>2021-11-18T08:50:18Z</time>
      </trkpt>
      <trkpt lat="44.72078" lon="6.9327">
        <ele>2476</ele>
        <time>2021-11-18T08:50:21Z</time>
      </trkpt>
      <trkpt lat="44.72079" lon="6.93272">
        <ele>2476</ele>
        <time>2021-11-18T08:50:23Z</time>
      </trkpt>
      <trkpt lat="44.72079" lon="6.93274">
        <ele>2477</ele>
        <time>2021-11-18T08:50:25Z</time>
      </trkpt>
      <trkpt lat="44.72079" lon="6.93277">
        <ele>2477</ele>
        <time>2021-11-18T08:50:28Z</time>
      </trkpt>
      <trkpt lat="44.72079" lon="6.9328">
        <ele>2478</ele>
        <time>2021-11-18T08:50:30Z</time>
      </trkpt>
      <trkpt lat="44.7208" lon="6.93283">
        <ele>2478</ele>
        <time>2021-11-18T08:50:32Z</time>
      </trkpt>
      <trkpt lat="44.7208" lon="6.93285">
        <ele>2478</ele>
        <time>2021-11-18T08:50:34Z</time>
      </trkpt>
      <trkpt lat="44.7208" lon="6.93288">
        <ele>2479</ele>
        <time>2021-11-18T08:50:37Z</time>
      </trkpt>
      <trkpt lat="44.72081" lon="6.9329">
        <ele>2479</ele>
        <time>2021-11-18T08:50:39Z</time>
      </trkpt>
      <trkpt lat="44.72081" lon="6.93293">
        <ele>2480</ele>
        <time>2021-11-18T08:50:41Z</time>
      </trkpt>
      <trkpt lat="44.72079" lon="6.93293">
        <ele>2482</ele>
        <time>2021-11-18T08:50:47Z</time>
      </trkpt>
      <trkpt lat="44.72078" lon="6.93295">
        <ele>2482</ele>
        <time>2021-11-18T08:50:52Z</time>
      </trkpt>
      <trkpt lat="44.72077" lon="6.93298">
        <ele>2483</ele>
        <time>2021-11-18T08:50:54Z</time>
      </trkpt>
      <trkpt lat="44.72077" lon="6.93302">
        <ele>2483</ele>
        <time>2021-11-18T08:50:56Z</time>
      </trkpt>
      <trkpt lat="44.7208" lon="6.9331">
        <ele>2484</ele>
        <time>2021-11-18T08:51:04Z</time>
      </trkpt>
      <trkpt lat="44.72081" lon="6.93312">
        <ele>2483</ele>
        <time>2021-11-18T08:51:06Z</time>
      </trkpt>
      <trkpt lat="44.72084" lon="6.93316">
        <ele>2484</ele>
        <time>2021-11-18T08:51:13Z</time>
      </trkpt>
      <trkpt lat="44.72085" lon="6.9332">
        <ele>2484</ele>
        <time>2021-11-18T08:51:18Z</time>
      </trkpt>
      <trkpt lat="44.72086" lon="6.93323">
        <ele>2484</ele>
        <time>2021-11-18T08:51:20Z</time>
      </trkpt>
      <trkpt lat="44.72088" lon="6.93325">
        <ele>2484</ele>
        <time>2021-11-18T08:51:22Z</time>
      </trkpt>
      <trkpt lat="44.72088" lon="6.93327">
        <ele>2485</ele>
        <time>2021-11-18T08:51:25Z</time>
      </trkpt>
      <trkpt lat="44.72087" lon="6.9333">
        <ele>2486</ele>
        <time>2021-11-18T08:51:28Z</time>
      </trkpt>
      <trkpt lat="44.72088" lon="6.93333">
        <ele>2487</ele>
        <time>2021-11-18T08:51:30Z</time>
      </trkpt>
      <trkpt lat="44.72089" lon="6.93342">
        <ele>2488</ele>
        <time>2021-11-18T08:51:39Z</time>
      </trkpt>
      <trkpt lat="44.72091" lon="6.93356">
        <ele>2489</ele>
        <time>2021-11-18T08:51:53Z</time>
      </trkpt>
      <trkpt lat="44.72091" lon="6.93361">
        <ele>2490</ele>
        <time>2021-11-18T08:51:58Z</time>
      </trkpt>
      <trkpt lat="44.7209" lon="6.93366">
        <ele>2491</ele>
        <time>2021-11-18T08:52:02Z</time>
      </trkpt>
      <trkpt lat="44.7209" lon="6.93368">
        <ele>2491</ele>
        <time>2021-11-18T08:52:06Z</time>
      </trkpt>
      <trkpt lat="44.7209" lon="6.9337">
        <ele>2491</ele>
        <time>2021-11-18T08:52:08Z</time>
      </trkpt>
      <trkpt lat="44.7209" lon="6.93373">
        <ele>2491</ele>
        <time>2021-11-18T08:52:10Z</time>
      </trkpt>
      <trkpt lat="44.72088" lon="6.93378">
        <ele>2492</ele>
        <time>2021-11-18T08:52:16Z</time>
      </trkpt>
      <trkpt lat="44.72088" lon="6.93381">
        <ele>2493</ele>
        <time>2021-11-18T08:52:19Z</time>
      </trkpt>
      <trkpt lat="44.72088" lon="6.93385">
        <ele>2493</ele>
        <time>2021-11-18T08:52:22Z</time>
      </trkpt>
      <trkpt lat="44.72088" lon="6.93387">
        <ele>2493</ele>
        <time>2021-11-18T08:52:25Z</time>
      </trkpt>
      <trkpt lat="44.72092" lon="6.93389">
        <ele>2493</ele>
        <time>2021-11-18T08:52:34Z</time>
      </trkpt>
      <trkpt lat="44.72094" lon="6.9339">
        <ele>2493</ele>
        <time>2021-11-18T08:52:37Z</time>
      </trkpt>
      <trkpt lat="44.72096" lon="6.93393">
        <ele>2494</ele>
        <time>2021-11-18T08:52:41Z</time>
      </trkpt>
      <trkpt lat="44.72097" lon="6.93394">
        <ele>2494</ele>
        <time>2021-11-18T08:52:44Z</time>
      </trkpt>
      <trkpt lat="44.72103" lon="6.93404">
        <ele>2495</ele>
        <time>2021-11-18T08:52:56Z</time>
      </trkpt>
      <trkpt lat="44.72105" lon="6.93405">
        <ele>2495</ele>
        <time>2021-11-18T08:52:58Z</time>
      </trkpt>
      <trkpt lat="44.72107" lon="6.93404">
        <ele>2496</ele>
        <time>2021-11-18T08:53:05Z</time>
      </trkpt>
      <trkpt lat="44.72107" lon="6.93407">
        <ele>2496</ele>
        <time>2021-11-18T08:53:08Z</time>
      </trkpt>
      <trkpt lat="44.7211" lon="6.93413">
        <ele>2497</ele>
        <time>2021-11-18T08:53:16Z</time>
      </trkpt>
      <trkpt lat="44.72112" lon="6.93415">
        <ele>2497</ele>
        <time>2021-11-18T08:53:19Z</time>
      </trkpt>
      <trkpt lat="44.72114" lon="6.93416">
        <ele>2498</ele>
        <time>2021-11-18T08:53:23Z</time>
      </trkpt>
      <trkpt lat="44.72116" lon="6.93421">
        <ele>2499</ele>
        <time>2021-11-18T08:53:29Z</time>
      </trkpt>
      <trkpt lat="44.72117" lon="6.93424">
        <ele>2500</ele>
        <time>2021-11-18T08:53:32Z</time>
      </trkpt>
      <trkpt lat="44.72117" lon="6.93429">
        <ele>2502</ele>
        <time>2021-11-18T08:53:37Z</time>
      </trkpt>
      <trkpt lat="44.72118" lon="6.93432">
        <ele>2502</ele>
        <time>2021-11-18T08:53:42Z</time>
      </trkpt>
      <trkpt lat="44.72118" lon="6.93435">
        <ele>2503</ele>
        <time>2021-11-18T08:53:47Z</time>
      </trkpt>
      <trkpt lat="44.7212" lon="6.9344">
        <ele>2503</ele>
        <time>2021-11-18T08:53:52Z</time>
      </trkpt>
      <trkpt lat="44.72121" lon="6.93442">
        <ele>2504</ele>
        <time>2021-11-18T08:53:54Z</time>
      </trkpt>
      <trkpt lat="44.7212" lon="6.93444">
        <ele>2504</ele>
        <time>2021-11-18T08:53:56Z</time>
      </trkpt>
      <trkpt lat="44.7212" lon="6.93447">
        <ele>2505</ele>
        <time>2021-11-18T08:53:59Z</time>
      </trkpt>
      <trkpt lat="44.72121" lon="6.9345">
        <ele>2506</ele>
        <time>2021-11-18T08:54:03Z</time>
      </trkpt>
      <trkpt lat="44.72122" lon="6.93452">
        <ele>2506</ele>
        <time>2021-11-18T08:54:07Z</time>
      </trkpt>
      <trkpt lat="44.72122" lon="6.93455">
        <ele>2507</ele>
        <time>2021-11-18T08:54:10Z</time>
      </trkpt>
      <trkpt lat="44.72123" lon="6.93459">
        <ele>2508</ele>
        <time>2021-11-18T08:54:16Z</time>
      </trkpt>
      <trkpt lat="44.72122" lon="6.93462">
        <ele>2509</ele>
        <time>2021-11-18T08:54:22Z</time>
      </trkpt>
      <trkpt lat="44.72121" lon="6.93463">
        <ele>2510</ele>
        <time>2021-11-18T08:54:26Z</time>
      </trkpt>
      <trkpt lat="44.72119" lon="6.93468">
        <ele>2513</ele>
        <time>2021-11-18T08:54:38Z</time>
      </trkpt>
      <trkpt lat="44.72119" lon="6.93471">
        <ele>2513</ele>
        <time>2021-11-18T08:54:40Z</time>
      </trkpt>
      <trkpt lat="44.72121" lon="6.93476">
        <ele>2515</ele>
        <time>2021-11-18T08:54:46Z</time>
      </trkpt>
      <trkpt lat="44.7212" lon="6.93479">
        <ele>2516</ele>
        <time>2021-11-18T08:54:50Z</time>
      </trkpt>
      <trkpt lat="44.72119" lon="6.93481">
        <ele>2516</ele>
        <time>2021-11-18T08:54:52Z</time>
      </trkpt>
      <trkpt lat="44.72119" lon="6.93487">
        <ele>2519</ele>
        <time>2021-11-18T08:55:01Z</time>
      </trkpt>
      <trkpt lat="44.72119" lon="6.9349">
        <ele>2519</ele>
        <time>2021-11-18T08:55:05Z</time>
      </trkpt>
      <trkpt lat="44.72119" lon="6.93493">
        <ele>2520</ele>
        <time>2021-11-18T08:55:08Z</time>
      </trkpt>
      <trkpt lat="44.72118" lon="6.93495">
        <ele>2521</ele>
        <time>2021-11-18T08:55:14Z</time>
      </trkpt>
      <trkpt lat="44.72117" lon="6.93495">
        <ele>2521</ele>
        <time>2021-11-18T08:55:20Z</time>
      </trkpt>
      <trkpt lat="44.72117" lon="6.93498">
        <ele>2521</ele>
        <time>2021-11-18T08:55:53Z</time>
      </trkpt>
      <trkpt lat="44.72119" lon="6.93502">
        <ele>2522</ele>
        <time>2021-11-18T08:55:57Z</time>
      </trkpt>
      <trkpt lat="44.7212" lon="6.93502">
        <ele>2522</ele>
        <time>2021-11-18T08:56:02Z</time>
      </trkpt>
      <trkpt lat="44.72123" lon="6.93503">
        <ele>2522</ele>
        <time>2021-11-18T08:56:07Z</time>
      </trkpt>
      <trkpt lat="44.72124" lon="6.93504">
        <ele>2522</ele>
        <time>2021-11-18T08:56:09Z</time>
      </trkpt>
      <trkpt lat="44.72126" lon="6.93505">
        <ele>2523</ele>
        <time>2021-11-18T08:56:11Z</time>
      </trkpt>
      <trkpt lat="44.72128" lon="6.93507">
        <ele>2523</ele>
        <time>2021-11-18T08:56:14Z</time>
      </trkpt>
      <trkpt lat="44.72132" lon="6.93507">
        <ele>2524</ele>
        <time>2021-11-18T08:56:20Z</time>
      </trkpt>
      <trkpt lat="44.72134" lon="6.93508">
        <ele>2524</ele>
        <time>2021-11-18T08:56:25Z</time>
      </trkpt>
      <trkpt lat="44.72136" lon="6.93511">
        <ele>2524</ele>
        <time>2021-11-18T08:56:30Z</time>
      </trkpt>
      <trkpt lat="44.72138" lon="6.93512">
        <ele>2524</ele>
        <time>2021-11-18T08:56:33Z</time>
      </trkpt>
      <trkpt lat="44.72137" lon="6.93516">
        <ele>2525</ele>
        <time>2021-11-18T08:56:46Z</time>
      </trkpt>
      <trkpt lat="44.72136" lon="6.93521">
        <ele>2527</ele>
        <time>2021-11-18T08:56:52Z</time>
      </trkpt>
      <trkpt lat="44.72138" lon="6.93529">
        <ele>2528</ele>
        <time>2021-11-18T08:57:01Z</time>
      </trkpt>
      <trkpt lat="44.72138" lon="6.93535">
        <ele>2529</ele>
        <time>2021-11-18T08:57:08Z</time>
      </trkpt>
      <trkpt lat="44.72139" lon="6.93539">
        <ele>2530</ele>
        <time>2021-11-18T08:57:12Z</time>
      </trkpt>
      <trkpt lat="44.72137" lon="6.93544">
        <ele>2531</ele>
        <time>2021-11-18T08:57:19Z</time>
      </trkpt>
      <trkpt lat="44.72137" lon="6.93547">
        <ele>2533</ele>
        <time>2021-11-18T08:57:22Z</time>
      </trkpt>
      <trkpt lat="44.72137" lon="6.9355">
        <ele>2533</ele>
        <time>2021-11-18T08:57:25Z</time>
      </trkpt>
      <trkpt lat="44.72137" lon="6.93554">
        <ele>2534</ele>
        <time>2021-11-18T08:57:28Z</time>
      </trkpt>
      <trkpt lat="44.72137" lon="6.93556">
        <ele>2534</ele>
        <time>2021-11-18T08:57:30Z</time>
      </trkpt>
      <trkpt lat="44.72137" lon="6.93565">
        <ele>2535</ele>
        <time>2021-11-18T08:57:39Z</time>
      </trkpt>
      <trkpt lat="44.72136" lon="6.93567">
        <ele>2535</ele>
        <time>2021-11-18T08:57:41Z</time>
      </trkpt>
      <trkpt lat="44.72136" lon="6.93577">
        <ele>2537</ele>
        <time>2021-11-18T08:57:50Z</time>
      </trkpt>
      <trkpt lat="44.72137" lon="6.93579">
        <ele>2538</ele>
        <time>2021-11-18T08:57:52Z</time>
      </trkpt>
      <trkpt lat="44.72138" lon="6.93587">
        <ele>2539</ele>
        <time>2021-11-18T08:58:01Z</time>
      </trkpt>
      <trkpt lat="44.72139" lon="6.93589">
        <ele>2539</ele>
        <time>2021-11-18T08:58:04Z</time>
      </trkpt>
      <trkpt lat="44.72139" lon="6.93592">
        <ele>2540</ele>
        <time>2021-11-18T08:58:08Z</time>
      </trkpt>
      <trkpt lat="44.72139" lon="6.93595">
        <ele>2540</ele>
        <time>2021-11-18T08:58:10Z</time>
      </trkpt>
      <trkpt lat="44.72138" lon="6.93599">
        <ele>2540</ele>
        <time>2021-11-18T08:58:14Z</time>
      </trkpt>
      <trkpt lat="44.7214" lon="6.9361">
        <ele>2541</ele>
        <time>2021-11-18T08:58:24Z</time>
      </trkpt>
      <trkpt lat="44.7214" lon="6.93613">
        <ele>2541</ele>
        <time>2021-11-18T08:58:26Z</time>
      </trkpt>
      <trkpt lat="44.72139" lon="6.93616">
        <ele>2541</ele>
        <time>2021-11-18T08:58:28Z</time>
      </trkpt>
      <trkpt lat="44.72138" lon="6.93619">
        <ele>2541</ele>
        <time>2021-11-18T08:58:31Z</time>
      </trkpt>
      <trkpt lat="44.72139" lon="6.93622">
        <ele>2542</ele>
        <time>2021-11-18T08:58:35Z</time>
      </trkpt>
      <trkpt lat="44.72139" lon="6.93624">
        <ele>2542</ele>
        <time>2021-11-18T08:58:37Z</time>
      </trkpt>
      <trkpt lat="44.72138" lon="6.93626">
        <ele>2542</ele>
        <time>2021-11-18T08:58:39Z</time>
      </trkpt>
      <trkpt lat="44.72138" lon="6.93628">
        <ele>2542</ele>
        <time>2021-11-18T08:58:42Z</time>
      </trkpt>
      <trkpt lat="44.72137" lon="6.93631">
        <ele>2543</ele>
        <time>2021-11-18T08:58:45Z</time>
      </trkpt>
      <trkpt lat="44.72138" lon="6.93633">
        <ele>2543</ele>
        <time>2021-11-18T08:58:49Z</time>
      </trkpt>
      <trkpt lat="44.72138" lon="6.93636">
        <ele>2543</ele>
        <time>2021-11-18T08:58:52Z</time>
      </trkpt>
      <trkpt lat="44.72137" lon="6.93638">
        <ele>2544</ele>
        <time>2021-11-18T08:58:55Z</time>
      </trkpt>
      <trkpt lat="44.72137" lon="6.93641">
        <ele>2544</ele>
        <time>2021-11-18T08:58:57Z</time>
      </trkpt>
      <trkpt lat="44.72137" lon="6.93643">
        <ele>2545</ele>
        <time>2021-11-18T08:59:01Z</time>
      </trkpt>
      <trkpt lat="44.72137" lon="6.93646">
        <ele>2546</ele>
        <time>2021-11-18T08:59:05Z</time>
      </trkpt>
      <trkpt lat="44.72136" lon="6.93651">
        <ele>2547</ele>
        <time>2021-11-18T08:59:10Z</time>
      </trkpt>
      <trkpt lat="44.72135" lon="6.93653">
        <ele>2547</ele>
        <time>2021-11-18T08:59:12Z</time>
      </trkpt>
      <trkpt lat="44.72134" lon="6.93661">
        <ele>2548</ele>
        <time>2021-11-18T08:59:20Z</time>
      </trkpt>
      <trkpt lat="44.72132" lon="6.93666">
        <ele>2550</ele>
        <time>2021-11-18T08:59:25Z</time>
      </trkpt>
      <trkpt lat="44.72128" lon="6.93677">
        <ele>2552</ele>
        <time>2021-11-18T08:59:36Z</time>
      </trkpt>
      <trkpt lat="44.72128" lon="6.93679">
        <ele>2553</ele>
        <time>2021-11-18T08:59:38Z</time>
      </trkpt>
      <trkpt lat="44.72128" lon="6.93682">
        <ele>2553</ele>
        <time>2021-11-18T08:59:42Z</time>
      </trkpt>
      <trkpt lat="44.72129" lon="6.93685">
        <ele>2552</ele>
        <time>2021-11-18T08:59:46Z</time>
      </trkpt>
      <trkpt lat="44.72129" lon="6.93687">
        <ele>2552</ele>
        <time>2021-11-18T08:59:49Z</time>
      </trkpt>
      <trkpt lat="44.72128" lon="6.93689">
        <ele>2551</ele>
        <time>2021-11-18T08:59:51Z</time>
      </trkpt>
      <trkpt lat="44.72127" lon="6.93692">
        <ele>2551</ele>
        <time>2021-11-18T08:59:53Z</time>
      </trkpt>
      <trkpt lat="44.72127" lon="6.93694">
        <ele>2552</ele>
        <time>2021-11-18T08:59:56Z</time>
      </trkpt>
      <trkpt lat="44.72125" lon="6.93697">
        <ele>2552</ele>
        <time>2021-11-18T09:00:00Z</time>
      </trkpt>
      <trkpt lat="44.72125" lon="6.93703">
        <ele>2552</ele>
        <time>2021-11-18T09:00:06Z</time>
      </trkpt>
      <trkpt lat="44.72123" lon="6.93708">
        <ele>2552</ele>
        <time>2021-11-18T09:00:12Z</time>
      </trkpt>
      <trkpt lat="44.72123" lon="6.9371">
        <ele>2552</ele>
        <time>2021-11-18T09:00:15Z</time>
      </trkpt>
      <trkpt lat="44.72122" lon="6.93715">
        <ele>2552</ele>
        <time>2021-11-18T09:00:21Z</time>
      </trkpt>
      <trkpt lat="44.72121" lon="6.93717">
        <ele>2553</ele>
        <time>2021-11-18T09:00:25Z</time>
      </trkpt>
      <trkpt lat="44.72122" lon="6.93725">
        <ele>2556</ele>
        <time>2021-11-18T09:00:38Z</time>
      </trkpt>
      <trkpt lat="44.72123" lon="6.93727">
        <ele>2557</ele>
        <time>2021-11-18T09:00:40Z</time>
      </trkpt>
      <trkpt lat="44.72124" lon="6.9373">
        <ele>2557</ele>
        <time>2021-11-18T09:00:45Z</time>
      </trkpt>
      <trkpt lat="44.72125" lon="6.93734">
        <ele>2558</ele>
        <time>2021-11-18T09:00:48Z</time>
      </trkpt>
      <trkpt lat="44.72125" lon="6.93737">
        <ele>2558</ele>
        <time>2021-11-18T09:00:52Z</time>
      </trkpt>
      <trkpt lat="44.72128" lon="6.93755">
        <ele>2561</ele>
        <time>2021-11-18T09:01:08Z</time>
      </trkpt>
      <trkpt lat="44.72129" lon="6.93758">
        <ele>2562</ele>
        <time>2021-11-18T09:01:10Z</time>
      </trkpt>
      <trkpt lat="44.7213" lon="6.93764">
        <ele>2562</ele>
        <time>2021-11-18T09:01:15Z</time>
      </trkpt>
      <trkpt lat="44.72132" lon="6.93767">
        <ele>2563</ele>
        <time>2021-11-18T09:01:18Z</time>
      </trkpt>
      <trkpt lat="44.72134" lon="6.93771">
        <ele>2564</ele>
        <time>2021-11-18T09:01:26Z</time>
      </trkpt>
      <trkpt lat="44.72135" lon="6.93774">
        <ele>2564</ele>
        <time>2021-11-18T09:01:31Z</time>
      </trkpt>
      <trkpt lat="44.72136" lon="6.93777">
        <ele>2565</ele>
        <time>2021-11-18T09:01:36Z</time>
      </trkpt>
      <trkpt lat="44.72137" lon="6.93779">
        <ele>2566</ele>
        <time>2021-11-18T09:01:40Z</time>
      </trkpt>
      <trkpt lat="44.72138" lon="6.93782">
        <ele>2566</ele>
        <time>2021-11-18T09:01:43Z</time>
      </trkpt>
      <trkpt lat="44.7214" lon="6.93789">
        <ele>2567</ele>
        <time>2021-11-18T09:01:49Z</time>
      </trkpt>
      <trkpt lat="44.72141" lon="6.93792">
        <ele>2568</ele>
        <time>2021-11-18T09:01:51Z</time>
      </trkpt>
      <trkpt lat="44.72141" lon="6.93796">
        <ele>2568</ele>
        <time>2021-11-18T09:01:54Z</time>
      </trkpt>
      <trkpt lat="44.72143" lon="6.93798">
        <ele>2569</ele>
        <time>2021-11-18T09:01:58Z</time>
      </trkpt>
      <trkpt lat="44.72144" lon="6.93801">
        <ele>2569</ele>
        <time>2021-11-18T09:02:01Z</time>
      </trkpt>
      <trkpt lat="44.72144" lon="6.93805">
        <ele>2569</ele>
        <time>2021-11-18T09:02:05Z</time>
      </trkpt>
      <trkpt lat="44.72144" lon="6.93808">
        <ele>2568</ele>
        <time>2021-11-18T09:02:08Z</time>
      </trkpt>
      <trkpt lat="44.72146" lon="6.9381">
        <ele>2568</ele>
        <time>2021-11-18T09:02:12Z</time>
      </trkpt>
      <trkpt lat="44.72145" lon="6.93812">
        <ele>2568</ele>
        <time>2021-11-18T09:02:19Z</time>
      </trkpt>
      <trkpt lat="44.72144" lon="6.93814">
        <ele>2569</ele>
        <time>2021-11-18T09:02:25Z</time>
      </trkpt>
      <trkpt lat="44.72146" lon="6.9382">
        <ele>2568</ele>
        <time>2021-11-18T09:02:30Z</time>
      </trkpt>
      <trkpt lat="44.72146" lon="6.9383">
        <ele>2568</ele>
        <time>2021-11-18T09:02:39Z</time>
      </trkpt>
      <trkpt lat="44.72146" lon="6.93837">
        <ele>2569</ele>
        <time>2021-11-18T09:02:44Z</time>
      </trkpt>
      <trkpt lat="44.72145" lon="6.9384">
        <ele>2571</ele>
        <time>2021-11-18T09:02:48Z</time>
      </trkpt>
      <trkpt lat="44.72143" lon="6.93842">
        <ele>2573</ele>
        <time>2021-11-18T09:02:52Z</time>
      </trkpt>
      <trkpt lat="44.72141" lon="6.93847">
        <ele>2577</ele>
        <time>2021-11-18T09:02:59Z</time>
      </trkpt>
      <trkpt lat="44.72141" lon="6.9385">
        <ele>2578</ele>
        <time>2021-11-18T09:03:02Z</time>
      </trkpt>
      <trkpt lat="44.72141" lon="6.93853">
        <ele>2580</ele>
        <time>2021-11-18T09:03:06Z</time>
      </trkpt>
      <trkpt lat="44.7214" lon="6.93855">
        <ele>2580</ele>
        <time>2021-11-18T09:03:08Z</time>
      </trkpt>
      <trkpt lat="44.72138" lon="6.93857">
        <ele>2582</ele>
        <time>2021-11-18T09:03:11Z</time>
      </trkpt>
      <trkpt lat="44.72137" lon="6.9386">
        <ele>2582</ele>
        <time>2021-11-18T09:03:14Z</time>
      </trkpt>
      <trkpt lat="44.72134" lon="6.93864">
        <ele>2584</ele>
        <time>2021-11-18T09:03:20Z</time>
      </trkpt>
      <trkpt lat="44.72133" lon="6.93867">
        <ele>2585</ele>
        <time>2021-11-18T09:03:23Z</time>
      </trkpt>
      <trkpt lat="44.72131" lon="6.93869">
        <ele>2585</ele>
        <time>2021-11-18T09:03:26Z</time>
      </trkpt>
      <trkpt lat="44.72125" lon="6.93876">
        <ele>2586</ele>
        <time>2021-11-18T09:03:35Z</time>
      </trkpt>
      <trkpt lat="44.72122" lon="6.93879">
        <ele>2587</ele>
        <time>2021-11-18T09:03:39Z</time>
      </trkpt>
      <trkpt lat="44.72115" lon="6.93881">
        <ele>2587</ele>
        <time>2021-11-18T09:03:48Z</time>
      </trkpt>
      <trkpt lat="44.72114" lon="6.93883">
        <ele>2587</ele>
        <time>2021-11-18T09:03:52Z</time>
      </trkpt>
      <trkpt lat="44.72111" lon="6.93885">
        <ele>2587</ele>
        <time>2021-11-18T09:03:56Z</time>
      </trkpt>
      <trkpt lat="44.72111" lon="6.93883">
        <ele>2587</ele>
        <time>2021-11-18T09:04:00Z</time>
      </trkpt>
      <trkpt lat="44.72109" lon="6.93884">
        <ele>2588</ele>
        <time>2021-11-18T09:04:10Z</time>
      </trkpt>
      <trkpt lat="44.72109" lon="6.93886">
        <ele>2588</ele>
        <time>2021-11-18T09:04:13Z</time>
      </trkpt>
      <trkpt lat="44.72107" lon="6.93889">
        <ele>2588</ele>
        <time>2021-11-18T09:04:17Z</time>
      </trkpt>
      <trkpt lat="44.72099" lon="6.9389">
        <ele>2590</ele>
        <time>2021-11-18T09:04:25Z</time>
      </trkpt>
      <trkpt lat="44.72097" lon="6.9389">
        <ele>2591</ele>
        <time>2021-11-18T09:04:28Z</time>
      </trkpt>
      <trkpt lat="44.72095" lon="6.93891">
        <ele>2592</ele>
        <time>2021-11-18T09:04:32Z</time>
      </trkpt>
      <trkpt lat="44.72091" lon="6.93892">
        <ele>2593</ele>
        <time>2021-11-18T09:04:38Z</time>
      </trkpt>
      <trkpt lat="44.72087" lon="6.93894">
        <ele>2593</ele>
        <time>2021-11-18T09:04:44Z</time>
      </trkpt>
      <trkpt lat="44.72087" lon="6.93898">
        <ele>2593</ele>
        <time>2021-11-18T09:04:50Z</time>
      </trkpt>
      <trkpt lat="44.72089" lon="6.93899">
        <ele>2593</ele>
        <time>2021-11-18T09:05:04Z</time>
      </trkpt>
      <trkpt lat="44.72093" lon="6.93902">
        <ele>2594</ele>
        <time>2021-11-18T09:05:08Z</time>
      </trkpt>
      <trkpt lat="44.72102" lon="6.93903">
        <ele>2597</ele>
        <time>2021-11-18T09:05:25Z</time>
      </trkpt>
      <trkpt lat="44.72104" lon="6.93904">
        <ele>2597</ele>
        <time>2021-11-18T09:05:28Z</time>
      </trkpt>
      <trkpt lat="44.72107" lon="6.93904">
        <ele>2597</ele>
        <time>2021-11-18T09:05:31Z</time>
      </trkpt>
      <trkpt lat="44.72106" lon="6.93905">
        <ele>2598</ele>
        <time>2021-11-18T09:05:41Z</time>
      </trkpt>
      <trkpt lat="44.72103" lon="6.93907">
        <ele>2598</ele>
        <time>2021-11-18T09:05:43Z</time>
      </trkpt>
      <trkpt lat="44.72099" lon="6.9391">
        <ele>2600</ele>
        <time>2021-11-18T09:05:48Z</time>
      </trkpt>
      <trkpt lat="44.72098" lon="6.93912">
        <ele>2600</ele>
        <time>2021-11-18T09:05:56Z</time>
      </trkpt>
      <trkpt lat="44.72094" lon="6.93915">
        <ele>2601</ele>
        <time>2021-11-18T09:06:01Z</time>
      </trkpt>
      <trkpt lat="44.72093" lon="6.93917">
        <ele>2602</ele>
        <time>2021-11-18T09:06:05Z</time>
      </trkpt>
      <trkpt lat="44.72091" lon="6.93917">
        <ele>2602</ele>
        <time>2021-11-18T09:06:11Z</time>
      </trkpt>
      <trkpt lat="44.72088" lon="6.93919">
        <ele>2602</ele>
        <time>2021-11-18T09:06:14Z</time>
      </trkpt>
      <trkpt lat="44.72087" lon="6.9392">
        <ele>2601</ele>
        <time>2021-11-18T09:06:16Z</time>
      </trkpt>
      <trkpt lat="44.72086" lon="6.93922">
        <ele>2602</ele>
        <time>2021-11-18T09:06:18Z</time>
      </trkpt>
      <trkpt lat="44.72084" lon="6.93924">
        <ele>2602</ele>
        <time>2021-11-18T09:06:21Z</time>
      </trkpt>
      <trkpt lat="44.72082" lon="6.93926">
        <ele>2602</ele>
        <time>2021-11-18T09:06:24Z</time>
      </trkpt>
      <trkpt lat="44.72081" lon="6.93928">
        <ele>2603</ele>
        <time>2021-11-18T09:06:28Z</time>
      </trkpt>
      <trkpt lat="44.72078" lon="6.93931">
        <ele>2604</ele>
        <time>2021-11-18T09:06:32Z</time>
      </trkpt>
      <trkpt lat="44.72077" lon="6.93933">
        <ele>2606</ele>
        <time>2021-11-18T09:06:35Z</time>
      </trkpt>
      <trkpt lat="44.72075" lon="6.93933">
        <ele>2607</ele>
        <time>2021-11-18T09:06:39Z</time>
      </trkpt>
      <trkpt lat="44.72074" lon="6.93935">
        <ele>2608</ele>
        <time>2021-11-18T09:06:43Z</time>
      </trkpt>
      <trkpt lat="44.72072" lon="6.93937">
        <ele>2608</ele>
        <time>2021-11-18T09:06:46Z</time>
      </trkpt>
      <trkpt lat="44.72071" lon="6.93939">
        <ele>2609</ele>
        <time>2021-11-18T09:06:49Z</time>
      </trkpt>
      <trkpt lat="44.7207" lon="6.93942">
        <ele>2609</ele>
        <time>2021-11-18T09:06:53Z</time>
      </trkpt>
      <trkpt lat="44.72068" lon="6.93944">
        <ele>2610</ele>
        <time>2021-11-18T09:06:57Z</time>
      </trkpt>
      <trkpt lat="44.72066" lon="6.93945">
        <ele>2610</ele>
        <time>2021-11-18T09:07:01Z</time>
      </trkpt>
      <trkpt lat="44.72065" lon="6.93947">
        <ele>2610</ele>
        <time>2021-11-18T09:07:05Z</time>
      </trkpt>
      <trkpt lat="44.72064" lon="6.93949">
        <ele>2611</ele>
        <time>2021-11-18T09:07:09Z</time>
      </trkpt>
      <trkpt lat="44.72062" lon="6.93955">
        <ele>2612</ele>
        <time>2021-11-18T09:07:17Z</time>
      </trkpt>
      <trkpt lat="44.72061" lon="6.93957">
        <ele>2613</ele>
        <time>2021-11-18T09:07:22Z</time>
      </trkpt>
      <trkpt lat="44.7206" lon="6.9396">
        <ele>2614</ele>
        <time>2021-11-18T09:07:26Z</time>
      </trkpt>
      <trkpt lat="44.72061" lon="6.93962">
        <ele>2615</ele>
        <time>2021-11-18T09:07:31Z</time>
      </trkpt>
      <trkpt lat="44.72051" lon="6.93975">
        <ele>2621</ele>
        <time>2021-11-18T09:07:50Z</time>
      </trkpt>
      <trkpt lat="44.72049" lon="6.93979">
        <ele>2623</ele>
        <time>2021-11-18T09:07:56Z</time>
      </trkpt>
      <trkpt lat="44.72047" lon="6.9398">
        <ele>2624</ele>
        <time>2021-11-18T09:07:58Z</time>
      </trkpt>
      <trkpt lat="44.72042" lon="6.93984">
        <ele>2626</ele>
        <time>2021-11-18T09:08:06Z</time>
      </trkpt>
      <trkpt lat="44.72041" lon="6.93988">
        <ele>2628</ele>
        <time>2021-11-18T09:08:13Z</time>
      </trkpt>
      <trkpt lat="44.72038" lon="6.93991">
        <ele>2629</ele>
        <time>2021-11-18T09:08:18Z</time>
      </trkpt>
      <trkpt lat="44.72036" lon="6.93992">
        <ele>2628</ele>
        <time>2021-11-18T09:08:21Z</time>
      </trkpt>
      <trkpt lat="44.72033" lon="6.93998">
        <ele>2626</ele>
        <time>2021-11-18T09:08:27Z</time>
      </trkpt>
      <trkpt lat="44.72031" lon="6.94002">
        <ele>2624</ele>
        <time>2021-11-18T09:08:33Z</time>
      </trkpt>
      <trkpt lat="44.7203" lon="6.94004">
        <ele>2624</ele>
        <time>2021-11-18T09:08:37Z</time>
      </trkpt>
      <trkpt lat="44.72029" lon="6.94006">
        <ele>2624</ele>
        <time>2021-11-18T09:08:40Z</time>
      </trkpt>
      <trkpt lat="44.72025" lon="6.9401">
        <ele>2624</ele>
        <time>2021-11-18T09:08:46Z</time>
      </trkpt>
      <trkpt lat="44.72023" lon="6.94014">
        <ele>2624</ele>
        <time>2021-11-18T09:08:53Z</time>
      </trkpt>
      <trkpt lat="44.72017" lon="6.94032">
        <ele>2626</ele>
        <time>2021-11-18T09:09:14Z</time>
      </trkpt>
      <trkpt lat="44.72014" lon="6.94036">
        <ele>2627</ele>
        <time>2021-11-18T09:09:19Z</time>
      </trkpt>
      <trkpt lat="44.7201" lon="6.94042">
        <ele>2629</ele>
        <time>2021-11-18T09:09:29Z</time>
      </trkpt>
      <trkpt lat="44.72009" lon="6.94044">
        <ele>2630</ele>
        <time>2021-11-18T09:09:33Z</time>
      </trkpt>
      <trkpt lat="44.72008" lon="6.94049">
        <ele>2631</ele>
        <time>2021-11-18T09:09:39Z</time>
      </trkpt>
      <trkpt lat="44.72006" lon="6.94055">
        <ele>2631</ele>
        <time>2021-11-18T09:09:45Z</time>
      </trkpt>
      <trkpt lat="44.72005" lon="6.94057">
        <ele>2632</ele>
        <time>2021-11-18T09:09:47Z</time>
      </trkpt>
      <trkpt lat="44.72003" lon="6.94058">
        <ele>2632</ele>
        <time>2021-11-18T09:09:51Z</time>
      </trkpt>
      <trkpt lat="44.72001" lon="6.94062">
        <ele>2632</ele>
        <time>2021-11-18T09:09:57Z</time>
      </trkpt>
      <trkpt lat="44.71996" lon="6.9407">
        <ele>2634</ele>
        <time>2021-11-18T09:10:07Z</time>
      </trkpt>
      <trkpt lat="44.71995" lon="6.94072">
        <ele>2635</ele>
        <time>2021-11-18T09:10:11Z</time>
      </trkpt>
      <trkpt lat="44.71993" lon="6.94077">
        <ele>2637</ele>
        <time>2021-11-18T09:10:18Z</time>
      </trkpt>
      <trkpt lat="44.71991" lon="6.94077">
        <ele>2637</ele>
        <time>2021-11-18T09:10:21Z</time>
      </trkpt>
      <trkpt lat="44.71989" lon="6.94079">
        <ele>2638</ele>
        <time>2021-11-18T09:10:26Z</time>
      </trkpt>
      <trkpt lat="44.71989" lon="6.94082">
        <ele>2639</ele>
        <time>2021-11-18T09:10:29Z</time>
      </trkpt>
      <trkpt lat="44.71983" lon="6.9409">
        <ele>2642</ele>
        <time>2021-11-18T09:10:43Z</time>
      </trkpt>
      <trkpt lat="44.71982" lon="6.94091">
        <ele>2643</ele>
        <time>2021-11-18T09:10:47Z</time>
      </trkpt>
      <trkpt lat="44.71979" lon="6.94096">
        <ele>2645</ele>
        <time>2021-11-18T09:10:53Z</time>
      </trkpt>
      <trkpt lat="44.71976" lon="6.94098">
        <ele>2647</ele>
        <time>2021-11-18T09:10:57Z</time>
      </trkpt>
      <trkpt lat="44.71974" lon="6.94102">
        <ele>2649</ele>
        <time>2021-11-18T09:11:02Z</time>
      </trkpt>
      <trkpt lat="44.71973" lon="6.94104">
        <ele>2651</ele>
        <time>2021-11-18T09:11:05Z</time>
      </trkpt>
      <trkpt lat="44.71973" lon="6.94109">
        <ele>2653</ele>
        <time>2021-11-18T09:11:15Z</time>
      </trkpt>
      <trkpt lat="44.71967" lon="6.94114">
        <ele>2655</ele>
        <time>2021-11-18T09:11:26Z</time>
      </trkpt>
      <trkpt lat="44.71962" lon="6.94121">
        <ele>2656</ele>
        <time>2021-11-18T09:11:39Z</time>
      </trkpt>
      <trkpt lat="44.71962" lon="6.94123">
        <ele>2656</ele>
        <time>2021-11-18T09:11:42Z</time>
      </trkpt>
      <trkpt lat="44.71961" lon="6.9413">
        <ele>2658</ele>
        <time>2021-11-18T09:11:56Z</time>
      </trkpt>
      <trkpt lat="44.71959" lon="6.94132">
        <ele>2659</ele>
        <time>2021-11-18T09:11:59Z</time>
      </trkpt>
      <trkpt lat="44.71958" lon="6.94134">
        <ele>2659</ele>
        <time>2021-11-18T09:12:01Z</time>
      </trkpt>
      <trkpt lat="44.71957" lon="6.94135">
        <ele>2660</ele>
        <time>2021-11-18T09:12:04Z</time>
      </trkpt>
      <trkpt lat="44.71955" lon="6.94137">
        <ele>2660</ele>
        <time>2021-11-18T09:12:08Z</time>
      </trkpt>
      <trkpt lat="44.71954" lon="6.94139">
        <ele>2660</ele>
        <time>2021-11-18T09:12:12Z</time>
      </trkpt>
      <trkpt lat="44.71953" lon="6.9414">
        <ele>2661</ele>
        <time>2021-11-18T09:12:17Z</time>
      </trkpt>
      <trkpt lat="44.7195" lon="6.94142">
        <ele>2661</ele>
        <time>2021-11-18T09:12:26Z</time>
      </trkpt>
      <trkpt lat="44.71949" lon="6.94143">
        <ele>2662</ele>
        <time>2021-11-18T09:12:28Z</time>
      </trkpt>
      <trkpt lat="44.71948" lon="6.94145">
        <ele>2662</ele>
        <time>2021-11-18T09:12:30Z</time>
      </trkpt>
      <trkpt lat="44.7195" lon="6.94146">
        <ele>2662</ele>
        <time>2021-11-18T09:12:37Z</time>
      </trkpt>
      <trkpt lat="44.71951" lon="6.94147">
        <ele>2663</ele>
        <time>2021-11-18T09:12:40Z</time>
      </trkpt>
      <trkpt lat="44.71955" lon="6.94149">
        <ele>2664</ele>
        <time>2021-11-18T09:12:46Z</time>
      </trkpt>
      <trkpt lat="44.71956" lon="6.94151">
        <ele>2664</ele>
        <time>2021-11-18T09:12:49Z</time>
      </trkpt>
      <trkpt lat="44.71955" lon="6.94153">
        <ele>2665</ele>
        <time>2021-11-18T09:12:53Z</time>
      </trkpt>
      <trkpt lat="44.71953" lon="6.94154">
        <ele>2665</ele>
        <time>2021-11-18T09:12:56Z</time>
      </trkpt>
      <trkpt lat="44.7195" lon="6.94157">
        <ele>2665</ele>
        <time>2021-11-18T09:13:04Z</time>
      </trkpt>
      <trkpt lat="44.71949" lon="6.94158">
        <ele>2665</ele>
        <time>2021-11-18T09:13:07Z</time>
      </trkpt>
      <trkpt lat="44.71948" lon="6.9416">
        <ele>2665</ele>
        <time>2021-11-18T09:13:11Z</time>
      </trkpt>
      <trkpt lat="44.71945" lon="6.94165">
        <ele>2665</ele>
        <time>2021-11-18T09:13:20Z</time>
      </trkpt>
      <trkpt lat="44.7194" lon="6.94174">
        <ele>2667</ele>
        <time>2021-11-18T09:13:35Z</time>
      </trkpt>
      <trkpt lat="44.71938" lon="6.94175">
        <ele>2667</ele>
        <time>2021-11-18T09:13:39Z</time>
      </trkpt>
      <trkpt lat="44.71937" lon="6.94177">
        <ele>2667</ele>
        <time>2021-11-18T09:13:42Z</time>
      </trkpt>
      <trkpt lat="44.71935" lon="6.94178">
        <ele>2668</ele>
        <time>2021-11-18T09:13:45Z</time>
      </trkpt>
      <trkpt lat="44.71934" lon="6.94179">
        <ele>2668</ele>
        <time>2021-11-18T09:13:47Z</time>
      </trkpt>
      <trkpt lat="44.71931" lon="6.94181">
        <ele>2669</ele>
        <time>2021-11-18T09:13:53Z</time>
      </trkpt>
      <trkpt lat="44.71929" lon="6.94182">
        <ele>2669</ele>
        <time>2021-11-18T09:13:56Z</time>
      </trkpt>
      <trkpt lat="44.71928" lon="6.94184">
        <ele>2670</ele>
        <time>2021-11-18T09:13:59Z</time>
      </trkpt>
      <trkpt lat="44.71926" lon="6.94186">
        <ele>2671</ele>
        <time>2021-11-18T09:14:02Z</time>
      </trkpt>
      <trkpt lat="44.71926" lon="6.94188">
        <ele>2671</ele>
        <time>2021-11-18T09:14:08Z</time>
      </trkpt>
      <trkpt lat="44.71924" lon="6.9419">
        <ele>2673</ele>
        <time>2021-11-18T09:14:12Z</time>
      </trkpt>
      <trkpt lat="44.71918" lon="6.94192">
        <ele>2675</ele>
        <time>2021-11-18T09:14:24Z</time>
      </trkpt>
      <trkpt lat="44.71916" lon="6.94193">
        <ele>2676</ele>
        <time>2021-11-18T09:14:26Z</time>
      </trkpt>
      <trkpt lat="44.71914" lon="6.94194">
        <ele>2677</ele>
        <time>2021-11-18T09:14:29Z</time>
      </trkpt>
      <trkpt lat="44.71913" lon="6.94195">
        <ele>2678</ele>
        <time>2021-11-18T09:14:32Z</time>
      </trkpt>
      <trkpt lat="44.71911" lon="6.94196">
        <ele>2679</ele>
        <time>2021-11-18T09:14:35Z</time>
      </trkpt>
      <trkpt lat="44.71908" lon="6.94197">
        <ele>2680</ele>
        <time>2021-11-18T09:14:39Z</time>
      </trkpt>
      <trkpt lat="44.71899" lon="6.94201">
        <ele>2685</ele>
        <time>2021-11-18T09:14:54Z</time>
      </trkpt>
      <trkpt lat="44.71897" lon="6.942">
        <ele>2686</ele>
        <time>2021-11-18T09:14:57Z</time>
      </trkpt>
      <trkpt lat="44.71895" lon="6.94201">
        <ele>2687</ele>
        <time>2021-11-18T09:15:00Z</time>
      </trkpt>
      <trkpt lat="44.71893" lon="6.942">
        <ele>2687</ele>
        <time>2021-11-18T09:15:05Z</time>
      </trkpt>
      <trkpt lat="44.71892" lon="6.94202">
        <ele>2688</ele>
        <time>2021-11-18T09:15:08Z</time>
      </trkpt>
      <trkpt lat="44.71895" lon="6.94204">
        <ele>2688</ele>
        <time>2021-11-18T09:15:21Z</time>
      </trkpt>
      <trkpt lat="44.71896" lon="6.94206">
        <ele>2688</ele>
        <time>2021-11-18T09:15:24Z</time>
      </trkpt>
      <trkpt lat="44.71899" lon="6.94209">
        <ele>2690</ele>
        <time>2021-11-18T09:15:34Z</time>
      </trkpt>
      <trkpt lat="44.71898" lon="6.94211">
        <ele>2690</ele>
        <time>2021-11-18T09:15:40Z</time>
      </trkpt>
      <trkpt lat="44.71891" lon="6.94214">
        <ele>2692</ele>
        <time>2021-11-18T09:15:50Z</time>
      </trkpt>
      <trkpt lat="44.7189" lon="6.94216">
        <ele>2693</ele>
        <time>2021-11-18T09:15:53Z</time>
      </trkpt>
      <trkpt lat="44.71887" lon="6.94218">
        <ele>2693</ele>
        <time>2021-11-18T09:15:57Z</time>
      </trkpt>
      <trkpt lat="44.71886" lon="6.9422">
        <ele>2694</ele>
        <time>2021-11-18T09:15:59Z</time>
      </trkpt>
      <trkpt lat="44.71878" lon="6.94228">
        <ele>2696</ele>
        <time>2021-11-18T09:16:13Z</time>
      </trkpt>
      <trkpt lat="44.71876" lon="6.94227">
        <ele>2697</ele>
        <time>2021-11-18T09:16:18Z</time>
      </trkpt>
      <trkpt lat="44.71875" lon="6.94228">
        <ele>2698</ele>
        <time>2021-11-18T09:16:23Z</time>
      </trkpt>
      <trkpt lat="44.71873" lon="6.9423">
        <ele>2699</ele>
        <time>2021-11-18T09:16:28Z</time>
      </trkpt>
      <trkpt lat="44.71871" lon="6.94235">
        <ele>2701</ele>
        <time>2021-11-18T09:16:41Z</time>
      </trkpt>
      <trkpt lat="44.71868" lon="6.94239">
        <ele>2703</ele>
        <time>2021-11-18T09:16:51Z</time>
      </trkpt>
      <trkpt lat="44.71866" lon="6.94241">
        <ele>2703</ele>
        <time>2021-11-18T09:16:53Z</time>
      </trkpt>
      <trkpt lat="44.71863" lon="6.94244">
        <ele>2704</ele>
        <time>2021-11-18T09:16:58Z</time>
      </trkpt>
      <trkpt lat="44.71862" lon="6.94245">
        <ele>2705</ele>
        <time>2021-11-18T09:17:01Z</time>
      </trkpt>
      <trkpt lat="44.71861" lon="6.94246">
        <ele>2705</ele>
        <time>2021-11-18T09:17:03Z</time>
      </trkpt>
      <trkpt lat="44.71859" lon="6.94248">
        <ele>2706</ele>
        <time>2021-11-18T09:17:07Z</time>
      </trkpt>
      <trkpt lat="44.71857" lon="6.94249">
        <ele>2706</ele>
        <time>2021-11-18T09:17:10Z</time>
      </trkpt>
      <trkpt lat="44.71856" lon="6.9425">
        <ele>2707</ele>
        <time>2021-11-18T09:17:15Z</time>
      </trkpt>
      <trkpt lat="44.71854" lon="6.94251">
        <ele>2708</ele>
        <time>2021-11-18T09:17:19Z</time>
      </trkpt>
      <trkpt lat="44.71846" lon="6.94256">
        <ele>2711</ele>
        <time>2021-11-18T09:17:35Z</time>
      </trkpt>
      <trkpt lat="44.71844" lon="6.94256">
        <ele>2711</ele>
        <time>2021-11-18T09:17:38Z</time>
      </trkpt>
      <trkpt lat="44.71837" lon="6.94265">
        <ele>2714</ele>
        <time>2021-11-18T09:17:53Z</time>
      </trkpt>
      <trkpt lat="44.71836" lon="6.94265">
        <ele>2715</ele>
        <time>2021-11-18T09:17:56Z</time>
      </trkpt>
      <trkpt lat="44.71834" lon="6.94265">
        <ele>2715</ele>
        <time>2021-11-18T09:18:00Z</time>
      </trkpt>
      <trkpt lat="44.71833" lon="6.94266">
        <ele>2716</ele>
        <time>2021-11-18T09:18:05Z</time>
      </trkpt>
      <trkpt lat="44.7183" lon="6.94267">
        <ele>2717</ele>
        <time>2021-11-18T09:18:11Z</time>
      </trkpt>
      <trkpt lat="44.71827" lon="6.94272">
        <ele>2717</ele>
        <time>2021-11-18T09:18:17Z</time>
      </trkpt>
      <trkpt lat="44.71827" lon="6.94274">
        <ele>2719</ele>
        <time>2021-11-18T09:18:22Z</time>
      </trkpt>
      <trkpt lat="44.71825" lon="6.94275">
        <ele>2719</ele>
        <time>2021-11-18T09:18:28Z</time>
      </trkpt>
      <trkpt lat="44.71823" lon="6.94274">
        <ele>2720</ele>
        <time>2021-11-18T09:18:30Z</time>
      </trkpt>
      <trkpt lat="44.71821" lon="6.94275">
        <ele>2721</ele>
        <time>2021-11-18T09:18:33Z</time>
      </trkpt>
      <trkpt lat="44.71819" lon="6.94278">
        <ele>2722</ele>
        <time>2021-11-18T09:18:40Z</time>
      </trkpt>
      <trkpt lat="44.71818" lon="6.9428">
        <ele>2722</ele>
        <time>2021-11-18T09:18:43Z</time>
      </trkpt>
      <trkpt lat="44.71817" lon="6.94282">
        <ele>2723</ele>
        <time>2021-11-18T09:18:47Z</time>
      </trkpt>
      <trkpt lat="44.71807" lon="6.94286">
        <ele>2725</ele>
        <time>2021-11-18T09:19:03Z</time>
      </trkpt>
      <trkpt lat="44.71806" lon="6.94287">
        <ele>2726</ele>
        <time>2021-11-18T09:19:05Z</time>
      </trkpt>
      <trkpt lat="44.71804" lon="6.94287">
        <ele>2726</ele>
        <time>2021-11-18T09:19:07Z</time>
      </trkpt>
      <trkpt lat="44.71801" lon="6.94288">
        <ele>2727</ele>
        <time>2021-11-18T09:19:15Z</time>
      </trkpt>
      <trkpt lat="44.718" lon="6.9429">
        <ele>2728</ele>
        <time>2021-11-18T09:19:20Z</time>
      </trkpt>
      <trkpt lat="44.71798" lon="6.94291">
        <ele>2728</ele>
        <time>2021-11-18T09:19:23Z</time>
      </trkpt>
      <trkpt lat="44.71797" lon="6.94293">
        <ele>2729</ele>
        <time>2021-11-18T09:19:26Z</time>
      </trkpt>
      <trkpt lat="44.71789" lon="6.94301">
        <ele>2731</ele>
        <time>2021-11-18T09:19:41Z</time>
      </trkpt>
      <trkpt lat="44.71787" lon="6.94301">
        <ele>2731</ele>
        <time>2021-11-18T09:19:46Z</time>
      </trkpt>
      <trkpt lat="44.71786" lon="6.94303">
        <ele>2732</ele>
        <time>2021-11-18T09:19:53Z</time>
      </trkpt>
      <trkpt lat="44.71784" lon="6.94303">
        <ele>2733</ele>
        <time>2021-11-18T09:19:56Z</time>
      </trkpt>
      <trkpt lat="44.71782" lon="6.94303">
        <ele>2734</ele>
        <time>2021-11-18T09:19:59Z</time>
      </trkpt>
      <trkpt lat="44.7178" lon="6.94303">
        <ele>2735</ele>
        <time>2021-11-18T09:20:14Z</time>
      </trkpt>
      <trkpt lat="44.71778" lon="6.94305">
        <ele>2735</ele>
        <time>2021-11-18T09:20:18Z</time>
      </trkpt>
      <trkpt lat="44.71779" lon="6.94309">
        <ele>2735</ele>
        <time>2021-11-18T09:20:21Z</time>
      </trkpt>
      <trkpt lat="44.71781" lon="6.9431">
        <ele>2735</ele>
        <time>2021-11-18T09:20:24Z</time>
      </trkpt>
      <trkpt lat="44.71784" lon="6.9431">
        <ele>2735</ele>
        <time>2021-11-18T09:20:27Z</time>
      </trkpt>
      <trkpt lat="44.71785" lon="6.94308">
        <ele>2735</ele>
        <time>2021-11-18T09:20:28Z</time>
      </trkpt>
      <trkpt lat="44.71785" lon="6.94307">
        <ele>2736</ele>
        <time>2021-11-18T09:20:33Z</time>
      </trkpt>
      <trkpt lat="44.71783" lon="6.94307">
        <ele>2736</ele>
        <time>2021-11-18T09:20:39Z</time>
      </trkpt>
      <trkpt lat="44.71783" lon="6.94309">
        <ele>2736</ele>
        <time>2021-11-18T09:20:42Z</time>
      </trkpt>
      <trkpt lat="44.71788" lon="6.94313">
        <ele>2736</ele>
        <time>2021-11-18T09:20:51Z</time>
      </trkpt>
      <trkpt lat="44.71789" lon="6.94316">
        <ele>2736</ele>
        <time>2021-11-18T09:20:53Z</time>
      </trkpt>
      <trkpt lat="44.71793" lon="6.9432">
        <ele>2736</ele>
        <time>2021-11-18T09:20:59Z</time>
      </trkpt>
      <trkpt lat="44.71795" lon="6.9432">
        <ele>2737</ele>
        <time>2021-11-18T09:21:03Z</time>
      </trkpt>
      <trkpt lat="44.71798" lon="6.94321">
        <ele>2738</ele>
        <time>2021-11-18T09:21:08Z</time>
      </trkpt>
      <trkpt lat="44.718" lon="6.94321">
        <ele>2739</ele>
        <time>2021-11-18T09:21:14Z</time>
      </trkpt>
      <trkpt lat="44.71801" lon="6.94324">
        <ele>2739</ele>
        <time>2021-11-18T09:21:24Z</time>
      </trkpt>
      <trkpt lat="44.71802" lon="6.94331">
        <ele>2739</ele>
        <time>2021-11-18T09:21:45Z</time>
      </trkpt>
      <trkpt lat="44.718" lon="6.94335">
        <ele>2740</ele>
        <time>2021-11-18T09:21:50Z</time>
      </trkpt>
      <trkpt lat="44.71798" lon="6.94337">
        <ele>2740</ele>
        <time>2021-11-18T09:21:52Z</time>
      </trkpt>
      <trkpt lat="44.71796" lon="6.94338">
        <ele>2741</ele>
        <time>2021-11-18T09:21:55Z</time>
      </trkpt>
      <trkpt lat="44.71795" lon="6.9434">
        <ele>2742</ele>
        <time>2021-11-18T09:21:59Z</time>
      </trkpt>
      <trkpt lat="44.71794" lon="6.94342">
        <ele>2744</ele>
        <time>2021-11-18T09:22:03Z</time>
      </trkpt>
      <trkpt lat="44.7179" lon="6.94345">
        <ele>2746</ele>
        <time>2021-11-18T09:22:11Z</time>
      </trkpt>
      <trkpt lat="44.71788" lon="6.94347">
        <ele>2747</ele>
        <time>2021-11-18T09:22:14Z</time>
      </trkpt>
      <trkpt lat="44.71786" lon="6.94349">
        <ele>2748</ele>
        <time>2021-11-18T09:22:19Z</time>
      </trkpt>
      <trkpt lat="44.71774" lon="6.94357">
        <ele>2754</ele>
        <time>2021-11-18T09:22:39Z</time>
      </trkpt>
      <trkpt lat="44.71776" lon="6.94358">
        <ele>2754</ele>
        <time>2021-11-18T09:22:45Z</time>
      </trkpt>
      <trkpt lat="44.71778" lon="6.94361">
        <ele>2756</ele>
        <time>2021-11-18T09:22:58Z</time>
      </trkpt>
      <trkpt lat="44.71779" lon="6.94363">
        <ele>2758</ele>
        <time>2021-11-18T09:23:03Z</time>
      </trkpt>
      <trkpt lat="44.7178" lon="6.94366">
        <ele>2760</ele>
        <time>2021-11-18T09:23:07Z</time>
      </trkpt>
      <trkpt lat="44.71773" lon="6.94376">
        <ele>2761</ele>
        <time>2021-11-18T09:23:19Z</time>
      </trkpt>
      <trkpt lat="44.71773" lon="6.94378">
        <ele>2761</ele>
        <time>2021-11-18T09:23:23Z</time>
      </trkpt>
      <trkpt lat="44.71772" lon="6.9438">
        <ele>2761</ele>
        <time>2021-11-18T09:23:26Z</time>
      </trkpt>
      <trkpt lat="44.71767" lon="6.94387">
        <ele>2762</ele>
        <time>2021-11-18T09:23:35Z</time>
      </trkpt>
      <trkpt lat="44.71768" lon="6.94389">
        <ele>2762</ele>
        <time>2021-11-18T09:23:39Z</time>
      </trkpt>
      <trkpt lat="44.71767" lon="6.9439">
        <ele>2762</ele>
        <time>2021-11-18T09:23:43Z</time>
      </trkpt>
      <trkpt lat="44.71764" lon="6.94392">
        <ele>2762</ele>
        <time>2021-11-18T09:23:47Z</time>
      </trkpt>
      <trkpt lat="44.71752" lon="6.94394">
        <ele>2764</ele>
        <time>2021-11-18T09:24:03Z</time>
      </trkpt>
      <trkpt lat="44.7175" lon="6.94394">
        <ele>2765</ele>
        <time>2021-11-18T09:24:06Z</time>
      </trkpt>
      <trkpt lat="44.71748" lon="6.94395">
        <ele>2768</ele>
        <time>2021-11-18T09:24:10Z</time>
      </trkpt>
      <trkpt lat="44.71747" lon="6.94397">
        <ele>2769</ele>
        <time>2021-11-18T09:24:14Z</time>
      </trkpt>
      <trkpt lat="44.71745" lon="6.94397">
        <ele>2770</ele>
        <time>2021-11-18T09:24:19Z</time>
      </trkpt>
      <trkpt lat="44.71743" lon="6.94396">
        <ele>2770</ele>
        <time>2021-11-18T09:24:22Z</time>
      </trkpt>
      <trkpt lat="44.7174" lon="6.94393">
        <ele>2770</ele>
        <time>2021-11-18T09:24:26Z</time>
      </trkpt>
      <trkpt lat="44.71738" lon="6.94393">
        <ele>2771</ele>
        <time>2021-11-18T09:24:30Z</time>
      </trkpt>
      <trkpt lat="44.71737" lon="6.9439">
        <ele>2773</ele>
        <time>2021-11-18T09:24:35Z</time>
      </trkpt>
      <trkpt lat="44.71735" lon="6.94388">
        <ele>2774</ele>
        <time>2021-11-18T09:24:40Z</time>
      </trkpt>
      <trkpt lat="44.71732" lon="6.94382">
        <ele>2776</ele>
        <time>2021-11-18T09:24:47Z</time>
      </trkpt>
      <trkpt lat="44.71731" lon="6.94384">
        <ele>2776</ele>
        <time>2021-11-18T09:24:52Z</time>
      </trkpt>
      <trkpt lat="44.7173" lon="6.94385">
        <ele>2775</ele>
        <time>2021-11-18T09:24:58Z</time>
      </trkpt>
      <trkpt lat="44.71729" lon="6.94385">
        <ele>2775</ele>
        <time>2021-11-18T09:25:05Z</time>
      </trkpt>
      <trkpt lat="44.71727" lon="6.94386">
        <ele>2775</ele>
        <time>2021-11-18T09:25:15Z</time>
      </trkpt>
      <trkpt lat="44.71726" lon="6.94388">
        <ele>2776</ele>
        <time>2021-11-18T09:25:17Z</time>
      </trkpt>
      <trkpt lat="44.71724" lon="6.94388">
        <ele>2777</ele>
        <time>2021-11-18T09:25:28Z</time>
      </trkpt>
      <trkpt lat="44.71721" lon="6.94389">
        <ele>2776</ele>
        <time>2021-11-18T09:25:31Z</time>
      </trkpt>
      <trkpt lat="44.71722" lon="6.94393">
        <ele>2776</ele>
        <time>2021-11-18T09:25:34Z</time>
      </trkpt>
      <trkpt lat="44.71723" lon="6.94396">
        <ele>2775</ele>
        <time>2021-11-18T09:25:38Z</time>
      </trkpt>
      <trkpt lat="44.71723" lon="6.94399">
        <ele>2774</ele>
        <time>2021-11-18T09:25:40Z</time>
      </trkpt>
      <trkpt lat="44.71721" lon="6.94402">
        <ele>2774</ele>
        <time>2021-11-18T09:25:44Z</time>
      </trkpt>
      <trkpt lat="44.7172" lon="6.94405">
        <ele>2774</ele>
        <time>2021-11-18T09:25:49Z</time>
      </trkpt>
      <trkpt lat="44.7172" lon="6.94407">
        <ele>2773</ele>
        <time>2021-11-18T09:25:53Z</time>
      </trkpt>
      <trkpt lat="44.71714" lon="6.94413">
        <ele>2773</ele>
        <time>2021-11-18T09:26:06Z</time>
      </trkpt>
      <trkpt lat="44.71712" lon="6.94423">
        <ele>2773</ele>
        <time>2021-11-18T09:26:20Z</time>
      </trkpt>
      <trkpt lat="44.71711" lon="6.94427">
        <ele>2773</ele>
        <time>2021-11-18T09:26:24Z</time>
      </trkpt>
      <trkpt lat="44.71709" lon="6.94429">
        <ele>2774</ele>
        <time>2021-11-18T09:26:27Z</time>
      </trkpt>
      <trkpt lat="44.71708" lon="6.94431">
        <ele>2776</ele>
        <time>2021-11-18T09:26:32Z</time>
      </trkpt>
      <trkpt lat="44.71701" lon="6.94433">
        <ele>2778</ele>
        <time>2021-11-18T09:26:45Z</time>
      </trkpt>
      <trkpt lat="44.717" lon="6.94436">
        <ele>2779</ele>
        <time>2021-11-18T09:26:49Z</time>
      </trkpt>
      <trkpt lat="44.71698" lon="6.94437">
        <ele>2779</ele>
        <time>2021-11-18T09:26:54Z</time>
      </trkpt>
      <trkpt lat="44.71694" lon="6.9444">
        <ele>2781</ele>
        <time>2021-11-18T09:27:05Z</time>
      </trkpt>
      <trkpt lat="44.71691" lon="6.94441">
        <ele>2781</ele>
        <time>2021-11-18T09:27:09Z</time>
      </trkpt>
      <trkpt lat="44.71689" lon="6.94442">
        <ele>2783</ele>
        <time>2021-11-18T09:27:12Z</time>
      </trkpt>
      <trkpt lat="44.7169" lon="6.94444">
        <ele>2786</ele>
        <time>2021-11-18T09:28:32Z</time>
      </trkpt>
      <trkpt lat="44.71692" lon="6.94445">
        <ele>2786</ele>
        <time>2021-11-18T09:28:37Z</time>
      </trkpt>
      <trkpt lat="44.71694" lon="6.94444">
        <ele>2786</ele>
        <time>2021-11-18T09:28:40Z</time>
      </trkpt>
      <trkpt lat="44.71696" lon="6.94444">
        <ele>2786</ele>
        <time>2021-11-18T09:28:44Z</time>
      </trkpt>
      <trkpt lat="44.71699" lon="6.94444">
        <ele>2786</ele>
        <time>2021-11-18T09:28:47Z</time>
      </trkpt>
      <trkpt lat="44.71701" lon="6.94445">
        <ele>2786</ele>
        <time>2021-11-18T09:28:50Z</time>
      </trkpt>
      <trkpt lat="44.71703" lon="6.94445">
        <ele>2786</ele>
        <time>2021-11-18T09:28:53Z</time>
      </trkpt>
      <trkpt lat="44.71704" lon="6.94448">
        <ele>2786</ele>
        <time>2021-11-18T09:29:01Z</time>
      </trkpt>
      <trkpt lat="44.71703" lon="6.94453">
        <ele>2787</ele>
        <time>2021-11-18T09:29:07Z</time>
      </trkpt>
      <trkpt lat="44.71701" lon="6.94459">
        <ele>2788</ele>
        <time>2021-11-18T09:29:14Z</time>
      </trkpt>
      <trkpt lat="44.71698" lon="6.94462">
        <ele>2789</ele>
        <time>2021-11-18T09:29:24Z</time>
      </trkpt>
      <trkpt lat="44.71693" lon="6.94469">
        <ele>2792</ele>
        <time>2021-11-18T09:29:36Z</time>
      </trkpt>
      <trkpt lat="44.71692" lon="6.94472">
        <ele>2793</ele>
        <time>2021-11-18T09:29:39Z</time>
      </trkpt>
      <trkpt lat="44.71688" lon="6.94475">
        <ele>2794</ele>
        <time>2021-11-18T09:29:44Z</time>
      </trkpt>
      <trkpt lat="44.71686" lon="6.94476">
        <ele>2795</ele>
        <time>2021-11-18T09:29:47Z</time>
      </trkpt>
      <trkpt lat="44.71684" lon="6.94476">
        <ele>2796</ele>
        <time>2021-11-18T09:29:50Z</time>
      </trkpt>
      <trkpt lat="44.71682" lon="6.94477">
        <ele>2797</ele>
        <time>2021-11-18T09:29:53Z</time>
      </trkpt>
      <trkpt lat="44.71679" lon="6.9448">
        <ele>2800</ele>
        <time>2021-11-18T09:29:58Z</time>
      </trkpt>
      <trkpt lat="44.71677" lon="6.94481">
        <ele>2802</ele>
        <time>2021-11-18T09:30:02Z</time>
      </trkpt>
      <trkpt lat="44.71675" lon="6.94482">
        <ele>2804</ele>
        <time>2021-11-18T09:30:07Z</time>
      </trkpt>
      <trkpt lat="44.71673" lon="6.94483">
        <ele>2805</ele>
        <time>2021-11-18T09:30:10Z</time>
      </trkpt>
      <trkpt lat="44.71669" lon="6.94485">
        <ele>2808</ele>
        <time>2021-11-18T09:30:18Z</time>
      </trkpt>
      <trkpt lat="44.71668" lon="6.94487">
        <ele>2809</ele>
        <time>2021-11-18T09:30:22Z</time>
      </trkpt>
      <trkpt lat="44.71667" lon="6.94488">
        <ele>2810</ele>
        <time>2021-11-18T09:30:29Z</time>
      </trkpt>
      <trkpt lat="44.71664" lon="6.94489">
        <ele>2811</ele>
        <time>2021-11-18T09:30:33Z</time>
      </trkpt>
      <trkpt lat="44.71663" lon="6.9449">
        <ele>2811</ele>
        <time>2021-11-18T09:30:36Z</time>
      </trkpt>
      <trkpt lat="44.71662" lon="6.94493">
        <ele>2811</ele>
        <time>2021-11-18T09:30:41Z</time>
      </trkpt>
      <trkpt lat="44.7166" lon="6.94492">
        <ele>2812</ele>
        <time>2021-11-18T09:30:44Z</time>
      </trkpt>
      <trkpt lat="44.71659" lon="6.9449">
        <ele>2813</ele>
        <time>2021-11-18T09:30:52Z</time>
      </trkpt>
      <trkpt lat="44.7166" lon="6.94489">
        <ele>2813</ele>
        <time>2021-11-18T09:30:54Z</time>
      </trkpt>
      <trkpt lat="44.7166" lon="6.94493">
        <ele>2811</ele>
        <time>2021-11-18T09:31:33Z</time>
      </trkpt>
      <trkpt lat="44.71664" lon="6.94496">
        <ele>2810</ele>
        <time>2021-11-18T09:31:42Z</time>
      </trkpt>
      <trkpt lat="44.71662" lon="6.94495">
        <ele>2810</ele>
        <time>2021-11-18T09:31:53Z</time>
      </trkpt>
      <trkpt lat="44.71661" lon="6.94495">
        <ele>2811</ele>
        <time>2021-11-18T09:32:00Z</time>
      </trkpt>
      <trkpt lat="44.7166" lon="6.94493">
        <ele>2812</ele>
        <time>2021-11-18T09:32:41Z</time>
      </trkpt>
      <trkpt lat="44.71658" lon="6.94498">
        <ele>2812</ele>
        <time>2021-11-18T09:32:54Z</time>
      </trkpt>
      <trkpt lat="44.71657" lon="6.94506">
        <ele>2814</ele>
        <time>2021-11-18T09:33:03Z</time>
      </trkpt>
      <trkpt lat="44.71653" lon="6.94513">
        <ele>2817</ele>
        <time>2021-11-18T09:33:13Z</time>
      </trkpt>
      <trkpt lat="44.71651" lon="6.94514">
        <ele>2818</ele>
        <time>2021-11-18T09:33:17Z</time>
      </trkpt>
      <trkpt lat="44.71649" lon="6.94514">
        <ele>2819</ele>
        <time>2021-11-18T09:33:22Z</time>
      </trkpt>
      <trkpt lat="44.71647" lon="6.94516">
        <ele>2820</ele>
        <time>2021-11-18T09:33:26Z</time>
      </trkpt>
      <trkpt lat="44.71646" lon="6.94517">
        <ele>2820</ele>
        <time>2021-11-18T09:33:29Z</time>
      </trkpt>
      <trkpt lat="44.71643" lon="6.94521">
        <ele>2821</ele>
        <time>2021-11-18T09:33:37Z</time>
      </trkpt>
      <trkpt lat="44.71634" lon="6.94536">
        <ele>2822</ele>
        <time>2021-11-18T09:34:03Z</time>
      </trkpt>
      <trkpt lat="44.71635" lon="6.94538">
        <ele>2822</ele>
        <time>2021-11-18T09:34:17Z</time>
      </trkpt>
      <trkpt lat="44.71636" lon="6.9454">
        <ele>2822</ele>
        <time>2021-11-18T09:34:19Z</time>
      </trkpt>
      <trkpt lat="44.71646" lon="6.94543">
        <ele>2822</ele>
        <time>2021-11-18T09:34:36Z</time>
      </trkpt>
      <trkpt lat="44.71655" lon="6.94547">
        <ele>2822</ele>
        <time>2021-11-18T09:34:47Z</time>
      </trkpt>
      <trkpt lat="44.71657" lon="6.94549">
        <ele>2821</ele>
        <time>2021-11-18T09:34:51Z</time>
      </trkpt>
      <trkpt lat="44.71662" lon="6.94549">
        <ele>2821</ele>
        <time>2021-11-18T09:35:00Z</time>
      </trkpt>
      <trkpt lat="44.71664" lon="6.94551">
        <ele>2822</ele>
        <time>2021-11-18T09:35:06Z</time>
      </trkpt>
      <trkpt lat="44.71659" lon="6.94553">
        <ele>2823</ele>
        <time>2021-11-18T09:35:21Z</time>
      </trkpt>
      <trkpt lat="44.71654" lon="6.94558">
        <ele>2827</ele>
        <time>2021-11-18T09:35:36Z</time>
      </trkpt>
      <trkpt lat="44.71652" lon="6.94559">
        <ele>2828</ele>
        <time>2021-11-18T09:35:41Z</time>
      </trkpt>
      <trkpt lat="44.71648" lon="6.94564">
        <ele>2829</ele>
        <time>2021-11-18T09:35:47Z</time>
      </trkpt>
      <trkpt lat="44.71646" lon="6.94565">
        <ele>2830</ele>
        <time>2021-11-18T09:35:49Z</time>
      </trkpt>
      <trkpt lat="44.71643" lon="6.94568">
        <ele>2831</ele>
        <time>2021-11-18T09:35:54Z</time>
      </trkpt>
      <trkpt lat="44.71642" lon="6.9457">
        <ele>2832</ele>
        <time>2021-11-18T09:36:15Z</time>
      </trkpt>
      <trkpt lat="44.71641" lon="6.94573">
        <ele>2833</ele>
        <time>2021-11-18T09:36:20Z</time>
      </trkpt>
      <trkpt lat="44.71638" lon="6.94575">
        <ele>2833</ele>
        <time>2021-11-18T09:36:23Z</time>
      </trkpt>
      <trkpt lat="44.71637" lon="6.94577">
        <ele>2834</ele>
        <time>2021-11-18T09:36:26Z</time>
      </trkpt>
      <trkpt lat="44.71636" lon="6.9458">
        <ele>2835</ele>
        <time>2021-11-18T09:36:31Z</time>
      </trkpt>
      <trkpt lat="44.71635" lon="6.94583">
        <ele>2836</ele>
        <time>2021-11-18T09:36:34Z</time>
      </trkpt>
      <trkpt lat="44.71637" lon="6.94583">
        <ele>2837</ele>
        <time>2021-11-18T09:36:48Z</time>
      </trkpt>
      <trkpt lat="44.71644" lon="6.9458">
        <ele>2840</ele>
        <time>2021-11-18T09:36:59Z</time>
      </trkpt>
      <trkpt lat="44.71646" lon="6.94581">
        <ele>2841</ele>
        <time>2021-11-18T09:37:09Z</time>
      </trkpt>
      <trkpt lat="44.71648" lon="6.94582">
        <ele>2842</ele>
        <time>2021-11-18T09:37:13Z</time>
      </trkpt>
      <trkpt lat="44.71653" lon="6.94583">
        <ele>2843</ele>
        <time>2021-11-18T09:37:19Z</time>
      </trkpt>
      <trkpt lat="44.71655" lon="6.94584">
        <ele>2844</ele>
        <time>2021-11-18T09:37:24Z</time>
      </trkpt>
      <trkpt lat="44.71657" lon="6.94585">
        <ele>2844</ele>
        <time>2021-11-18T09:37:30Z</time>
      </trkpt>
      <trkpt lat="44.71664" lon="6.94587">
        <ele>2845</ele>
        <time>2021-11-18T09:37:41Z</time>
      </trkpt>
      <trkpt lat="44.71666" lon="6.94588">
        <ele>2845</ele>
        <time>2021-11-18T09:37:45Z</time>
      </trkpt>
      <trkpt lat="44.71665" lon="6.94591">
        <ele>2846</ele>
        <time>2021-11-18T09:37:52Z</time>
      </trkpt>
      <trkpt lat="44.71664" lon="6.94593">
        <ele>2846</ele>
        <time>2021-11-18T09:37:55Z</time>
      </trkpt>
      <trkpt lat="44.71664" lon="6.94596">
        <ele>2848</ele>
        <time>2021-11-18T09:38:00Z</time>
      </trkpt>
      <trkpt lat="44.71664" lon="6.94598">
        <ele>2848</ele>
        <time>2021-11-18T09:38:04Z</time>
      </trkpt>
      <trkpt lat="44.71661" lon="6.94599">
        <ele>2850</ele>
        <time>2021-11-18T09:38:07Z</time>
      </trkpt>
      <trkpt lat="44.71655" lon="6.94601">
        <ele>2852</ele>
        <time>2021-11-18T09:38:15Z</time>
      </trkpt>
      <trkpt lat="44.71651" lon="6.94609">
        <ele>2856</ele>
        <time>2021-11-18T09:38:28Z</time>
      </trkpt>
      <trkpt lat="44.71649" lon="6.94609">
        <ele>2857</ele>
        <time>2021-11-18T09:38:32Z</time>
      </trkpt>
      <trkpt lat="44.71647" lon="6.94608">
        <ele>2857</ele>
        <time>2021-11-18T09:38:37Z</time>
      </trkpt>
      <trkpt lat="44.71646" lon="6.9461">
        <ele>2858</ele>
        <time>2021-11-18T09:38:41Z</time>
      </trkpt>
      <trkpt lat="44.71642" lon="6.94613">
        <ele>2860</ele>
        <time>2021-11-18T09:38:51Z</time>
      </trkpt>
      <trkpt lat="44.71639" lon="6.94617">
        <ele>2862</ele>
        <time>2021-11-18T09:38:57Z</time>
      </trkpt>
      <trkpt lat="44.71642" lon="6.94617">
        <ele>2863</ele>
        <time>2021-11-18T09:39:19Z</time>
      </trkpt>
      <trkpt lat="44.71643" lon="6.94619">
        <ele>2863</ele>
        <time>2021-11-18T09:39:24Z</time>
      </trkpt>
      <trkpt lat="44.71641" lon="6.94615">
        <ele>2863</ele>
        <time>2021-11-18T09:39:39Z</time>
      </trkpt>
      <trkpt lat="44.71643" lon="6.94615">
        <ele>2863</ele>
        <time>2021-11-18T09:39:42Z</time>
      </trkpt>
      <trkpt lat="44.71646" lon="6.94613">
        <ele>2863</ele>
        <time>2021-11-18T09:39:45Z</time>
      </trkpt>
      <trkpt lat="44.71651" lon="6.94614">
        <ele>2862</ele>
        <time>2021-11-18T09:39:57Z</time>
      </trkpt>
      <trkpt lat="44.71654" lon="6.94617">
        <ele>2863</ele>
        <time>2021-11-18T09:40:00Z</time>
      </trkpt>
      <trkpt lat="44.71656" lon="6.94619">
        <ele>2865</ele>
        <time>2021-11-18T09:40:04Z</time>
      </trkpt>
      <trkpt lat="44.71658" lon="6.94618">
        <ele>2866</ele>
        <time>2021-11-18T09:40:09Z</time>
      </trkpt>
      <trkpt lat="44.71663" lon="6.94623">
        <ele>2867</ele>
        <time>2021-11-18T09:40:28Z</time>
      </trkpt>
      <trkpt lat="44.71662" lon="6.94627">
        <ele>2868</ele>
        <time>2021-11-18T09:40:33Z</time>
      </trkpt>
      <trkpt lat="44.7166" lon="6.94629">
        <ele>2868</ele>
        <time>2021-11-18T09:40:36Z</time>
      </trkpt>
      <trkpt lat="44.71656" lon="6.94629">
        <ele>2868</ele>
        <time>2021-11-18T09:40:42Z</time>
      </trkpt>
      <trkpt lat="44.71654" lon="6.94628">
        <ele>2868</ele>
        <time>2021-11-18T09:40:44Z</time>
      </trkpt>
      <trkpt lat="44.71651" lon="6.94639">
        <ele>2877</ele>
        <time>2021-11-18T09:41:11Z</time>
      </trkpt>
      <trkpt lat="44.71649" lon="6.94638">
        <ele>2877</ele>
        <time>2021-11-18T09:41:14Z</time>
      </trkpt>
      <trkpt lat="44.71648" lon="6.94635">
        <ele>2878</ele>
        <time>2021-11-18T09:41:17Z</time>
      </trkpt>
      <trkpt lat="44.7165" lon="6.94633">
        <ele>2878</ele>
        <time>2021-11-18T09:41:27Z</time>
      </trkpt>
      <trkpt lat="44.71651" lon="6.94633">
        <ele>2878</ele>
        <time>2021-11-18T09:41:35Z</time>
      </trkpt>
      <trkpt lat="44.71658" lon="6.94639">
        <ele>2876</ele>
        <time>2021-11-18T09:41:45Z</time>
      </trkpt>
      <trkpt lat="44.71656" lon="6.94638">
        <ele>2876</ele>
        <time>2021-11-18T09:41:55Z</time>
      </trkpt>
      <trkpt lat="44.71655" lon="6.94641">
        <ele>2877</ele>
        <time>2021-11-18T09:41:58Z</time>
      </trkpt>
      <trkpt lat="44.71653" lon="6.94642">
        <ele>2879</ele>
        <time>2021-11-18T09:42:01Z</time>
      </trkpt>
      <trkpt lat="44.71651" lon="6.94641">
        <ele>2881</ele>
        <time>2021-11-18T09:42:07Z</time>
      </trkpt>
      <trkpt lat="44.71649" lon="6.94643">
        <ele>2882</ele>
        <time>2021-11-18T09:42:12Z</time>
      </trkpt>
      <trkpt lat="44.71651" lon="6.94653">
        <ele>2884</ele>
        <time>2021-11-18T09:42:32Z</time>
      </trkpt>
      <trkpt lat="44.71653" lon="6.94654">
        <ele>2885</ele>
        <time>2021-11-18T09:42:35Z</time>
      </trkpt>
      <trkpt lat="44.71656" lon="6.94655">
        <ele>2886</ele>
        <time>2021-11-18T09:42:38Z</time>
      </trkpt>
      <trkpt lat="44.71658" lon="6.94656">
        <ele>2886</ele>
        <time>2021-11-18T09:42:41Z</time>
      </trkpt>
      <trkpt lat="44.7166" lon="6.94655">
        <ele>2886</ele>
        <time>2021-11-18T09:42:46Z</time>
      </trkpt>
      <trkpt lat="44.71662" lon="6.94652">
        <ele>2887</ele>
        <time>2021-11-18T09:42:51Z</time>
      </trkpt>
      <trkpt lat="44.71661" lon="6.94654">
        <ele>2890</ele>
        <time>2021-11-18T09:43:12Z</time>
      </trkpt>
      <trkpt lat="44.7166" lon="6.94657">
        <ele>2891</ele>
        <time>2021-11-18T09:43:17Z</time>
      </trkpt>
      <trkpt lat="44.71659" lon="6.94659">
        <ele>2891</ele>
        <time>2021-11-18T09:43:20Z</time>
      </trkpt>
      <trkpt lat="44.71658" lon="6.94663">
        <ele>2892</ele>
        <time>2021-11-18T09:43:26Z</time>
      </trkpt>
      <trkpt lat="44.71657" lon="6.94665">
        <ele>2892</ele>
        <time>2021-11-18T09:43:32Z</time>
      </trkpt>
      <trkpt lat="44.71655" lon="6.94665">
        <ele>2893</ele>
        <time>2021-11-18T09:43:36Z</time>
      </trkpt>
      <trkpt lat="44.71655" lon="6.94664">
        <ele>2894</ele>
        <time>2021-11-18T09:44:08Z</time>
      </trkpt>
      <trkpt lat="44.71655" lon="6.94667">
        <ele>2894</ele>
        <time>2021-11-18T09:44:18Z</time>
      </trkpt>
      <trkpt lat="44.71659" lon="6.9467">
        <ele>2893</ele>
        <time>2021-11-18T09:44:25Z</time>
      </trkpt>
      <trkpt lat="44.71661" lon="6.94673">
        <ele>2893</ele>
        <time>2021-11-18T09:44:29Z</time>
      </trkpt>
      <trkpt lat="44.71664" lon="6.94673">
        <ele>2895</ele>
        <time>2021-11-18T09:44:33Z</time>
      </trkpt>
      <trkpt lat="44.71666" lon="6.94672">
        <ele>2897</ele>
        <time>2021-11-18T09:44:39Z</time>
      </trkpt>
      <trkpt lat="44.71668" lon="6.9467">
        <ele>2898</ele>
        <time>2021-11-18T09:44:44Z</time>
      </trkpt>
      <trkpt lat="44.71669" lon="6.94668">
        <ele>2899</ele>
        <time>2021-11-18T09:44:50Z</time>
      </trkpt>
      <trkpt lat="44.71671" lon="6.94669">
        <ele>2900</ele>
        <time>2021-11-18T09:44:55Z</time>
      </trkpt>
      <trkpt lat="44.71676" lon="6.94666">
        <ele>2901</ele>
        <time>2021-11-18T09:45:11Z</time>
      </trkpt>
      <trkpt lat="44.71675" lon="6.94665">
        <ele>2904</ele>
        <time>2021-11-18T09:45:26Z</time>
      </trkpt>
      <trkpt lat="44.71676" lon="6.94683">
        <ele>2904</ele>
        <time>2021-11-18T09:45:58Z</time>
      </trkpt>
      <trkpt lat="44.71671" lon="6.94689">
        <ele>2905</ele>
        <time>2021-11-18T09:46:08Z</time>
      </trkpt>
      <trkpt lat="44.71669" lon="6.94691">
        <ele>2905</ele>
        <time>2021-11-18T09:46:14Z</time>
      </trkpt>
      <trkpt lat="44.71665" lon="6.94694">
        <ele>2906</ele>
        <time>2021-11-18T09:46:23Z</time>
      </trkpt>
      <trkpt lat="44.71663" lon="6.94696">
        <ele>2907</ele>
        <time>2021-11-18T09:46:27Z</time>
      </trkpt>
      <trkpt lat="44.71667" lon="6.94694">
        <ele>2907</ele>
        <time>2021-11-18T09:46:46Z</time>
      </trkpt>
      <trkpt lat="44.71664" lon="6.94705">
        <ele>2910</ele>
        <time>2021-11-18T09:47:07Z</time>
      </trkpt>
      <trkpt lat="44.71664" lon="6.94709">
        <ele>2911</ele>
        <time>2021-11-18T09:47:13Z</time>
      </trkpt>
      <trkpt lat="44.71662" lon="6.94711">
        <ele>2912</ele>
        <time>2021-11-18T09:47:18Z</time>
      </trkpt>
      <trkpt lat="44.71661" lon="6.94713">
        <ele>2913</ele>
        <time>2021-11-18T09:47:22Z</time>
      </trkpt>
      <trkpt lat="44.71656" lon="6.94715">
        <ele>2915</ele>
        <time>2021-11-18T09:47:30Z</time>
      </trkpt>
      <trkpt lat="44.71655" lon="6.94714">
        <ele>2915</ele>
        <time>2021-11-18T09:47:34Z</time>
      </trkpt>
      <trkpt lat="44.71653" lon="6.94714">
        <ele>2917</ele>
        <time>2021-11-18T09:47:38Z</time>
      </trkpt>
      <trkpt lat="44.71648" lon="6.94718">
        <ele>2919</ele>
        <time>2021-11-18T09:47:48Z</time>
      </trkpt>
      <trkpt lat="44.71645" lon="6.94722">
        <ele>2921</ele>
        <time>2021-11-18T09:47:55Z</time>
      </trkpt>
      <trkpt lat="44.71643" lon="6.94722">
        <ele>2922</ele>
        <time>2021-11-18T09:47:59Z</time>
      </trkpt>
      <trkpt lat="44.71641" lon="6.94722">
        <ele>2925</ele>
        <time>2021-11-18T09:48:06Z</time>
      </trkpt>
      <trkpt lat="44.7164" lon="6.9472">
        <ele>2926</ele>
        <time>2021-11-18T09:48:16Z</time>
      </trkpt>
      <trkpt lat="44.71638" lon="6.94722">
        <ele>2926</ele>
        <time>2021-11-18T09:48:19Z</time>
      </trkpt>
      <trkpt lat="44.71636" lon="6.94723">
        <ele>2927</ele>
        <time>2021-11-18T09:48:22Z</time>
      </trkpt>
      <trkpt lat="44.71635" lon="6.94723">
        <ele>2927</ele>
        <time>2021-11-18T09:48:26Z</time>
      </trkpt>
      <trkpt lat="44.71637" lon="6.94725">
        <ele>2928</ele>
        <time>2021-11-18T09:48:46Z</time>
      </trkpt>
      <trkpt lat="44.71639" lon="6.94725">
        <ele>2928</ele>
        <time>2021-11-18T09:48:52Z</time>
      </trkpt>
      <trkpt lat="44.71641" lon="6.94726">
        <ele>2928</ele>
        <time>2021-11-18T09:48:54Z</time>
      </trkpt>
      <trkpt lat="44.71644" lon="6.94731">
        <ele>2928</ele>
        <time>2021-11-18T09:49:01Z</time>
      </trkpt>
      <trkpt lat="44.71643" lon="6.94734">
        <ele>2928</ele>
        <time>2021-11-18T09:49:05Z</time>
      </trkpt>
      <trkpt lat="44.71642" lon="6.94737">
        <ele>2928</ele>
        <time>2021-11-18T09:49:11Z</time>
      </trkpt>
      <trkpt lat="44.71638" lon="6.94738">
        <ele>2929</ele>
        <time>2021-11-18T09:49:19Z</time>
      </trkpt>
      <trkpt lat="44.71636" lon="6.94739">
        <ele>2930</ele>
        <time>2021-11-18T09:49:22Z</time>
      </trkpt>
      <trkpt lat="44.71635" lon="6.94739">
        <ele>2930</ele>
        <time>2021-11-18T09:49:26Z</time>
      </trkpt>
      <trkpt lat="44.71633" lon="6.9474">
        <ele>2931</ele>
        <time>2021-11-18T09:49:30Z</time>
      </trkpt>
      <trkpt lat="44.71632" lon="6.94743">
        <ele>2931</ele>
        <time>2021-11-18T09:49:34Z</time>
      </trkpt>
      <trkpt lat="44.71634" lon="6.94744">
        <ele>2932</ele>
        <time>2021-11-18T09:49:42Z</time>
      </trkpt>
      <trkpt lat="44.71636" lon="6.94746">
        <ele>2933</ele>
        <time>2021-11-18T09:49:45Z</time>
      </trkpt>
      <trkpt lat="44.71637" lon="6.94747">
        <ele>2933</ele>
        <time>2021-11-18T09:49:48Z</time>
      </trkpt>
      <trkpt lat="44.7164" lon="6.94747">
        <ele>2933</ele>
        <time>2021-11-18T09:49:55Z</time>
      </trkpt>
      <trkpt lat="44.71647" lon="6.9475">
        <ele>2933</ele>
        <time>2021-11-18T09:50:03Z</time>
      </trkpt>
      <trkpt lat="44.71649" lon="6.9475">
        <ele>2933</ele>
        <time>2021-11-18T09:50:09Z</time>
      </trkpt>
      <trkpt lat="44.7165" lon="6.9475">
        <ele>2933</ele>
        <time>2021-11-18T09:50:14Z</time>
      </trkpt>
      <trkpt lat="44.71652" lon="6.94751">
        <ele>2934</ele>
        <time>2021-11-18T09:50:17Z</time>
      </trkpt>
      <trkpt lat="44.71654" lon="6.94752">
        <ele>2934</ele>
        <time>2021-11-18T09:50:22Z</time>
      </trkpt>
      <trkpt lat="44.71656" lon="6.94752">
        <ele>2934</ele>
        <time>2021-11-18T09:50:26Z</time>
      </trkpt>
      <trkpt lat="44.71661" lon="6.94753">
        <ele>2936</ele>
        <time>2021-11-18T09:50:33Z</time>
      </trkpt>
      <trkpt lat="44.71662" lon="6.94755">
        <ele>2939</ele>
        <time>2021-11-18T09:51:01Z</time>
      </trkpt>
      <trkpt lat="44.7166" lon="6.94756">
        <ele>2940</ele>
        <time>2021-11-18T09:51:03Z</time>
      </trkpt>
      <trkpt lat="44.71659" lon="6.94759">
        <ele>2940</ele>
        <time>2021-11-18T09:51:06Z</time>
      </trkpt>
      <trkpt lat="44.71658" lon="6.94762">
        <ele>2941</ele>
        <time>2021-11-18T09:51:10Z</time>
      </trkpt>
      <trkpt lat="44.71656" lon="6.94764">
        <ele>2941</ele>
        <time>2021-11-18T09:51:14Z</time>
      </trkpt>
      <trkpt lat="44.71655" lon="6.94765">
        <ele>2943</ele>
        <time>2021-11-18T09:51:19Z</time>
      </trkpt>
      <trkpt lat="44.71654" lon="6.94768">
        <ele>2943</ele>
        <time>2021-11-18T09:51:24Z</time>
      </trkpt>
      <trkpt lat="44.71657" lon="6.94767">
        <ele>2944</ele>
        <time>2021-11-18T09:51:51Z</time>
      </trkpt>
      <trkpt lat="44.71659" lon="6.94768">
        <ele>2945</ele>
        <time>2021-11-18T09:51:54Z</time>
      </trkpt>
      <trkpt lat="44.71661" lon="6.94767">
        <ele>2945</ele>
        <time>2021-11-18T09:51:58Z</time>
      </trkpt>
      <trkpt lat="44.71675" lon="6.94765">
        <ele>2947</ele>
        <time>2021-11-18T09:52:24Z</time>
      </trkpt>
      <trkpt lat="44.71676" lon="6.94768">
        <ele>2947</ele>
        <time>2021-11-18T09:52:45Z</time>
      </trkpt>
      <trkpt lat="44.71678" lon="6.94768">
        <ele>2948</ele>
        <time>2021-11-18T09:52:49Z</time>
      </trkpt>
      <trkpt lat="44.71679" lon="6.94765">
        <ele>2948</ele>
        <time>2021-11-18T09:52:53Z</time>
      </trkpt>
      <trkpt lat="44.71681" lon="6.94765">
        <ele>2951</ele>
        <time>2021-11-18T09:52:58Z</time>
      </trkpt>
      <trkpt lat="44.71686" lon="6.94763">
        <ele>2953</ele>
        <time>2021-11-18T09:53:09Z</time>
      </trkpt>
      <trkpt lat="44.71689" lon="6.94765">
        <ele>2954</ele>
        <time>2021-11-18T09:53:12Z</time>
      </trkpt>
      <trkpt lat="44.71691" lon="6.94766">
        <ele>2955</ele>
        <time>2021-11-18T09:53:18Z</time>
      </trkpt>
      <trkpt lat="44.71692" lon="6.94768">
        <ele>2956</ele>
        <time>2021-11-18T09:53:22Z</time>
      </trkpt>
      <trkpt lat="44.71694" lon="6.94769">
        <ele>2957</ele>
        <time>2021-11-18T09:53:26Z</time>
      </trkpt>
      <trkpt lat="44.71696" lon="6.94772">
        <ele>2967</ele>
        <time>2021-11-18T09:53:49Z</time>
      </trkpt>
      <trkpt lat="44.71694" lon="6.94775">
        <ele>2967</ele>
        <time>2021-11-18T09:53:52Z</time>
      </trkpt>
      <trkpt lat="44.71695" lon="6.9478">
        <ele>2968</ele>
        <time>2021-11-18T09:53:57Z</time>
      </trkpt>
      <trkpt lat="44.71693" lon="6.94783">
        <ele>2968</ele>
        <time>2021-11-18T09:54:02Z</time>
      </trkpt>
      <trkpt lat="44.7169" lon="6.94799">
        <ele>2966</ele>
        <time>2021-11-18T09:54:31Z</time>
      </trkpt>
      <trkpt lat="44.71689" lon="6.94796">
        <ele>2966</ele>
        <time>2021-11-18T09:54:46Z</time>
      </trkpt>
      <trkpt lat="44.71691" lon="6.9479">
        <ele>2967</ele>
        <time>2021-11-18T09:55:02Z</time>
      </trkpt>
      <trkpt lat="44.71692" lon="6.94793">
        <ele>2968</ele>
        <time>2021-11-18T09:55:06Z</time>
      </trkpt>
      <trkpt lat="44.71686" lon="6.948">
        <ele>2971</ele>
        <time>2021-11-18T09:55:15Z</time>
      </trkpt>
      <trkpt lat="44.71687" lon="6.94799">
        <ele>2975</ele>
        <time>2021-11-18T09:55:27Z</time>
      </trkpt>
      <trkpt lat="44.71689" lon="6.94798">
        <ele>2978</ele>
        <time>2021-11-18T09:55:34Z</time>
      </trkpt>
      <trkpt lat="44.71694" lon="6.94807">
        <ele>2981</ele>
        <time>2021-11-18T09:55:41Z</time>
      </trkpt>
      <trkpt lat="44.71696" lon="6.94808">
        <ele>2982</ele>
        <time>2021-11-18T09:55:47Z</time>
      </trkpt>
      <trkpt lat="44.71702" lon="6.94815">
        <ele>2983</ele>
        <time>2021-11-18T09:56:15Z</time>
      </trkpt>
      <trkpt lat="44.71703" lon="6.94817">
        <ele>2983</ele>
        <time>2021-11-18T09:56:19Z</time>
      </trkpt>
      <trkpt lat="44.71699" lon="6.94822">
        <ele>2985</ele>
        <time>2021-11-18T09:56:37Z</time>
      </trkpt>
      <trkpt lat="44.71697" lon="6.94822">
        <ele>2987</ele>
        <time>2021-11-18T09:56:43Z</time>
      </trkpt>
      <trkpt lat="44.71694" lon="6.94821">
        <ele>2989</ele>
        <time>2021-11-18T09:56:46Z</time>
      </trkpt>
      <trkpt lat="44.71693" lon="6.94824">
        <ele>2991</ele>
        <time>2021-11-18T09:57:12Z</time>
      </trkpt>
      <trkpt lat="44.71694" lon="6.94826">
        <ele>2992</ele>
        <time>2021-11-18T09:57:19Z</time>
      </trkpt>
      <trkpt lat="44.71694" lon="6.94829">
        <ele>2993</ele>
        <time>2021-11-18T09:57:54Z</time>
      </trkpt>
      <trkpt lat="44.71692" lon="6.94834">
        <ele>2994</ele>
        <time>2021-11-18T09:58:01Z</time>
      </trkpt>
      <trkpt lat="44.71692" lon="6.94837">
        <ele>2995</ele>
        <time>2021-11-18T09:58:03Z</time>
      </trkpt>
      <trkpt lat="44.7169" lon="6.94839">
        <ele>2995</ele>
        <time>2021-11-18T09:58:09Z</time>
      </trkpt>
      <trkpt lat="44.71689" lon="6.94835">
        <ele>2995</ele>
        <time>2021-11-18T09:58:39Z</time>
      </trkpt>
      <trkpt lat="44.71689" lon="6.94837">
        <ele>2996</ele>
        <time>2021-11-18T09:58:51Z</time>
      </trkpt>
      <trkpt lat="44.71687" lon="6.94839">
        <ele>2996</ele>
        <time>2021-11-18T09:58:57Z</time>
      </trkpt>
      <trkpt lat="44.71685" lon="6.9484">
        <ele>2998</ele>
        <time>2021-11-18T09:59:01Z</time>
      </trkpt>
      <trkpt lat="44.71683" lon="6.94843">
        <ele>2998</ele>
        <time>2021-11-18T09:59:15Z</time>
      </trkpt>
      <trkpt lat="44.71682" lon="6.94843">
        <ele>2999</ele>
        <time>2021-11-18T09:59:42Z</time>
      </trkpt>
      <trkpt lat="44.71682" lon="6.94846">
        <ele>3000</ele>
        <time>2021-11-18T09:59:51Z</time>
      </trkpt>
      <trkpt lat="44.71681" lon="6.94846">
        <ele>3001</ele>
        <time>2021-11-18T09:59:54Z</time>
      </trkpt>
      <trkpt lat="44.7168" lon="6.94849">
        <ele>3001</ele>
        <time>2021-11-18T09:59:59Z</time>
      </trkpt>
      <trkpt lat="44.71679" lon="6.94851">
        <ele>3002</ele>
        <time>2021-11-18T10:00:04Z</time>
      </trkpt>
      <trkpt lat="44.71681" lon="6.94853">
        <ele>3002</ele>
        <time>2021-11-18T10:00:28Z</time>
      </trkpt>
      <trkpt lat="44.7168" lon="6.94855">
        <ele>3002</ele>
        <time>2021-11-18T10:00:32Z</time>
      </trkpt>
      <trkpt lat="44.71678" lon="6.94856">
        <ele>3003</ele>
        <time>2021-11-18T10:00:40Z</time>
      </trkpt>
      <trkpt lat="44.71677" lon="6.94857">
        <ele>3007</ele>
        <time>2021-11-18T10:01:38Z</time>
      </trkpt>
      <trkpt lat="44.71677" lon="6.9486">
        <ele>3007</ele>
        <time>2021-11-18T10:01:43Z</time>
      </trkpt>
      <trkpt lat="44.71676" lon="6.94862">
        <ele>3007</ele>
        <time>2021-11-18T10:01:46Z</time>
      </trkpt>
      <trkpt lat="44.71673" lon="6.94863">
        <ele>3008</ele>
        <time>2021-11-18T10:01:58Z</time>
      </trkpt>
      <trkpt lat="44.71672" lon="6.94863">
        <ele>3010</ele>
        <time>2021-11-18T10:02:02Z</time>
      </trkpt>
      <trkpt lat="44.71669" lon="6.94866">
        <ele>3013</ele>
        <time>2021-11-18T10:02:11Z</time>
      </trkpt>
      <trkpt lat="44.71667" lon="6.94866">
        <ele>3014</ele>
        <time>2021-11-18T10:02:19Z</time>
      </trkpt>
      <trkpt lat="44.71667" lon="6.94869">
        <ele>3014</ele>
        <time>2021-11-18T10:03:07Z</time>
      </trkpt>
      <trkpt lat="44.71665" lon="6.94869">
        <ele>3014</ele>
        <time>2021-11-18T10:03:10Z</time>
      </trkpt>
      <trkpt lat="44.71664" lon="6.9487">
        <ele>3016</ele>
        <time>2021-11-18T10:03:14Z</time>
      </trkpt>
      <trkpt lat="44.71662" lon="6.94871">
        <ele>3016</ele>
        <time>2021-11-18T10:03:17Z</time>
      </trkpt>
      <trkpt lat="44.71659" lon="6.94871">
        <ele>3021</ele>
        <time>2021-11-18T10:05:26Z</time>
      </trkpt>
      <trkpt lat="44.71657" lon="6.94872">
        <ele>3023</ele>
        <time>2021-11-18T10:05:28Z</time>
      </trkpt>
      <trkpt lat="44.71656" lon="6.94872">
        <ele>3024</ele>
        <time>2021-11-18T10:05:31Z</time>
      </trkpt>
      <trkpt lat="44.71655" lon="6.94873">
        <ele>3025</ele>
        <time>2021-11-18T10:05:36Z</time>
      </trkpt>
      <trkpt lat="44.71655" lon="6.94877">
        <ele>3025</ele>
        <time>2021-11-18T10:08:40Z</time>
      </trkpt>
      <trkpt lat="44.71649" lon="6.94876">
        <ele>3026</ele>
        <time>2021-11-18T10:09:20Z</time>
      </trkpt>
      <trkpt lat="44.71643" lon="6.94876">
        <ele>3026</ele>
        <time>2021-11-18T10:10:03Z</time>
      </trkpt>
      <trkpt lat="44.71642" lon="6.94877">
        <ele>3026</ele>
        <time>2021-11-18T10:10:06Z</time>
      </trkpt>
      <trkpt lat="44.7164" lon="6.94878">
        <ele>3026</ele>
        <time>2021-11-18T10:10:10Z</time>
      </trkpt>
      <trkpt lat="44.71639" lon="6.9488">
        <ele>3026</ele>
        <time>2021-11-18T10:10:13Z</time>
      </trkpt>
      <trkpt lat="44.71634" lon="6.94885">
        <ele>3026</ele>
        <time>2021-11-18T10:10:41Z</time>
      </trkpt>
      <trkpt lat="44.71634" lon="6.94887">
        <ele>3026</ele>
        <time>2021-11-18T10:10:49Z</time>
      </trkpt>
      <trkpt lat="44.7163" lon="6.94891">
        <ele>3027</ele>
        <time>2021-11-18T10:11:16Z</time>
      </trkpt>
      <trkpt lat="44.71629" lon="6.94893">
        <ele>3027</ele>
        <time>2021-11-18T10:11:19Z</time>
      </trkpt>
      <trkpt lat="44.71627" lon="6.94894">
        <ele>3028</ele>
        <time>2021-11-18T10:11:24Z</time>
      </trkpt>
      <trkpt lat="44.71628" lon="6.94898">
        <ele>3028</ele>
        <time>2021-11-18T10:11:37Z</time>
      </trkpt>
      <trkpt lat="44.71629" lon="6.94897">
        <ele>3028</ele>
        <time>2021-11-18T10:11:41Z</time>
      </trkpt>
      <trkpt lat="44.71631" lon="6.94896">
        <ele>3028</ele>
        <time>2021-11-18T10:11:46Z</time>
      </trkpt>
      <trkpt lat="44.71631" lon="6.94898">
        <ele>3029</ele>
        <time>2021-11-18T10:11:50Z</time>
      </trkpt>
      <trkpt lat="44.7163" lon="6.949">
        <ele>3030</ele>
        <time>2021-11-18T10:11:53Z</time>
      </trkpt>
      <trkpt lat="44.7163" lon="6.94902">
        <ele>3031</ele>
        <time>2021-11-18T10:11:56Z</time>
      </trkpt>
      <trkpt lat="44.7163" lon="6.94904">
        <ele>3032</ele>
        <time>2021-11-18T10:12:00Z</time>
      </trkpt>
      <trkpt lat="44.71627" lon="6.94904">
        <ele>3034</ele>
        <time>2021-11-18T10:12:58Z</time>
      </trkpt>
      <trkpt lat="44.71628" lon="6.94904">
        <ele>3036</ele>
        <time>2021-11-18T10:15:16Z</time>
      </trkpt>
      <trkpt lat="44.71629" lon="6.94903">
        <ele>3038</ele>
        <time>2021-11-18T10:15:25Z</time>
      </trkpt>
      <trkpt lat="44.71627" lon="6.94902">
        <ele>3039</ele>
        <time>2021-11-18T10:16:16Z</time>
      </trkpt>
      <trkpt lat="44.7163" lon="6.94901">
        <ele>3036</ele>
        <time>2021-11-18T10:17:32Z</time>
      </trkpt>
      <trkpt lat="44.71628" lon="6.949">
        <ele>3036</ele>
        <time>2021-11-18T10:17:40Z</time>
      </trkpt>
      <trkpt lat="44.71628" lon="6.94903">
        <ele>3036</ele>
        <time>2021-11-18T10:17:44Z</time>
      </trkpt>
      <trkpt lat="44.71627" lon="6.94904">
        <ele>3038</ele>
        <time>2021-11-18T10:18:41Z</time>
      </trkpt>
      <trkpt lat="44.71627" lon="6.94906">
        <ele>3038</ele>
        <time>2021-11-18T10:18:49Z</time>
      </trkpt>
      <trkpt lat="44.7163" lon="6.94903">
        <ele>3038</ele>
        <time>2021-11-18T10:22:24Z</time>
      </trkpt>
      <trkpt lat="44.7163" lon="6.94906">
        <ele>3038</ele>
        <time>2021-11-18T10:25:23Z</time>
      </trkpt>
      <trkpt lat="44.71632" lon="6.94905">
        <ele>3038</ele>
        <time>2021-11-18T10:25:43Z</time>
      </trkpt>
      <trkpt lat="44.71633" lon="6.94908">
        <ele>3038</ele>
        <time>2021-11-18T10:25:53Z</time>
      </trkpt>
      <trkpt lat="44.71635" lon="6.94919">
        <ele>3038</ele>
        <time>2021-11-18T10:26:10Z</time>
      </trkpt>
      <trkpt lat="44.71624" lon="6.94928">
        <ele>3037</ele>
        <time>2021-11-18T10:26:17Z</time>
      </trkpt>
      <trkpt lat="44.71624" lon="6.94934">
        <ele>3037</ele>
        <time>2021-11-18T10:26:20Z</time>
      </trkpt>
      <trkpt lat="44.71615" lon="6.94931">
        <ele>3036</ele>
        <time>2021-11-18T10:26:34Z</time>
      </trkpt>
      <trkpt lat="44.71614" lon="6.94946">
        <ele>3035</ele>
        <time>2021-11-18T10:26:44Z</time>
      </trkpt>
      <trkpt lat="44.71621" lon="6.94947">
        <ele>3035</ele>
        <time>2021-11-18T10:26:45Z</time>
      </trkpt>
      <trkpt lat="44.71627" lon="6.94906">
        <ele>3030</ele>
        <time>2021-11-18T10:26:46Z</time>
      </trkpt>
      <trkpt lat="44.71626" lon="6.9491">
        <ele>3026</ele>
        <time>2021-11-18T10:26:58Z</time>
      </trkpt>
      <trkpt lat="44.71629" lon="6.94914">
        <ele>3028</ele>
        <time>2021-11-18T10:27:08Z</time>
      </trkpt>
      <trkpt lat="44.71633" lon="6.94914">
        <ele>3033</ele>
        <time>2021-11-18T10:27:13Z</time>
      </trkpt>
      <trkpt lat="44.71632" lon="6.94907">
        <ele>3037</ele>
        <time>2021-11-18T10:27:23Z</time>
      </trkpt>
      <trkpt lat="44.71632" lon="6.94903">
        <ele>3037</ele>
        <time>2021-11-18T10:29:00Z</time>
      </trkpt>
      <trkpt lat="44.71633" lon="6.94904">
        <ele>3037</ele>
        <time>2021-11-18T10:29:39Z</time>
      </trkpt>
      <trkpt lat="44.71631" lon="6.94905">
        <ele>3039</ele>
        <time>2021-11-18T10:29:59Z</time>
      </trkpt>
      <trkpt lat="44.71632" lon="6.94897">
        <ele>3040</ele>
        <time>2021-11-18T10:31:25Z</time>
      </trkpt>
      <trkpt lat="44.71631" lon="6.94893">
        <ele>3040</ele>
        <time>2021-11-18T10:31:27Z</time>
      </trkpt>
      <trkpt lat="44.71631" lon="6.94891">
        <ele>3040</ele>
        <time>2021-11-18T10:31:28Z</time>
      </trkpt>
      <trkpt lat="44.71632" lon="6.94887">
        <ele>3039</ele>
        <time>2021-11-18T10:31:30Z</time>
      </trkpt>
      <trkpt lat="44.71633" lon="6.94885">
        <ele>3038</ele>
        <time>2021-11-18T10:32:07Z</time>
      </trkpt>
      <trkpt lat="44.71634" lon="6.94883">
        <ele>3038</ele>
        <time>2021-11-18T10:32:10Z</time>
      </trkpt>
      <trkpt lat="44.71636" lon="6.94882">
        <ele>3037</ele>
        <time>2021-11-18T10:32:12Z</time>
      </trkpt>
      <trkpt lat="44.71638" lon="6.9488">
        <ele>3037</ele>
        <time>2021-11-18T10:32:16Z</time>
      </trkpt>
      <trkpt lat="44.7164" lon="6.94879">
        <ele>3036</ele>
        <time>2021-11-18T10:32:18Z</time>
      </trkpt>
      <trkpt lat="44.71641" lon="6.94879">
        <ele>3035</ele>
        <time>2021-11-18T10:32:22Z</time>
      </trkpt>
      <trkpt lat="44.71639" lon="6.94885">
        <ele>3034</ele>
        <time>2021-11-18T10:32:34Z</time>
      </trkpt>
      <trkpt lat="44.71636" lon="6.94886">
        <ele>3032</ele>
        <time>2021-11-18T10:32:37Z</time>
      </trkpt>
      <trkpt lat="44.71632" lon="6.94884">
        <ele>3032</ele>
        <time>2021-11-18T10:32:41Z</time>
      </trkpt>
      <trkpt lat="44.7163" lon="6.94879">
        <ele>3032</ele>
        <time>2021-11-18T10:32:42Z</time>
      </trkpt>
      <trkpt lat="44.71628" lon="6.94877">
        <ele>3032</ele>
        <time>2021-11-18T10:32:45Z</time>
      </trkpt>
      <trkpt lat="44.71629" lon="6.94878">
        <ele>3029</ele>
        <time>2021-11-18T10:33:01Z</time>
      </trkpt>
      <trkpt lat="44.71631" lon="6.94876">
        <ele>3028</ele>
        <time>2021-11-18T10:33:05Z</time>
      </trkpt>
      <trkpt lat="44.71636" lon="6.94878">
        <ele>3027</ele>
        <time>2021-11-18T10:33:32Z</time>
      </trkpt>
      <trkpt lat="44.71638" lon="6.94879">
        <ele>3027</ele>
        <time>2021-11-18T10:33:34Z</time>
      </trkpt>
      <trkpt lat="44.7164" lon="6.94879">
        <ele>3027</ele>
        <time>2021-11-18T10:33:36Z</time>
      </trkpt>
      <trkpt lat="44.71644" lon="6.9488">
        <ele>3027</ele>
        <time>2021-11-18T10:33:40Z</time>
      </trkpt>
      <trkpt lat="44.71646" lon="6.9488">
        <ele>3027</ele>
        <time>2021-11-18T10:33:44Z</time>
      </trkpt>
      <trkpt lat="44.71647" lon="6.94879">
        <ele>3027</ele>
        <time>2021-11-18T10:33:47Z</time>
      </trkpt>
      <trkpt lat="44.71651" lon="6.94873">
        <ele>3026</ele>
        <time>2021-11-18T10:34:02Z</time>
      </trkpt>
      <trkpt lat="44.7165" lon="6.94875">
        <ele>3026</ele>
        <time>2021-11-18T10:34:11Z</time>
      </trkpt>
      <trkpt lat="44.7165" lon="6.94877">
        <ele>3025</ele>
        <time>2021-11-18T10:34:27Z</time>
      </trkpt>
      <trkpt lat="44.71652" lon="6.94877">
        <ele>3026</ele>
        <time>2021-11-18T10:34:32Z</time>
      </trkpt>
      <trkpt lat="44.71652" lon="6.94874">
        <ele>3026</ele>
        <time>2021-11-18T10:34:45Z</time>
      </trkpt>
      <trkpt lat="44.71654" lon="6.94874">
        <ele>3026</ele>
        <time>2021-11-18T10:34:50Z</time>
      </trkpt>
      <trkpt lat="44.71656" lon="6.94873">
        <ele>3025</ele>
        <time>2021-11-18T10:34:54Z</time>
      </trkpt>
      <trkpt lat="44.71658" lon="6.94872">
        <ele>3025</ele>
        <time>2021-11-18T10:35:00Z</time>
      </trkpt>
      <trkpt lat="44.7166" lon="6.94872">
        <ele>3024</ele>
        <time>2021-11-18T10:36:39Z</time>
      </trkpt>
      <trkpt lat="44.71659" lon="6.94873">
        <ele>3024</ele>
        <time>2021-11-18T10:36:47Z</time>
      </trkpt>
      <trkpt lat="44.71657" lon="6.94873">
        <ele>3022</ele>
        <time>2021-11-18T10:36:50Z</time>
      </trkpt>
      <trkpt lat="44.71656" lon="6.94871">
        <ele>3020</ele>
        <time>2021-11-18T10:36:57Z</time>
      </trkpt>
      <trkpt lat="44.7166" lon="6.94867">
        <ele>3020</ele>
        <time>2021-11-18T10:38:23Z</time>
      </trkpt>
      <trkpt lat="44.7166" lon="6.94865">
        <ele>3021</ele>
        <time>2021-11-18T10:38:25Z</time>
      </trkpt>
      <trkpt lat="44.71667" lon="6.94857">
        <ele>3021</ele>
        <time>2021-11-18T10:38:28Z</time>
      </trkpt>
      <trkpt lat="44.71668" lon="6.94853">
        <ele>3020</ele>
        <time>2021-11-18T10:38:29Z</time>
      </trkpt>
      <trkpt lat="44.71669" lon="6.94849">
        <ele>3020</ele>
        <time>2021-11-18T10:38:30Z</time>
      </trkpt>
      <trkpt lat="44.7167" lon="6.94844">
        <ele>3020</ele>
        <time>2021-11-18T10:38:31Z</time>
      </trkpt>
      <trkpt lat="44.71672" lon="6.94836">
        <ele>3020</ele>
        <time>2021-11-18T10:38:32Z</time>
      </trkpt>
      <trkpt lat="44.71674" lon="6.94829">
        <ele>3019</ele>
        <time>2021-11-18T10:38:34Z</time>
      </trkpt>
      <trkpt lat="44.71678" lon="6.94824">
        <ele>3018</ele>
        <time>2021-11-18T10:38:36Z</time>
      </trkpt>
      <trkpt lat="44.71678" lon="6.94807">
        <ele>3014</ele>
        <time>2021-11-18T10:38:39Z</time>
      </trkpt>
      <trkpt lat="44.7168" lon="6.94799">
        <ele>3012</ele>
        <time>2021-11-18T10:38:40Z</time>
      </trkpt>
      <trkpt lat="44.71684" lon="6.94792">
        <ele>3010</ele>
        <time>2021-11-18T10:38:41Z</time>
      </trkpt>
      <trkpt lat="44.7169" lon="6.94785">
        <ele>3008</ele>
        <time>2021-11-18T10:38:42Z</time>
      </trkpt>
      <trkpt lat="44.717" lon="6.94766">
        <ele>2999</ele>
        <time>2021-11-18T10:38:45Z</time>
      </trkpt>
      <trkpt lat="44.71707" lon="6.94762">
        <ele>2979</ele>
        <time>2021-11-18T10:41:15Z</time>
      </trkpt>
      <trkpt lat="44.7171" lon="6.94757">
        <ele>2974</ele>
        <time>2021-11-18T10:41:16Z</time>
      </trkpt>
      <trkpt lat="44.71713" lon="6.9475">
        <ele>2971</ele>
        <time>2021-11-18T10:41:17Z</time>
      </trkpt>
      <trkpt lat="44.71714" lon="6.94718">
        <ele>2964</ele>
        <time>2021-11-18T10:41:21Z</time>
      </trkpt>
      <trkpt lat="44.71709" lon="6.94672">
        <ele>2954</ele>
        <time>2021-11-18T10:41:27Z</time>
      </trkpt>
      <trkpt lat="44.71711" lon="6.94663">
        <ele>2952</ele>
        <time>2021-11-18T10:41:28Z</time>
      </trkpt>
      <trkpt lat="44.71713" lon="6.94657">
        <ele>2950</ele>
        <time>2021-11-18T10:41:29Z</time>
      </trkpt>
      <trkpt lat="44.71715" lon="6.9465">
        <ele>2948</ele>
        <time>2021-11-18T10:41:30Z</time>
      </trkpt>
      <trkpt lat="44.71718" lon="6.94644">
        <ele>2945</ele>
        <time>2021-11-18T10:41:31Z</time>
      </trkpt>
      <trkpt lat="44.71721" lon="6.94635">
        <ele>2943</ele>
        <time>2021-11-18T10:41:32Z</time>
      </trkpt>
      <trkpt lat="44.71722" lon="6.94627">
        <ele>2940</ele>
        <time>2021-11-18T10:41:33Z</time>
      </trkpt>
      <trkpt lat="44.71733" lon="6.94601">
        <ele>2933</ele>
        <time>2021-11-18T10:41:37Z</time>
      </trkpt>
      <trkpt lat="44.71734" lon="6.94581">
        <ele>2925</ele>
        <time>2021-11-18T10:41:40Z</time>
      </trkpt>
      <trkpt lat="44.71735" lon="6.94572">
        <ele>2923</ele>
        <time>2021-11-18T10:41:41Z</time>
      </trkpt>
      <trkpt lat="44.71744" lon="6.9454">
        <ele>2916</ele>
        <time>2021-11-18T10:41:45Z</time>
      </trkpt>
      <trkpt lat="44.71748" lon="6.94519">
        <ele>2913</ele>
        <time>2021-11-18T10:41:47Z</time>
      </trkpt>
      <trkpt lat="44.71756" lon="6.94502">
        <ele>2909</ele>
        <time>2021-11-18T10:41:49Z</time>
      </trkpt>
      <trkpt lat="44.71767" lon="6.94462">
        <ele>2903</ele>
        <time>2021-11-18T10:41:53Z</time>
      </trkpt>
      <trkpt lat="44.7177" lon="6.94432">
        <ele>2897</ele>
        <time>2021-11-18T10:41:56Z</time>
      </trkpt>
      <trkpt lat="44.71757" lon="6.94361">
        <ele>2887</ele>
        <time>2021-11-18T10:42:03Z</time>
      </trkpt>
      <trkpt lat="44.71753" lon="6.9435">
        <ele>2884</ele>
        <time>2021-11-18T10:42:04Z</time>
      </trkpt>
      <trkpt lat="44.71747" lon="6.94339">
        <ele>2880</ele>
        <time>2021-11-18T10:42:06Z</time>
      </trkpt>
      <trkpt lat="44.71744" lon="6.94338">
        <ele>2877</ele>
        <time>2021-11-18T10:42:07Z</time>
      </trkpt>
      <trkpt lat="44.71743" lon="6.94345">
        <ele>2874</ele>
        <time>2021-11-18T10:42:08Z</time>
      </trkpt>
      <trkpt lat="44.71735" lon="6.94353">
        <ele>2871</ele>
        <time>2021-11-18T10:42:27Z</time>
      </trkpt>
      <trkpt lat="44.71734" lon="6.94357">
        <ele>2869</ele>
        <time>2021-11-18T10:42:30Z</time>
      </trkpt>
      <trkpt lat="44.7173" lon="6.94368">
        <ele>2853</ele>
        <time>2021-11-18T10:43:06Z</time>
      </trkpt>
      <trkpt lat="44.71734" lon="6.94378">
        <ele>2833</ele>
        <time>2021-11-18T10:43:41Z</time>
      </trkpt>
      <trkpt lat="44.71737" lon="6.94384">
        <ele>2827</ele>
        <time>2021-11-18T10:43:46Z</time>
      </trkpt>
      <trkpt lat="44.71744" lon="6.9438">
        <ele>2826</ele>
        <time>2021-11-18T10:44:18Z</time>
      </trkpt>
      <trkpt lat="44.71756" lon="6.94372">
        <ele>2827</ele>
        <time>2021-11-18T10:44:20Z</time>
      </trkpt>
      <trkpt lat="44.71764" lon="6.94356">
        <ele>2827</ele>
        <time>2021-11-18T10:44:22Z</time>
      </trkpt>
      <trkpt lat="44.71767" lon="6.94348">
        <ele>2827</ele>
        <time>2021-11-18T10:44:23Z</time>
      </trkpt>
      <trkpt lat="44.71768" lon="6.94322">
        <ele>2827</ele>
        <time>2021-11-18T10:44:25Z</time>
      </trkpt>
      <trkpt lat="44.71764" lon="6.94293">
        <ele>2827</ele>
        <time>2021-11-18T10:44:27Z</time>
      </trkpt>
      <trkpt lat="44.71749" lon="6.94165">
        <ele>2823</ele>
        <time>2021-11-18T10:44:37Z</time>
      </trkpt>
      <trkpt lat="44.71741" lon="6.94083">
        <ele>2819</ele>
        <time>2021-11-18T10:44:43Z</time>
      </trkpt>
      <trkpt lat="44.71741" lon="6.94056">
        <ele>2817</ele>
        <time>2021-11-18T10:44:45Z</time>
      </trkpt>
      <trkpt lat="44.71743" lon="6.94044">
        <ele>2815</ele>
        <time>2021-11-18T10:44:46Z</time>
      </trkpt>
      <trkpt lat="44.71744" lon="6.94018">
        <ele>2813</ele>
        <time>2021-11-18T10:44:48Z</time>
      </trkpt>
      <trkpt lat="44.71748" lon="6.93998">
        <ele>2810</ele>
        <time>2021-11-18T10:44:50Z</time>
      </trkpt>
      <trkpt lat="44.71727" lon="6.93945">
        <ele>2798</ele>
        <time>2021-11-18T10:44:58Z</time>
      </trkpt>
      <trkpt lat="44.71716" lon="6.93942">
        <ele>2791</ele>
        <time>2021-11-18T10:45:01Z</time>
      </trkpt>
      <trkpt lat="44.71714" lon="6.93956">
        <ele>2784</ele>
        <time>2021-11-18T10:45:08Z</time>
      </trkpt>
      <trkpt lat="44.71707" lon="6.93964">
        <ele>2779</ele>
        <time>2021-11-18T10:45:10Z</time>
      </trkpt>
      <trkpt lat="44.71709" lon="6.93968">
        <ele>2776</ele>
        <time>2021-11-18T10:45:12Z</time>
      </trkpt>
      <trkpt lat="44.71707" lon="6.93972">
        <ele>2773</ele>
        <time>2021-11-18T10:45:14Z</time>
      </trkpt>
      <trkpt lat="44.71712" lon="6.93984">
        <ele>2764</ele>
        <time>2021-11-18T10:45:27Z</time>
      </trkpt>
      <trkpt lat="44.71715" lon="6.93992">
        <ele>2746</ele>
        <time>2021-11-18T10:45:48Z</time>
      </trkpt>
      <trkpt lat="44.71719" lon="6.93987">
        <ele>2739</ele>
        <time>2021-11-18T10:45:49Z</time>
      </trkpt>
      <trkpt lat="44.71731" lon="6.93958">
        <ele>2728</ele>
        <time>2021-11-18T10:45:52Z</time>
      </trkpt>
      <trkpt lat="44.71737" lon="6.93944">
        <ele>2726</ele>
        <time>2021-11-18T10:45:53Z</time>
      </trkpt>
      <trkpt lat="44.7174" lon="6.93932">
        <ele>2723</ele>
        <time>2021-11-18T10:45:54Z</time>
      </trkpt>
      <trkpt lat="44.71748" lon="6.93923">
        <ele>2721</ele>
        <time>2021-11-18T10:45:55Z</time>
      </trkpt>
      <trkpt lat="44.71756" lon="6.93909">
        <ele>2718</ele>
        <time>2021-11-18T10:45:56Z</time>
      </trkpt>
      <trkpt lat="44.71762" lon="6.93895">
        <ele>2715</ele>
        <time>2021-11-18T10:45:57Z</time>
      </trkpt>
      <trkpt lat="44.7177" lon="6.93882">
        <ele>2713</ele>
        <time>2021-11-18T10:45:58Z</time>
      </trkpt>
      <trkpt lat="44.7178" lon="6.93872">
        <ele>2711</ele>
        <time>2021-11-18T10:45:59Z</time>
      </trkpt>
      <trkpt lat="44.7179" lon="6.93859">
        <ele>2708</ele>
        <time>2021-11-18T10:46:00Z</time>
      </trkpt>
      <trkpt lat="44.71798" lon="6.93843">
        <ele>2705</ele>
        <time>2021-11-18T10:46:01Z</time>
      </trkpt>
      <trkpt lat="44.71805" lon="6.9383">
        <ele>2702</ele>
        <time>2021-11-18T10:46:02Z</time>
      </trkpt>
      <trkpt lat="44.71815" lon="6.9382">
        <ele>2699</ele>
        <time>2021-11-18T10:46:03Z</time>
      </trkpt>
      <trkpt lat="44.7182" lon="6.93807">
        <ele>2696</ele>
        <time>2021-11-18T10:46:04Z</time>
      </trkpt>
      <trkpt lat="44.71825" lon="6.93797">
        <ele>2693</ele>
        <time>2021-11-18T10:46:05Z</time>
      </trkpt>
      <trkpt lat="44.7183" lon="6.93789">
        <ele>2690</ele>
        <time>2021-11-18T10:46:06Z</time>
      </trkpt>
      <trkpt lat="44.71833" lon="6.93784">
        <ele>2687</ele>
        <time>2021-11-18T10:46:07Z</time>
      </trkpt>
      <trkpt lat="44.71832" lon="6.93797">
        <ele>2661</ele>
        <time>2021-11-18T10:46:38Z</time>
      </trkpt>
      <trkpt lat="44.71834" lon="6.93811">
        <ele>2635</ele>
        <time>2021-11-18T10:47:10Z</time>
      </trkpt>
      <trkpt lat="44.71829" lon="6.93806">
        <ele>2599</ele>
        <time>2021-11-18T10:48:25Z</time>
      </trkpt>
      <trkpt lat="44.71823" lon="6.9379">
        <ele>2579</ele>
        <time>2021-11-18T10:48:29Z</time>
      </trkpt>
      <trkpt lat="44.71822" lon="6.93784">
        <ele>2577</ele>
        <time>2021-11-18T10:48:30Z</time>
      </trkpt>
      <trkpt lat="44.71824" lon="6.93715">
        <ele>2570</ele>
        <time>2021-11-18T10:48:36Z</time>
      </trkpt>
      <trkpt lat="44.71819" lon="6.93702">
        <ele>2558</ele>
        <time>2021-11-18T10:48:37Z</time>
      </trkpt>
      <trkpt lat="44.71823" lon="6.93687">
        <ele>2553</ele>
        <time>2021-11-18T10:48:38Z</time>
      </trkpt>
      <trkpt lat="44.71824" lon="6.9367">
        <ele>2549</ele>
        <time>2021-11-18T10:48:39Z</time>
      </trkpt>
      <trkpt lat="44.71824" lon="6.93654">
        <ele>2544</ele>
        <time>2021-11-18T10:48:40Z</time>
      </trkpt>
      <trkpt lat="44.71827" lon="6.93621">
        <ele>2532</ele>
        <time>2021-11-18T10:48:42Z</time>
      </trkpt>
      <trkpt lat="44.71833" lon="6.93587">
        <ele>2519</ele>
        <time>2021-11-18T10:48:44Z</time>
      </trkpt>
      <trkpt lat="44.71833" lon="6.93567">
        <ele>2516</ele>
        <time>2021-11-18T10:48:45Z</time>
      </trkpt>
      <trkpt lat="44.71835" lon="6.93551">
        <ele>2513</ele>
        <time>2021-11-18T10:48:46Z</time>
      </trkpt>
      <trkpt lat="44.7184" lon="6.93536">
        <ele>2510</ele>
        <time>2021-11-18T10:48:47Z</time>
      </trkpt>
      <trkpt lat="44.71845" lon="6.9352">
        <ele>2506</ele>
        <time>2021-11-18T10:48:48Z</time>
      </trkpt>
      <trkpt lat="44.71846" lon="6.93503">
        <ele>2502</ele>
        <time>2021-11-18T10:48:49Z</time>
      </trkpt>
      <trkpt lat="44.71848" lon="6.93487">
        <ele>2498</ele>
        <time>2021-11-18T10:48:50Z</time>
      </trkpt>
      <trkpt lat="44.71858" lon="6.93465">
        <ele>2494</ele>
        <time>2021-11-18T10:48:52Z</time>
      </trkpt>
      <trkpt lat="44.71865" lon="6.93439">
        <ele>2490</ele>
        <time>2021-11-18T10:48:54Z</time>
      </trkpt>
      <trkpt lat="44.7187" lon="6.93427">
        <ele>2488</ele>
        <time>2021-11-18T10:48:55Z</time>
      </trkpt>
      <trkpt lat="44.71876" lon="6.93416">
        <ele>2485</ele>
        <time>2021-11-18T10:48:56Z</time>
      </trkpt>
      <trkpt lat="44.71961" lon="6.93258">
        <ele>2461</ele>
        <time>2021-11-18T10:49:14Z</time>
      </trkpt>
      <trkpt lat="44.71965" lon="6.93231">
        <ele>2457</ele>
        <time>2021-11-18T10:49:16Z</time>
      </trkpt>
      <trkpt lat="44.71969" lon="6.93221">
        <ele>2455</ele>
        <time>2021-11-18T10:49:17Z</time>
      </trkpt>
      <trkpt lat="44.71969" lon="6.93213">
        <ele>2452</ele>
        <time>2021-11-18T10:49:19Z</time>
      </trkpt>
      <trkpt lat="44.71971" lon="6.9321">
        <ele>2449</ele>
        <time>2021-11-18T10:49:23Z</time>
      </trkpt>
      <trkpt lat="44.72013" lon="6.93089">
        <ele>2443</ele>
        <time>2021-11-18T10:49:53Z</time>
      </trkpt>
      <trkpt lat="44.72014" lon="6.93079">
        <ele>2444</ele>
        <time>2021-11-18T10:49:56Z</time>
      </trkpt>
      <trkpt lat="44.72028" lon="6.93035">
        <ele>2443</ele>
        <time>2021-11-18T10:50:15Z</time>
      </trkpt>
      <trkpt lat="44.72036" lon="6.93024">
        <ele>2441</ele>
        <time>2021-11-18T10:50:19Z</time>
      </trkpt>
      <trkpt lat="44.72055" lon="6.92916">
        <ele>2433</ele>
        <time>2021-11-18T10:50:33Z</time>
      </trkpt>
      <trkpt lat="44.72058" lon="6.92856">
        <ele>2429</ele>
        <time>2021-11-18T10:50:42Z</time>
      </trkpt>
      <trkpt lat="44.72056" lon="6.92843">
        <ele>2428</ele>
        <time>2021-11-18T10:50:45Z</time>
      </trkpt>
      <trkpt lat="44.72064" lon="6.92786">
        <ele>2426</ele>
        <time>2021-11-18T10:50:56Z</time>
      </trkpt>
      <trkpt lat="44.7208" lon="6.92728">
        <ele>2424</ele>
        <time>2021-11-18T10:51:11Z</time>
      </trkpt>
      <trkpt lat="44.72081" lon="6.92716">
        <ele>2422</ele>
        <time>2021-11-18T10:51:14Z</time>
      </trkpt>
      <trkpt lat="44.7208" lon="6.92696">
        <ele>2419</ele>
        <time>2021-11-18T10:51:17Z</time>
      </trkpt>
      <trkpt lat="44.72079" lon="6.92688">
        <ele>2419</ele>
        <time>2021-11-18T10:51:18Z</time>
      </trkpt>
      <trkpt lat="44.72075" lon="6.92682">
        <ele>2417</ele>
        <time>2021-11-18T10:51:19Z</time>
      </trkpt>
      <trkpt lat="44.72061" lon="6.92677">
        <ele>2415</ele>
        <time>2021-11-18T10:51:21Z</time>
      </trkpt>
      <trkpt lat="44.72057" lon="6.92661">
        <ele>2412</ele>
        <time>2021-11-18T10:51:23Z</time>
      </trkpt>
      <trkpt lat="44.72057" lon="6.92635">
        <ele>2408</ele>
        <time>2021-11-18T10:51:26Z</time>
      </trkpt>
      <trkpt lat="44.72062" lon="6.92604">
        <ele>2404</ele>
        <time>2021-11-18T10:51:30Z</time>
      </trkpt>
      <trkpt lat="44.72067" lon="6.9259">
        <ele>2403</ele>
        <time>2021-11-18T10:51:33Z</time>
      </trkpt>
      <trkpt lat="44.72073" lon="6.92579">
        <ele>2402</ele>
        <time>2021-11-18T10:51:36Z</time>
      </trkpt>
      <trkpt lat="44.72089" lon="6.92545">
        <ele>2399</ele>
        <time>2021-11-18T10:51:43Z</time>
      </trkpt>
      <trkpt lat="44.72097" lon="6.92531">
        <ele>2397</ele>
        <time>2021-11-18T10:51:46Z</time>
      </trkpt>
      <trkpt lat="44.7213" lon="6.92425">
        <ele>2387</ele>
        <time>2021-11-18T10:52:09Z</time>
      </trkpt>
      <trkpt lat="44.72135" lon="6.92415">
        <ele>2386</ele>
        <time>2021-11-18T10:52:15Z</time>
      </trkpt>
      <trkpt lat="44.7214" lon="6.92418">
        <ele>2387</ele>
        <time>2021-11-18T10:53:55Z</time>
      </trkpt>
      <trkpt lat="44.7214" lon="6.92415">
        <ele>2388</ele>
        <time>2021-11-18T10:53:57Z</time>
      </trkpt>
      <trkpt lat="44.72133" lon="6.92412">
        <ele>2390</ele>
        <time>2021-11-18T10:54:28Z</time>
      </trkpt>
      <trkpt lat="44.72132" lon="6.92415">
        <ele>2389</ele>
        <time>2021-11-18T10:57:12Z</time>
      </trkpt>
      <trkpt lat="44.7214" lon="6.92423">
        <ele>2389</ele>
        <time>2021-11-18T11:02:46Z</time>
      </trkpt>
      <trkpt lat="44.72144" lon="6.92437">
        <ele>2390</ele>
        <time>2021-11-18T11:03:05Z</time>
      </trkpt>
      <trkpt lat="44.72154" lon="6.92437">
        <ele>2393</ele>
        <time>2021-11-18T11:03:30Z</time>
      </trkpt>
      <trkpt lat="44.72164" lon="6.92438">
        <ele>2397</ele>
        <time>2021-11-18T11:03:52Z</time>
      </trkpt>
      <trkpt lat="44.72174" lon="6.92444">
        <ele>2402</ele>
        <time>2021-11-18T11:04:14Z</time>
      </trkpt>
      <trkpt lat="44.7218" lon="6.92459">
        <ele>2406</ele>
        <time>2021-11-18T11:04:36Z</time>
      </trkpt>
      <trkpt lat="44.72181" lon="6.92488">
        <ele>2409</ele>
        <time>2021-11-18T11:05:10Z</time>
      </trkpt>
      <trkpt lat="44.7218" lon="6.92504">
        <ele>2412</ele>
        <time>2021-11-18T11:05:31Z</time>
      </trkpt>
      <trkpt lat="44.72183" lon="6.92518">
        <ele>2415</ele>
        <time>2021-11-18T11:05:50Z</time>
      </trkpt>
      <trkpt lat="44.72185" lon="6.92532">
        <ele>2417</ele>
        <time>2021-11-18T11:06:12Z</time>
      </trkpt>
      <trkpt lat="44.72187" lon="6.92546">
        <ele>2420</ele>
        <time>2021-11-18T11:06:33Z</time>
      </trkpt>
      <trkpt lat="44.72199" lon="6.92543">
        <ele>2424</ele>
        <time>2021-11-18T11:07:01Z</time>
      </trkpt>
      <trkpt lat="44.72208" lon="6.92543">
        <ele>2426</ele>
        <time>2021-11-18T11:07:18Z</time>
      </trkpt>
      <trkpt lat="44.72218" lon="6.9255">
        <ele>2430</ele>
        <time>2021-11-18T11:07:42Z</time>
      </trkpt>
      <trkpt lat="44.72218" lon="6.92566">
        <ele>2434</ele>
        <time>2021-11-18T11:08:05Z</time>
      </trkpt>
      <trkpt lat="44.72219" lon="6.9258">
        <ele>2437</ele>
        <time>2021-11-18T11:08:27Z</time>
      </trkpt>
      <trkpt lat="44.72219" lon="6.92595">
        <ele>2440</ele>
        <time>2021-11-18T11:08:48Z</time>
      </trkpt>
      <trkpt lat="44.72221" lon="6.92613">
        <ele>2443</ele>
        <time>2021-11-18T11:09:11Z</time>
      </trkpt>
      <trkpt lat="44.72227" lon="6.92623">
        <ele>2445</ele>
        <time>2021-11-18T11:09:29Z</time>
      </trkpt>
      <trkpt lat="44.72237" lon="6.92627">
        <ele>2449</ele>
        <time>2021-11-18T11:10:06Z</time>
      </trkpt>
      <trkpt lat="44.72247" lon="6.92621">
        <ele>2455</ele>
        <time>2021-11-18T11:10:28Z</time>
      </trkpt>
      <trkpt lat="44.72254" lon="6.92631">
        <ele>2461</ele>
        <time>2021-11-18T11:10:59Z</time>
      </trkpt>
      <trkpt lat="44.72259" lon="6.9266">
        <ele>2472</ele>
        <time>2021-11-18T11:11:40Z</time>
      </trkpt>
      <trkpt lat="44.7228" lon="6.92659">
        <ele>2483</ele>
        <time>2021-11-18T11:12:33Z</time>
      </trkpt>
      <trkpt lat="44.72281" lon="6.92675">
        <ele>2487</ele>
        <time>2021-11-18T11:12:55Z</time>
      </trkpt>
      <trkpt lat="44.72283" lon="6.92691">
        <ele>2489</ele>
        <time>2021-11-18T11:13:43Z</time>
      </trkpt>
      <trkpt lat="44.72285" lon="6.92721">
        <ele>2507</ele>
        <time>2021-11-18T11:14:13Z</time>
      </trkpt>
      <trkpt lat="44.72294" lon="6.92747">
        <ele>2506</ele>
        <time>2021-11-18T11:14:53Z</time>
      </trkpt>
      <trkpt lat="44.72303" lon="6.92745">
        <ele>2508</ele>
        <time>2021-11-18T11:15:32Z</time>
      </trkpt>
      <trkpt lat="44.72313" lon="6.9274">
        <ele>2512</ele>
        <time>2021-11-18T11:15:50Z</time>
      </trkpt>
      <trkpt lat="44.72334" lon="6.9274">
        <ele>2521</ele>
        <time>2021-11-18T11:16:38Z</time>
      </trkpt>
      <trkpt lat="44.72344" lon="6.92739">
        <ele>2525</ele>
        <time>2021-11-18T11:17:02Z</time>
      </trkpt>
      <trkpt lat="44.7235" lon="6.9275">
        <ele>2530</ele>
        <time>2021-11-18T11:17:28Z</time>
      </trkpt>
      <trkpt lat="44.72351" lon="6.92768">
        <ele>2538</ele>
        <time>2021-11-18T11:18:03Z</time>
      </trkpt>
      <trkpt lat="44.72352" lon="6.92781">
        <ele>2539</ele>
        <time>2021-11-18T11:18:16Z</time>
      </trkpt>
      <trkpt lat="44.72354" lon="6.92795">
        <ele>2542</ele>
        <time>2021-11-18T11:18:40Z</time>
      </trkpt>
      <trkpt lat="44.72356" lon="6.9281">
        <ele>2546</ele>
        <time>2021-11-18T11:19:06Z</time>
      </trkpt>
      <trkpt lat="44.72357" lon="6.92812">
        <ele>2549</ele>
        <time>2021-11-18T11:19:39Z</time>
      </trkpt>
      <trkpt lat="44.72363" lon="6.92821">
        <ele>2551</ele>
        <time>2021-11-18T11:19:51Z</time>
      </trkpt>
      <trkpt lat="44.72373" lon="6.92815">
        <ele>2554</ele>
        <time>2021-11-18T11:20:11Z</time>
      </trkpt>
      <trkpt lat="44.72379" lon="6.92826">
        <ele>2557</ele>
        <time>2021-11-18T11:20:45Z</time>
      </trkpt>
      <trkpt lat="44.72386" lon="6.92834">
        <ele>2563</ele>
        <time>2021-11-18T11:21:45Z</time>
      </trkpt>
      <trkpt lat="44.7239" lon="6.92863">
        <ele>2568</ele>
        <time>2021-11-18T11:22:34Z</time>
      </trkpt>
      <trkpt lat="44.72395" lon="6.92875">
        <ele>2570</ele>
        <time>2021-11-18T11:22:58Z</time>
      </trkpt>
      <trkpt lat="44.72399" lon="6.92889">
        <ele>2574</ele>
        <time>2021-11-18T11:23:25Z</time>
      </trkpt>
      <trkpt lat="44.72403" lon="6.92902">
        <ele>2579</ele>
        <time>2021-11-18T11:23:51Z</time>
      </trkpt>
      <trkpt lat="44.7241" lon="6.92894">
        <ele>2586</ele>
        <time>2021-11-18T11:24:39Z</time>
      </trkpt>
      <trkpt lat="44.72431" lon="6.92891">
        <ele>2596</ele>
        <time>2021-11-18T11:25:23Z</time>
      </trkpt>
      <trkpt lat="44.72442" lon="6.92893">
        <ele>2605</ele>
        <time>2021-11-18T11:25:51Z</time>
      </trkpt>
      <trkpt lat="44.72444" lon="6.92906">
        <ele>2614</ele>
        <time>2021-11-18T11:26:37Z</time>
      </trkpt>
      <trkpt lat="44.72444" lon="6.92908">
        <ele>2615</ele>
        <time>2021-11-18T11:26:39Z</time>
      </trkpt>
      <trkpt lat="44.72445" lon="6.92937">
        <ele>2620</ele>
        <time>2021-11-18T11:27:19Z</time>
      </trkpt>
      <trkpt lat="44.72454" lon="6.92939">
        <ele>2622</ele>
        <time>2021-11-18T11:28:02Z</time>
      </trkpt>
      <trkpt lat="44.72465" lon="6.92936">
        <ele>2625</ele>
        <time>2021-11-18T11:28:24Z</time>
      </trkpt>
      <trkpt lat="44.72476" lon="6.92936">
        <ele>2628</ele>
        <time>2021-11-18T11:28:46Z</time>
      </trkpt>
      <trkpt lat="44.72486" lon="6.92936">
        <ele>2631</ele>
        <time>2021-11-18T11:29:07Z</time>
      </trkpt>
      <trkpt lat="44.72486" lon="6.92949">
        <ele>2634</ele>
        <time>2021-11-18T11:29:36Z</time>
      </trkpt>
      <trkpt lat="44.72482" lon="6.92964">
        <ele>2637</ele>
        <time>2021-11-18T11:30:00Z</time>
      </trkpt>
      <trkpt lat="44.72481" lon="6.9298">
        <ele>2641</ele>
        <time>2021-11-18T11:30:33Z</time>
      </trkpt>
      <trkpt lat="44.72482" lon="6.92993">
        <ele>2643</ele>
        <time>2021-11-18T11:30:50Z</time>
      </trkpt>
      <trkpt lat="44.72482" lon="6.9301">
        <ele>2648</ele>
        <time>2021-11-18T11:31:19Z</time>
      </trkpt>
      <trkpt lat="44.72491" lon="6.93008">
        <ele>2651</ele>
        <time>2021-11-18T11:31:53Z</time>
      </trkpt>
      <trkpt lat="44.72501" lon="6.93004">
        <ele>2655</ele>
        <time>2021-11-18T11:32:23Z</time>
      </trkpt>
      <trkpt lat="44.72511" lon="6.93008">
        <ele>2659</ele>
        <time>2021-11-18T11:32:44Z</time>
      </trkpt>
      <trkpt lat="44.72521" lon="6.9301">
        <ele>2663</ele>
        <time>2021-11-18T11:33:08Z</time>
      </trkpt>
      <trkpt lat="44.72523" lon="6.93024">
        <ele>2667</ele>
        <time>2021-11-18T11:33:39Z</time>
      </trkpt>
      <trkpt lat="44.7252" lon="6.93038">
        <ele>2670</ele>
        <time>2021-11-18T11:34:02Z</time>
      </trkpt>
      <trkpt lat="44.72519" lon="6.93053">
        <ele>2674</ele>
        <time>2021-11-18T11:34:28Z</time>
      </trkpt>
      <trkpt lat="44.72517" lon="6.93068">
        <ele>2679</ele>
        <time>2021-11-18T11:34:50Z</time>
      </trkpt>
      <trkpt lat="44.72526" lon="6.93069">
        <ele>2685</ele>
        <time>2021-11-18T11:35:24Z</time>
      </trkpt>
      <trkpt lat="44.72536" lon="6.93071">
        <ele>2689</ele>
        <time>2021-11-18T11:35:53Z</time>
      </trkpt>
      <trkpt lat="44.72556" lon="6.93076">
        <ele>2693</ele>
        <time>2021-11-18T11:36:42Z</time>
      </trkpt>
      <trkpt lat="44.72562" lon="6.93088">
        <ele>2695</ele>
        <time>2021-11-18T11:37:10Z</time>
      </trkpt>
      <trkpt lat="44.7256" lon="6.93102">
        <ele>2696</ele>
        <time>2021-11-18T11:37:41Z</time>
      </trkpt>
      <trkpt lat="44.72555" lon="6.93115">
        <ele>2701</ele>
        <time>2021-11-18T11:38:07Z</time>
      </trkpt>
      <trkpt lat="44.72552" lon="6.93129">
        <ele>2705</ele>
        <time>2021-11-18T11:38:33Z</time>
      </trkpt>
      <trkpt lat="44.72561" lon="6.93134">
        <ele>2709</ele>
        <time>2021-11-18T11:39:11Z</time>
      </trkpt>
      <trkpt lat="44.72572" lon="6.93135">
        <ele>2712</ele>
        <time>2021-11-18T11:39:34Z</time>
      </trkpt>
      <trkpt lat="44.72582" lon="6.93138">
        <ele>2716</ele>
        <time>2021-11-18T11:39:58Z</time>
      </trkpt>
      <trkpt lat="44.72587" lon="6.9315">
        <ele>2720</ele>
        <time>2021-11-18T11:40:31Z</time>
      </trkpt>
      <trkpt lat="44.72583" lon="6.93163">
        <ele>2725</ele>
        <time>2021-11-18T11:40:57Z</time>
      </trkpt>
      <trkpt lat="44.7258" lon="6.93179">
        <ele>2730</ele>
        <time>2021-11-18T11:41:38Z</time>
      </trkpt>
      <trkpt lat="44.72576" lon="6.93193">
        <ele>2732</ele>
        <time>2021-11-18T11:41:52Z</time>
      </trkpt>
      <trkpt lat="44.72576" lon="6.93206">
        <ele>2735</ele>
        <time>2021-11-18T11:42:14Z</time>
      </trkpt>
      <trkpt lat="44.72574" lon="6.93221">
        <ele>2739</ele>
        <time>2021-11-18T11:42:40Z</time>
      </trkpt>
      <trkpt lat="44.72583" lon="6.93226">
        <ele>2743</ele>
        <time>2021-11-18T11:43:31Z</time>
      </trkpt>
      <trkpt lat="44.72593" lon="6.93223">
        <ele>2747</ele>
        <time>2021-11-18T11:43:56Z</time>
      </trkpt>
      <trkpt lat="44.72603" lon="6.93221">
        <ele>2750</ele>
        <time>2021-11-18T11:44:18Z</time>
      </trkpt>
      <trkpt lat="44.72609" lon="6.93232">
        <ele>2753</ele>
        <time>2021-11-18T11:44:47Z</time>
      </trkpt>
      <trkpt lat="44.72608" lon="6.93247">
        <ele>2757</ele>
        <time>2021-11-18T11:45:13Z</time>
      </trkpt>
      <trkpt lat="44.72605" lon="6.93261">
        <ele>2760</ele>
        <time>2021-11-18T11:45:36Z</time>
      </trkpt>
      <trkpt lat="44.72605" lon="6.93275">
        <ele>2764</ele>
        <time>2021-11-18T11:46:05Z</time>
      </trkpt>
      <trkpt lat="44.72615" lon="6.93275">
        <ele>2768</ele>
        <time>2021-11-18T11:46:44Z</time>
      </trkpt>
      <trkpt lat="44.72625" lon="6.93271">
        <ele>2770</ele>
        <time>2021-11-18T11:47:09Z</time>
      </trkpt>
      <trkpt lat="44.72635" lon="6.93275">
        <ele>2776</ele>
        <time>2021-11-18T11:47:30Z</time>
      </trkpt>
      <trkpt lat="44.72631" lon="6.93305">
        <ele>2781</ele>
        <time>2021-11-18T11:48:18Z</time>
      </trkpt>
      <trkpt lat="44.72639" lon="6.93309">
        <ele>2784</ele>
        <time>2021-11-18T11:49:10Z</time>
      </trkpt>
      <trkpt lat="44.72647" lon="6.93319">
        <ele>2787</ele>
        <time>2021-11-18T11:49:45Z</time>
      </trkpt>
      <trkpt lat="44.72646" lon="6.93334">
        <ele>2790</ele>
        <time>2021-11-18T11:50:09Z</time>
      </trkpt>
      <trkpt lat="44.72653" lon="6.93338">
        <ele>2799</ele>
        <time>2021-11-18T11:51:07Z</time>
      </trkpt>
      <trkpt lat="44.72664" lon="6.93338">
        <ele>2801</ele>
        <time>2021-11-18T11:51:31Z</time>
      </trkpt>
      <trkpt lat="44.72666" lon="6.93336">
        <ele>2802</ele>
        <time>2021-11-18T11:51:49Z</time>
      </trkpt>
      <trkpt lat="44.72668" lon="6.93349">
        <ele>2802</ele>
        <time>2021-11-18T11:52:07Z</time>
      </trkpt>
      <trkpt lat="44.72669" lon="6.93364">
        <ele>2806</ele>
        <time>2021-11-18T11:52:41Z</time>
      </trkpt>
      <trkpt lat="44.72674" lon="6.93376">
        <ele>2812</ele>
        <time>2021-11-18T11:53:22Z</time>
      </trkpt>
      <trkpt lat="44.72684" lon="6.93383">
        <ele>2820</ele>
        <time>2021-11-18T11:53:50Z</time>
      </trkpt>
      <trkpt lat="44.72687" lon="6.93397">
        <ele>2826</ele>
        <time>2021-11-18T11:54:19Z</time>
      </trkpt>
      <trkpt lat="44.72681" lon="6.93408">
        <ele>2829</ele>
        <time>2021-11-18T11:54:38Z</time>
      </trkpt>
      <trkpt lat="44.72676" lon="6.9342">
        <ele>2834</ele>
        <time>2021-11-18T11:55:16Z</time>
      </trkpt>
      <trkpt lat="44.7266" lon="6.93426">
        <ele>2840</ele>
        <time>2021-11-18T12:23:15Z</time>
      </trkpt>
      <trkpt lat="44.72657" lon="6.93432">
        <ele>2841</ele>
        <time>2021-11-18T12:23:16Z</time>
      </trkpt>
      <trkpt lat="44.72677" lon="6.93426">
        <ele>2837</ele>
        <time>2021-11-18T12:23:18Z</time>
      </trkpt>
      <trkpt lat="44.72685" lon="6.93424">
        <ele>2834</ele>
        <time>2021-11-18T12:23:37Z</time>
      </trkpt>
      <trkpt lat="44.72683" lon="6.93425">
        <ele>2833</ele>
        <time>2021-11-18T12:23:41Z</time>
      </trkpt>
      <trkpt lat="44.72674" lon="6.93422">
        <ele>2834</ele>
        <time>2021-11-18T12:24:39Z</time>
      </trkpt>
      <trkpt lat="44.72679" lon="6.93418">
        <ele>2835</ele>
        <time>2021-11-18T12:25:21Z</time>
      </trkpt>
      <trkpt lat="44.72682" lon="6.93417">
        <ele>2835</ele>
        <time>2021-11-18T12:25:23Z</time>
      </trkpt>
      <trkpt lat="44.72676" lon="6.93418">
        <ele>2834</ele>
        <time>2021-11-18T12:28:25Z</time>
      </trkpt>
      <trkpt lat="44.72676" lon="6.93413">
        <ele>2833</ele>
        <time>2021-11-18T12:28:26Z</time>
      </trkpt>
      <trkpt lat="44.72679" lon="6.93405">
        <ele>2833</ele>
        <time>2021-11-18T12:28:28Z</time>
      </trkpt>
      <trkpt lat="44.72681" lon="6.93401">
        <ele>2832</ele>
        <time>2021-11-18T12:28:30Z</time>
      </trkpt>
      <trkpt lat="44.72684" lon="6.93395">
        <ele>2831</ele>
        <time>2021-11-18T12:28:40Z</time>
      </trkpt>
      <trkpt lat="44.72686" lon="6.93388">
        <ele>2831</ele>
        <time>2021-11-18T12:28:41Z</time>
      </trkpt>
      <trkpt lat="44.72694" lon="6.9338">
        <ele>2830</ele>
        <time>2021-11-18T12:28:43Z</time>
      </trkpt>
      <trkpt lat="44.72697" lon="6.93377">
        <ele>2830</ele>
        <time>2021-11-18T12:28:44Z</time>
      </trkpt>
      <trkpt lat="44.72699" lon="6.93376">
        <ele>2830</ele>
        <time>2021-11-18T12:28:45Z</time>
      </trkpt>
      <trkpt lat="44.72699" lon="6.93367">
        <ele>2828</ele>
        <time>2021-11-18T12:30:02Z</time>
      </trkpt>
      <trkpt lat="44.72702" lon="6.93361">
        <ele>2827</ele>
        <time>2021-11-18T12:30:03Z</time>
      </trkpt>
      <trkpt lat="44.72704" lon="6.93335">
        <ele>2825</ele>
        <time>2021-11-18T12:30:06Z</time>
      </trkpt>
      <trkpt lat="44.72699" lon="6.93298">
        <ele>2823</ele>
        <time>2021-11-18T12:30:09Z</time>
      </trkpt>
      <trkpt lat="44.72691" lon="6.93271">
        <ele>2820</ele>
        <time>2021-11-18T12:30:11Z</time>
      </trkpt>
      <trkpt lat="44.7269" lon="6.93256">
        <ele>2818</ele>
        <time>2021-11-18T12:30:12Z</time>
      </trkpt>
      <trkpt lat="44.72687" lon="6.93241">
        <ele>2816</ele>
        <time>2021-11-18T12:30:13Z</time>
      </trkpt>
      <trkpt lat="44.72683" lon="6.93227">
        <ele>2813</ele>
        <time>2021-11-18T12:30:14Z</time>
      </trkpt>
      <trkpt lat="44.72681" lon="6.93212">
        <ele>2810</ele>
        <time>2021-11-18T12:30:15Z</time>
      </trkpt>
      <trkpt lat="44.72676" lon="6.93196">
        <ele>2807</ele>
        <time>2021-11-18T12:30:16Z</time>
      </trkpt>
      <trkpt lat="44.7267" lon="6.93182">
        <ele>2804</ele>
        <time>2021-11-18T12:30:17Z</time>
      </trkpt>
      <trkpt lat="44.72668" lon="6.93167">
        <ele>2801</ele>
        <time>2021-11-18T12:30:18Z</time>
      </trkpt>
      <trkpt lat="44.72664" lon="6.93151">
        <ele>2799</ele>
        <time>2021-11-18T12:30:19Z</time>
      </trkpt>
      <trkpt lat="44.72659" lon="6.93137">
        <ele>2797</ele>
        <time>2021-11-18T12:30:20Z</time>
      </trkpt>
      <trkpt lat="44.72657" lon="6.93123">
        <ele>2795</ele>
        <time>2021-11-18T12:30:21Z</time>
      </trkpt>
      <trkpt lat="44.72656" lon="6.93107">
        <ele>2790</ele>
        <time>2021-11-18T12:30:22Z</time>
      </trkpt>
      <trkpt lat="44.72653" lon="6.93092">
        <ele>2788</ele>
        <time>2021-11-18T12:30:23Z</time>
      </trkpt>
      <trkpt lat="44.72645" lon="6.93081">
        <ele>2785</ele>
        <time>2021-11-18T12:30:24Z</time>
      </trkpt>
      <trkpt lat="44.72637" lon="6.93072">
        <ele>2783</ele>
        <time>2021-11-18T12:30:25Z</time>
      </trkpt>
      <trkpt lat="44.72631" lon="6.93061">
        <ele>2781</ele>
        <time>2021-11-18T12:30:26Z</time>
      </trkpt>
      <trkpt lat="44.72627" lon="6.93047">
        <ele>2778</ele>
        <time>2021-11-18T12:30:27Z</time>
      </trkpt>
      <trkpt lat="44.72621" lon="6.93035">
        <ele>2775</ele>
        <time>2021-11-18T12:30:28Z</time>
      </trkpt>
      <trkpt lat="44.72616" lon="6.93023">
        <ele>2773</ele>
        <time>2021-11-18T12:30:29Z</time>
      </trkpt>
      <trkpt lat="44.72614" lon="6.93012">
        <ele>2769</ele>
        <time>2021-11-18T12:30:30Z</time>
      </trkpt>
      <trkpt lat="44.72611" lon="6.93">
        <ele>2765</ele>
        <time>2021-11-18T12:30:31Z</time>
      </trkpt>
      <trkpt lat="44.72599" lon="6.92969">
        <ele>2757</ele>
        <time>2021-11-18T12:30:34Z</time>
      </trkpt>
      <trkpt lat="44.72595" lon="6.92961">
        <ele>2754</ele>
        <time>2021-11-18T12:30:35Z</time>
      </trkpt>
      <trkpt lat="44.72578" lon="6.92947">
        <ele>2744</ele>
        <time>2021-11-18T12:30:39Z</time>
      </trkpt>
      <trkpt lat="44.72593" lon="6.92951">
        <ele>2713</ele>
        <time>2021-11-18T12:31:21Z</time>
      </trkpt>
      <trkpt lat="44.72593" lon="6.92954">
        <ele>2698</ele>
        <time>2021-11-18T12:31:30Z</time>
      </trkpt>
      <trkpt lat="44.72599" lon="6.92954">
        <ele>2687</ele>
        <time>2021-11-18T12:31:35Z</time>
      </trkpt>
      <trkpt lat="44.7264" lon="6.92924">
        <ele>2665</ele>
        <time>2021-11-18T12:31:46Z</time>
      </trkpt>
      <trkpt lat="44.72642" lon="6.92906">
        <ele>2660</ele>
        <time>2021-11-18T12:31:49Z</time>
      </trkpt>
      <trkpt lat="44.72642" lon="6.9289">
        <ele>2658</ele>
        <time>2021-11-18T12:31:51Z</time>
      </trkpt>
      <trkpt lat="44.72639" lon="6.92861">
        <ele>2653</ele>
        <time>2021-11-18T12:31:54Z</time>
      </trkpt>
      <trkpt lat="44.72637" lon="6.92844">
        <ele>2649</ele>
        <time>2021-11-18T12:31:56Z</time>
      </trkpt>
      <trkpt lat="44.72634" lon="6.92838">
        <ele>2630</ele>
        <time>2021-11-18T12:31:57Z</time>
      </trkpt>
      <trkpt lat="44.72632" lon="6.92827">
        <ele>2620</ele>
        <time>2021-11-18T12:31:58Z</time>
      </trkpt>
      <trkpt lat="44.72615" lon="6.92798">
        <ele>2603</ele>
        <time>2021-11-18T12:32:02Z</time>
      </trkpt>
      <trkpt lat="44.7261" lon="6.92779">
        <ele>2600</ele>
        <time>2021-11-18T12:32:04Z</time>
      </trkpt>
      <trkpt lat="44.72609" lon="6.9277">
        <ele>2598</ele>
        <time>2021-11-18T12:32:05Z</time>
      </trkpt>
      <trkpt lat="44.7261" lon="6.92758">
        <ele>2595</ele>
        <time>2021-11-18T12:32:06Z</time>
      </trkpt>
      <trkpt lat="44.72621" lon="6.9275">
        <ele>2585</ele>
        <time>2021-11-18T12:32:07Z</time>
      </trkpt>
      <trkpt lat="44.72619" lon="6.92729">
        <ele>2576</ele>
        <time>2021-11-18T12:32:09Z</time>
      </trkpt>
      <trkpt lat="44.72614" lon="6.92689">
        <ele>2570</ele>
        <time>2021-11-18T12:32:13Z</time>
      </trkpt>
      <trkpt lat="44.72611" lon="6.9268">
        <ele>2567</ele>
        <time>2021-11-18T12:32:14Z</time>
      </trkpt>
      <trkpt lat="44.72607" lon="6.92672">
        <ele>2564</ele>
        <time>2021-11-18T12:32:15Z</time>
      </trkpt>
      <trkpt lat="44.72598" lon="6.92678">
        <ele>2552</ele>
        <time>2021-11-18T12:32:16Z</time>
      </trkpt>
      <trkpt lat="44.72573" lon="6.92662">
        <ele>2537</ele>
        <time>2021-11-18T12:32:20Z</time>
      </trkpt>
      <trkpt lat="44.72561" lon="6.92659">
        <ele>2533</ele>
        <time>2021-11-18T12:32:22Z</time>
      </trkpt>
      <trkpt lat="44.72557" lon="6.92643">
        <ele>2528</ele>
        <time>2021-11-18T12:32:53Z</time>
      </trkpt>
      <trkpt lat="44.72555" lon="6.92638">
        <ele>2527</ele>
        <time>2021-11-18T12:32:54Z</time>
      </trkpt>
      <trkpt lat="44.72551" lon="6.92635">
        <ele>2525</ele>
        <time>2021-11-18T12:32:55Z</time>
      </trkpt>
      <trkpt lat="44.72547" lon="6.92632">
        <ele>2524</ele>
        <time>2021-11-18T12:32:56Z</time>
      </trkpt>
      <trkpt lat="44.72545" lon="6.92628">
        <ele>2523</ele>
        <time>2021-11-18T12:32:57Z</time>
      </trkpt>
      <trkpt lat="44.72545" lon="6.92623">
        <ele>2521</ele>
        <time>2021-11-18T12:32:58Z</time>
      </trkpt>
      <trkpt lat="44.72547" lon="6.9262">
        <ele>2519</ele>
        <time>2021-11-18T12:33:00Z</time>
      </trkpt>
      <trkpt lat="44.72543" lon="6.92615">
        <ele>2516</ele>
        <time>2021-11-18T12:33:12Z</time>
      </trkpt>
      <trkpt lat="44.72528" lon="6.92611">
        <ele>2512</ele>
        <time>2021-11-18T12:33:15Z</time>
      </trkpt>
      <trkpt lat="44.72524" lon="6.92611">
        <ele>2511</ele>
        <time>2021-11-18T12:33:16Z</time>
      </trkpt>
      <trkpt lat="44.72506" lon="6.92598">
        <ele>2504</ele>
        <time>2021-11-18T12:33:20Z</time>
      </trkpt>
      <trkpt lat="44.72488" lon="6.92586">
        <ele>2498</ele>
        <time>2021-11-18T12:33:25Z</time>
      </trkpt>
      <trkpt lat="44.72454" lon="6.92577">
        <ele>2494</ele>
        <time>2021-11-18T12:33:31Z</time>
      </trkpt>
      <trkpt lat="44.72435" lon="6.92579">
        <ele>2489</ele>
        <time>2021-11-18T12:33:35Z</time>
      </trkpt>
      <trkpt lat="44.72433" lon="6.92576">
        <ele>2486</ele>
        <time>2021-11-18T12:33:51Z</time>
      </trkpt>
      <trkpt lat="44.72431" lon="6.92576">
        <ele>2486</ele>
        <time>2021-11-18T12:33:52Z</time>
      </trkpt>
      <trkpt lat="44.72426" lon="6.92579">
        <ele>2486</ele>
        <time>2021-11-18T12:33:54Z</time>
      </trkpt>
      <trkpt lat="44.72407" lon="6.92594">
        <ele>2483</ele>
        <time>2021-11-18T12:34:01Z</time>
      </trkpt>
      <trkpt lat="44.72402" lon="6.92597">
        <ele>2483</ele>
        <time>2021-11-18T12:34:02Z</time>
      </trkpt>
      <trkpt lat="44.72396" lon="6.92597">
        <ele>2483</ele>
        <time>2021-11-18T12:34:03Z</time>
      </trkpt>
      <trkpt lat="44.72375" lon="6.92585">
        <ele>2481</ele>
        <time>2021-11-18T12:34:07Z</time>
      </trkpt>
      <trkpt lat="44.72363" lon="6.92574">
        <ele>2478</ele>
        <time>2021-11-18T12:34:09Z</time>
      </trkpt>
      <trkpt lat="44.72307" lon="6.92533">
        <ele>2460</ele>
        <time>2021-11-18T12:34:18Z</time>
      </trkpt>
      <trkpt lat="44.72303" lon="6.92526">
        <ele>2456</ele>
        <time>2021-11-18T12:34:19Z</time>
      </trkpt>
      <trkpt lat="44.723" lon="6.92518">
        <ele>2454</ele>
        <time>2021-11-18T12:34:20Z</time>
      </trkpt>
      <trkpt lat="44.72298" lon="6.92508">
        <ele>2451</ele>
        <time>2021-11-18T12:34:21Z</time>
      </trkpt>
      <trkpt lat="44.72294" lon="6.92498">
        <ele>2449</ele>
        <time>2021-11-18T12:34:22Z</time>
      </trkpt>
      <trkpt lat="44.72289" lon="6.92494">
        <ele>2447</ele>
        <time>2021-11-18T12:34:23Z</time>
      </trkpt>
      <trkpt lat="44.72277" lon="6.92494">
        <ele>2443</ele>
        <time>2021-11-18T12:34:25Z</time>
      </trkpt>
      <trkpt lat="44.72257" lon="6.92504">
        <ele>2439</ele>
        <time>2021-11-18T12:34:28Z</time>
      </trkpt>
      <trkpt lat="44.72244" lon="6.92514">
        <ele>2436</ele>
        <time>2021-11-18T12:34:30Z</time>
      </trkpt>
      <trkpt lat="44.72239" lon="6.92517">
        <ele>2435</ele>
        <time>2021-11-18T12:34:31Z</time>
      </trkpt>
      <trkpt lat="44.72203" lon="6.92521">
        <ele>2428</ele>
        <time>2021-11-18T12:34:37Z</time>
      </trkpt>
      <trkpt lat="44.72175" lon="6.92544">
        <ele>2425</ele>
        <time>2021-11-18T12:34:43Z</time>
      </trkpt>
      <trkpt lat="44.72162" lon="6.92531">
        <ele>2422</ele>
        <time>2021-11-18T12:34:45Z</time>
      </trkpt>
      <trkpt lat="44.72145" lon="6.92533">
        <ele>2419</ele>
        <time>2021-11-18T12:34:47Z</time>
      </trkpt>
      <trkpt lat="44.72123" lon="6.92556">
        <ele>2413</ele>
        <time>2021-11-18T12:34:51Z</time>
      </trkpt>
      <trkpt lat="44.72119" lon="6.92559">
        <ele>2412</ele>
        <time>2021-11-18T12:34:52Z</time>
      </trkpt>
      <trkpt lat="44.72093" lon="6.92554">
        <ele>2405</ele>
        <time>2021-11-18T12:34:56Z</time>
      </trkpt>
      <trkpt lat="44.72023" lon="6.92562">
        <ele>2391</ele>
        <time>2021-11-18T12:35:05Z</time>
      </trkpt>
      <trkpt lat="44.72007" lon="6.92554">
        <ele>2385</ele>
        <time>2021-11-18T12:35:08Z</time>
      </trkpt>
      <trkpt lat="44.71976" lon="6.92557">
        <ele>2377</ele>
        <time>2021-11-18T12:35:13Z</time>
      </trkpt>
      <trkpt lat="44.7193" lon="6.92539">
        <ele>2371</ele>
        <time>2021-11-18T12:35:20Z</time>
      </trkpt>
      <trkpt lat="44.71913" lon="6.92538">
        <ele>2369</ele>
        <time>2021-11-18T12:35:23Z</time>
      </trkpt>
      <trkpt lat="44.71911" lon="6.92531">
        <ele>2369</ele>
        <time>2021-11-18T12:35:24Z</time>
      </trkpt>
      <trkpt lat="44.71904" lon="6.92516">
        <ele>2366</ele>
        <time>2021-11-18T12:35:26Z</time>
      </trkpt>
      <trkpt lat="44.71899" lon="6.92511">
        <ele>2365</ele>
        <time>2021-11-18T12:35:27Z</time>
      </trkpt>
      <trkpt lat="44.71889" lon="6.92498">
        <ele>2363</ele>
        <time>2021-11-18T12:35:29Z</time>
      </trkpt>
      <trkpt lat="44.71884" lon="6.92495">
        <ele>2362</ele>
        <time>2021-11-18T12:35:30Z</time>
      </trkpt>
      <trkpt lat="44.71878" lon="6.92496">
        <ele>2360</ele>
        <time>2021-11-18T12:35:32Z</time>
      </trkpt>
      <trkpt lat="44.71876" lon="6.92498">
        <ele>2358</ele>
        <time>2021-11-18T12:35:34Z</time>
      </trkpt>
      <trkpt lat="44.71862" lon="6.92517">
        <ele>2359</ele>
        <time>2021-11-18T12:35:56Z</time>
      </trkpt>
      <trkpt lat="44.7185" lon="6.92538">
        <ele>2357</ele>
        <time>2021-11-18T12:36:03Z</time>
      </trkpt>
      <trkpt lat="44.71837" lon="6.92543">
        <ele>2355</ele>
        <time>2021-11-18T12:36:07Z</time>
      </trkpt>
      <trkpt lat="44.71833" lon="6.92549">
        <ele>2354</ele>
        <time>2021-11-18T12:36:09Z</time>
      </trkpt>
      <trkpt lat="44.7183" lon="6.92551">
        <ele>2351</ele>
        <time>2021-11-18T12:36:11Z</time>
      </trkpt>
      <trkpt lat="44.71824" lon="6.92538">
        <ele>2341</ele>
        <time>2021-11-18T12:36:18Z</time>
      </trkpt>
      <trkpt lat="44.71812" lon="6.92513">
        <ele>2335</ele>
        <time>2021-11-18T12:36:23Z</time>
      </trkpt>
      <trkpt lat="44.71803" lon="6.92492">
        <ele>2333</ele>
        <time>2021-11-18T12:36:26Z</time>
      </trkpt>
      <trkpt lat="44.7174" lon="6.92409">
        <ele>2323</ele>
        <time>2021-11-18T12:36:40Z</time>
      </trkpt>
      <trkpt lat="44.71718" lon="6.92388">
        <ele>2322</ele>
        <time>2021-11-18T12:36:47Z</time>
      </trkpt>
      <trkpt lat="44.71715" lon="6.92382">
        <ele>2322</ele>
        <time>2021-11-18T12:36:48Z</time>
      </trkpt>
      <trkpt lat="44.71714" lon="6.92376">
        <ele>2322</ele>
        <time>2021-11-18T12:36:49Z</time>
      </trkpt>
      <trkpt lat="44.71716" lon="6.92369">
        <ele>2322</ele>
        <time>2021-11-18T12:36:50Z</time>
      </trkpt>
      <trkpt lat="44.71716" lon="6.92362">
        <ele>2320</ele>
        <time>2021-11-18T12:36:51Z</time>
      </trkpt>
      <trkpt lat="44.71716" lon="6.92353">
        <ele>2319</ele>
        <time>2021-11-18T12:36:52Z</time>
      </trkpt>
      <trkpt lat="44.71716" lon="6.92345">
        <ele>2318</ele>
        <time>2021-11-18T12:36:53Z</time>
      </trkpt>
      <trkpt lat="44.71718" lon="6.92338">
        <ele>2316</ele>
        <time>2021-11-18T12:36:54Z</time>
      </trkpt>
      <trkpt lat="44.71718" lon="6.92329">
        <ele>2314</ele>
        <time>2021-11-18T12:36:55Z</time>
      </trkpt>
      <trkpt lat="44.71718" lon="6.9232">
        <ele>2311</ele>
        <time>2021-11-18T12:36:56Z</time>
      </trkpt>
      <trkpt lat="44.71721" lon="6.92314">
        <ele>2309</ele>
        <time>2021-11-18T12:36:57Z</time>
      </trkpt>
      <trkpt lat="44.71725" lon="6.92308">
        <ele>2306</ele>
        <time>2021-11-18T12:36:58Z</time>
      </trkpt>
      <trkpt lat="44.71731" lon="6.92286">
        <ele>2301</ele>
        <time>2021-11-18T12:37:01Z</time>
      </trkpt>
      <trkpt lat="44.71734" lon="6.92279">
        <ele>2300</ele>
        <time>2021-11-18T12:37:02Z</time>
      </trkpt>
      <trkpt lat="44.71739" lon="6.92275">
        <ele>2298</ele>
        <time>2021-11-18T12:37:03Z</time>
      </trkpt>
      <trkpt lat="44.71743" lon="6.9227">
        <ele>2296</ele>
        <time>2021-11-18T12:37:04Z</time>
      </trkpt>
      <trkpt lat="44.71743" lon="6.9226">
        <ele>2292</ele>
        <time>2021-11-18T12:37:05Z</time>
      </trkpt>
      <trkpt lat="44.71728" lon="6.92228">
        <ele>2281</ele>
        <time>2021-11-18T12:37:09Z</time>
      </trkpt>
      <trkpt lat="44.71727" lon="6.92219">
        <ele>2278</ele>
        <time>2021-11-18T12:37:10Z</time>
      </trkpt>
      <trkpt lat="44.71725" lon="6.9221">
        <ele>2275</ele>
        <time>2021-11-18T12:37:11Z</time>
      </trkpt>
      <trkpt lat="44.71722" lon="6.92201">
        <ele>2273</ele>
        <time>2021-11-18T12:37:12Z</time>
      </trkpt>
      <trkpt lat="44.7172" lon="6.92192">
        <ele>2270</ele>
        <time>2021-11-18T12:37:13Z</time>
      </trkpt>
      <trkpt lat="44.71718" lon="6.92184">
        <ele>2267</ele>
        <time>2021-11-18T12:37:14Z</time>
      </trkpt>
      <trkpt lat="44.71715" lon="6.92176">
        <ele>2265</ele>
        <time>2021-11-18T12:37:15Z</time>
      </trkpt>
      <trkpt lat="44.71701" lon="6.92143">
        <ele>2254</ele>
        <time>2021-11-18T12:37:22Z</time>
      </trkpt>
      <trkpt lat="44.71695" lon="6.92134">
        <ele>2253</ele>
        <time>2021-11-18T12:37:24Z</time>
      </trkpt>
      <trkpt lat="44.71672" lon="6.92113">
        <ele>2253</ele>
        <time>2021-11-18T12:37:50Z</time>
      </trkpt>
      <trkpt lat="44.71653" lon="6.92071">
        <ele>2248</ele>
        <time>2021-11-18T12:37:55Z</time>
      </trkpt>
      <trkpt lat="44.7165" lon="6.92051">
        <ele>2245</ele>
        <time>2021-11-18T12:37:57Z</time>
      </trkpt>
      <trkpt lat="44.71657" lon="6.92036">
        <ele>2241</ele>
        <time>2021-11-18T12:37:59Z</time>
      </trkpt>
      <trkpt lat="44.71657" lon="6.92027">
        <ele>2238</ele>
        <time>2021-11-18T12:38:00Z</time>
      </trkpt>
      <trkpt lat="44.71652" lon="6.92021">
        <ele>2236</ele>
        <time>2021-11-18T12:38:01Z</time>
      </trkpt>
      <trkpt lat="44.71646" lon="6.92016">
        <ele>2233</ele>
        <time>2021-11-18T12:38:02Z</time>
      </trkpt>
      <trkpt lat="44.7164" lon="6.92011">
        <ele>2231</ele>
        <time>2021-11-18T12:38:03Z</time>
      </trkpt>
      <trkpt lat="44.71635" lon="6.92008">
        <ele>2228</ele>
        <time>2021-11-18T12:38:04Z</time>
      </trkpt>
      <trkpt lat="44.71631" lon="6.92003">
        <ele>2226</ele>
        <time>2021-11-18T12:38:05Z</time>
      </trkpt>
      <trkpt lat="44.71623" lon="6.91988">
        <ele>2222</ele>
        <time>2021-11-18T12:38:07Z</time>
      </trkpt>
      <trkpt lat="44.71622" lon="6.91981">
        <ele>2221</ele>
        <time>2021-11-18T12:38:08Z</time>
      </trkpt>
      <trkpt lat="44.71627" lon="6.91964">
        <ele>2218</ele>
        <time>2021-11-18T12:38:10Z</time>
      </trkpt>
      <trkpt lat="44.7163" lon="6.91962">
        <ele>2217</ele>
        <time>2021-11-18T12:38:11Z</time>
      </trkpt>
      <trkpt lat="44.71628" lon="6.91956">
        <ele>2211</ele>
        <time>2021-11-18T12:38:36Z</time>
      </trkpt>
      <trkpt lat="44.71641" lon="6.91949">
        <ele>2205</ele>
        <time>2021-11-18T12:38:54Z</time>
      </trkpt>
      <trkpt lat="44.71654" lon="6.91939">
        <ele>2200</ele>
        <time>2021-11-18T12:38:58Z</time>
      </trkpt>
      <trkpt lat="44.71675" lon="6.91915">
        <ele>2189</ele>
        <time>2021-11-18T12:39:04Z</time>
      </trkpt>
      <trkpt lat="44.71706" lon="6.91926">
        <ele>2181</ele>
        <time>2021-11-18T12:39:36Z</time>
      </trkpt>
      <trkpt lat="44.71712" lon="6.91936">
        <ele>2180</ele>
        <time>2021-11-18T12:39:49Z</time>
      </trkpt>
      <trkpt lat="44.71722" lon="6.91935">
        <ele>2179</ele>
        <time>2021-11-18T12:40:09Z</time>
      </trkpt>
      <trkpt lat="44.71728" lon="6.91916">
        <ele>2176</ele>
        <time>2021-11-18T12:40:14Z</time>
      </trkpt>
      <trkpt lat="44.71728" lon="6.91898">
        <ele>2174</ele>
        <time>2021-11-18T12:40:19Z</time>
      </trkpt>
      <trkpt lat="44.71723" lon="6.91886">
        <ele>2173</ele>
        <time>2021-11-18T12:40:21Z</time>
      </trkpt>
      <trkpt lat="44.71721" lon="6.91881">
        <ele>2172</ele>
        <time>2021-11-18T12:40:22Z</time>
      </trkpt>
      <trkpt lat="44.71719" lon="6.91876">
        <ele>2172</ele>
        <time>2021-11-18T12:40:23Z</time>
      </trkpt>
      <trkpt lat="44.71719" lon="6.91872">
        <ele>2171</ele>
        <time>2021-11-18T12:40:24Z</time>
      </trkpt>
      <trkpt lat="44.7172" lon="6.91869">
        <ele>2170</ele>
        <time>2021-11-18T12:40:25Z</time>
      </trkpt>
      <trkpt lat="44.71727" lon="6.91855">
        <ele>2167</ele>
        <time>2021-11-18T12:40:37Z</time>
      </trkpt>
      <trkpt lat="44.7173" lon="6.91841">
        <ele>2165</ele>
        <time>2021-11-18T12:40:39Z</time>
      </trkpt>
      <trkpt lat="44.71734" lon="6.91836">
        <ele>2163</ele>
        <time>2021-11-18T12:40:41Z</time>
      </trkpt>
      <trkpt lat="44.71743" lon="6.91833">
        <ele>2161</ele>
        <time>2021-11-18T12:41:12Z</time>
      </trkpt>
      <trkpt lat="44.7174" lon="6.91826">
        <ele>2159</ele>
        <time>2021-11-18T12:41:30Z</time>
      </trkpt>
      <trkpt lat="44.71739" lon="6.91819">
        <ele>2157</ele>
        <time>2021-11-18T12:41:32Z</time>
      </trkpt>
      <trkpt lat="44.7174" lon="6.91816">
        <ele>2157</ele>
        <time>2021-11-18T12:41:36Z</time>
      </trkpt>
      <trkpt lat="44.71738" lon="6.91772">
        <ele>2153</ele>
        <time>2021-11-18T12:41:44Z</time>
      </trkpt>
      <trkpt lat="44.71732" lon="6.91756">
        <ele>2150</ele>
        <time>2021-11-18T12:41:47Z</time>
      </trkpt>
      <trkpt lat="44.71728" lon="6.91747">
        <ele>2146</ele>
        <time>2021-11-18T12:41:49Z</time>
      </trkpt>
      <trkpt lat="44.71726" lon="6.91737">
        <ele>2143</ele>
        <time>2021-11-18T12:41:51Z</time>
      </trkpt>
      <trkpt lat="44.71724" lon="6.91733">
        <ele>2142</ele>
        <time>2021-11-18T12:41:52Z</time>
      </trkpt>
      <trkpt lat="44.71713" lon="6.91724">
        <ele>2138</ele>
        <time>2021-11-18T12:41:55Z</time>
      </trkpt>
      <trkpt lat="44.71712" lon="6.9172">
        <ele>2136</ele>
        <time>2021-11-18T12:41:56Z</time>
      </trkpt>
      <trkpt lat="44.71709" lon="6.91716">
        <ele>2135</ele>
        <time>2021-11-18T12:41:57Z</time>
      </trkpt>
      <trkpt lat="44.71705" lon="6.91713">
        <ele>2134</ele>
        <time>2021-11-18T12:41:58Z</time>
      </trkpt>
      <trkpt lat="44.71699" lon="6.91714">
        <ele>2131</ele>
        <time>2021-11-18T12:42:00Z</time>
      </trkpt>
      <trkpt lat="44.71696" lon="6.91716">
        <ele>2128</ele>
        <time>2021-11-18T12:42:02Z</time>
      </trkpt>
      <trkpt lat="44.71695" lon="6.91718">
        <ele>2123</ele>
        <time>2021-11-18T12:42:06Z</time>
      </trkpt>
      <trkpt lat="44.7169" lon="6.91708">
        <ele>2117</ele>
        <time>2021-11-18T12:42:47Z</time>
      </trkpt>
      <trkpt lat="44.71689" lon="6.91701">
        <ele>2117</ele>
        <time>2021-11-18T12:42:48Z</time>
      </trkpt>
      <trkpt lat="44.71682" lon="6.91691">
        <ele>2116</ele>
        <time>2021-11-18T12:42:50Z</time>
      </trkpt>
      <trkpt lat="44.71679" lon="6.91686">
        <ele>2115</ele>
        <time>2021-11-18T12:42:51Z</time>
      </trkpt>
      <trkpt lat="44.71678" lon="6.91679">
        <ele>2114</ele>
        <time>2021-11-18T12:42:52Z</time>
      </trkpt>
      <trkpt lat="44.71681" lon="6.91665">
        <ele>2112</ele>
        <time>2021-11-18T12:42:54Z</time>
      </trkpt>
      <trkpt lat="44.71681" lon="6.91658">
        <ele>2110</ele>
        <time>2021-11-18T12:42:55Z</time>
      </trkpt>
      <trkpt lat="44.71676" lon="6.91647">
        <ele>2108</ele>
        <time>2021-11-18T12:42:57Z</time>
      </trkpt>
      <trkpt lat="44.71675" lon="6.91639">
        <ele>2106</ele>
        <time>2021-11-18T12:42:58Z</time>
      </trkpt>
      <trkpt lat="44.71678" lon="6.91621">
        <ele>2103</ele>
        <time>2021-11-18T12:43:00Z</time>
      </trkpt>
      <trkpt lat="44.7168" lon="6.91614">
        <ele>2101</ele>
        <time>2021-11-18T12:43:01Z</time>
      </trkpt>
      <trkpt lat="44.71681" lon="6.91601">
        <ele>2098</ele>
        <time>2021-11-18T12:43:03Z</time>
      </trkpt>
      <trkpt lat="44.71674" lon="6.91605">
        <ele>2095</ele>
        <time>2021-11-18T12:43:06Z</time>
      </trkpt>
      <trkpt lat="44.71673" lon="6.91608">
        <ele>2093</ele>
        <time>2021-11-18T12:43:07Z</time>
      </trkpt>
      <trkpt lat="44.71672" lon="6.91611">
        <ele>2092</ele>
        <time>2021-11-18T12:43:08Z</time>
      </trkpt>
      <trkpt lat="44.71671" lon="6.91615">
        <ele>2088</ele>
        <time>2021-11-18T12:43:10Z</time>
      </trkpt>
      <trkpt lat="44.71665" lon="6.91619">
        <ele>2085</ele>
        <time>2021-11-18T12:43:13Z</time>
      </trkpt>
      <trkpt lat="44.71664" lon="6.91621">
        <ele>2084</ele>
        <time>2021-11-18T12:43:15Z</time>
      </trkpt>
      <trkpt lat="44.71659" lon="6.91621">
        <ele>2081</ele>
        <time>2021-11-18T12:43:17Z</time>
      </trkpt>
      <trkpt lat="44.71651" lon="6.91617">
        <ele>2079</ele>
        <time>2021-11-18T12:43:19Z</time>
      </trkpt>
      <trkpt lat="44.71643" lon="6.91607">
        <ele>2075</ele>
        <time>2021-11-18T12:43:21Z</time>
      </trkpt>
      <trkpt lat="44.71639" lon="6.91596">
        <ele>2072</ele>
        <time>2021-11-18T12:43:23Z</time>
      </trkpt>
      <trkpt lat="44.71639" lon="6.91593">
        <ele>2071</ele>
        <time>2021-11-18T12:43:24Z</time>
      </trkpt>
      <trkpt lat="44.7164" lon="6.91589">
        <ele>2068</ele>
        <time>2021-11-18T12:43:26Z</time>
      </trkpt>
      <trkpt lat="44.7164" lon="6.91585">
        <ele>2066</ele>
        <time>2021-11-18T12:43:30Z</time>
      </trkpt>
      <trkpt lat="44.71641" lon="6.91577">
        <ele>2065</ele>
        <time>2021-11-18T12:43:32Z</time>
      </trkpt>
      <trkpt lat="44.71642" lon="6.91575">
        <ele>2066</ele>
        <time>2021-11-18T12:43:33Z</time>
      </trkpt>
      <trkpt lat="44.71644" lon="6.9157">
        <ele>2065</ele>
        <time>2021-11-18T12:43:35Z</time>
      </trkpt>
      <trkpt lat="44.71654" lon="6.91555">
        <ele>2064</ele>
        <time>2021-11-18T12:43:40Z</time>
      </trkpt>
      <trkpt lat="44.71676" lon="6.91494">
        <ele>2063</ele>
        <time>2021-11-18T12:43:48Z</time>
      </trkpt>
      <trkpt lat="44.71677" lon="6.91484">
        <ele>2063</ele>
        <time>2021-11-18T12:43:55Z</time>
      </trkpt>
      <trkpt lat="44.71674" lon="6.9148">
        <ele>2063</ele>
        <time>2021-11-18T12:43:56Z</time>
      </trkpt>
      <trkpt lat="44.71671" lon="6.91476">
        <ele>2063</ele>
        <time>2021-11-18T12:43:57Z</time>
      </trkpt>
      <trkpt lat="44.71665" lon="6.91471">
        <ele>2062</ele>
        <time>2021-11-18T12:43:58Z</time>
      </trkpt>
      <trkpt lat="44.71624" lon="6.91469">
        <ele>2054</ele>
        <time>2021-11-18T12:44:04Z</time>
      </trkpt>
      <trkpt lat="44.71626" lon="6.91456">
        <ele>2052</ele>
        <time>2021-11-18T12:44:07Z</time>
      </trkpt>
      <trkpt lat="44.71625" lon="6.9145">
        <ele>2050</ele>
        <time>2021-11-18T12:44:08Z</time>
      </trkpt>
      <trkpt lat="44.71622" lon="6.91448">
        <ele>2050</ele>
        <time>2021-11-18T12:44:09Z</time>
      </trkpt>
      <trkpt lat="44.71616" lon="6.91447">
        <ele>2048</ele>
        <time>2021-11-18T12:44:11Z</time>
      </trkpt>
      <trkpt lat="44.71614" lon="6.91449">
        <ele>2047</ele>
        <time>2021-11-18T12:44:12Z</time>
      </trkpt>
      <trkpt lat="44.71612" lon="6.9145">
        <ele>2046</ele>
        <time>2021-11-18T12:44:13Z</time>
      </trkpt>
      <trkpt lat="44.71614" lon="6.91443">
        <ele>2044</ele>
        <time>2021-11-18T12:44:30Z</time>
      </trkpt>
      <trkpt lat="44.71612" lon="6.91439">
        <ele>2043</ele>
        <time>2021-11-18T12:44:31Z</time>
      </trkpt>
      <trkpt lat="44.71599" lon="6.91427">
        <ele>2041</ele>
        <time>2021-11-18T12:44:34Z</time>
      </trkpt>
      <trkpt lat="44.71596" lon="6.91423">
        <ele>2040</ele>
        <time>2021-11-18T12:44:35Z</time>
      </trkpt>
      <trkpt lat="44.71593" lon="6.91418">
        <ele>2038</ele>
        <time>2021-11-18T12:44:36Z</time>
      </trkpt>
      <trkpt lat="44.71592" lon="6.91411">
        <ele>2036</ele>
        <time>2021-11-18T12:44:38Z</time>
      </trkpt>
      <trkpt lat="44.71593" lon="6.91408">
        <ele>2035</ele>
        <time>2021-11-18T12:44:41Z</time>
      </trkpt>
      <trkpt lat="44.71603" lon="6.91384">
        <ele>2025</ele>
        <time>2021-11-18T12:44:48Z</time>
      </trkpt>
      <trkpt lat="44.71643" lon="6.91277">
        <ele>2017</ele>
        <time>2021-11-18T12:45:14Z</time>
      </trkpt>
      <trkpt lat="44.71668" lon="6.91173">
        <ele>2008</ele>
        <time>2021-11-18T12:45:43Z</time>
      </trkpt>
      <trkpt lat="44.71684" lon="6.91135">
        <ele>2007</ele>
        <time>2021-11-18T12:45:55Z</time>
      </trkpt>
      <trkpt lat="44.71704" lon="6.91112">
        <ele>2007</ele>
        <time>2021-11-18T12:46:05Z</time>
      </trkpt>
      <trkpt lat="44.71741" lon="6.91048">
        <ele>2004</ele>
        <time>2021-11-18T12:46:26Z</time>
      </trkpt>
      <trkpt lat="44.71749" lon="6.91039">
        <ele>2003</ele>
        <time>2021-11-18T12:46:29Z</time>
      </trkpt>
      <trkpt lat="44.71755" lon="6.91023">
        <ele>2003</ele>
        <time>2021-11-18T12:46:33Z</time>
      </trkpt>
      <trkpt lat="44.71775" lon="6.90934">
        <ele>2001</ele>
        <time>2021-11-18T12:46:55Z</time>
      </trkpt>
      <trkpt lat="44.71778" lon="6.90923">
        <ele>2000</ele>
        <time>2021-11-18T12:46:58Z</time>
      </trkpt>
      <trkpt lat="44.71781" lon="6.90912">
        <ele>2000</ele>
        <time>2021-11-18T12:47:01Z</time>
      </trkpt>
      <trkpt lat="44.71791" lon="6.90879">
        <ele>1998</ele>
        <time>2021-11-18T12:47:10Z</time>
      </trkpt>
      <trkpt lat="44.71802" lon="6.90791">
        <ele>1996</ele>
        <time>2021-11-18T12:47:32Z</time>
      </trkpt>
      <trkpt lat="44.71802" lon="6.90786">
        <ele>1996</ele>
        <time>2021-11-18T12:47:33Z</time>
      </trkpt>
      <trkpt lat="44.71821" lon="6.90651">
        <ele>1989</ele>
        <time>2021-11-18T12:47:59Z</time>
      </trkpt>
      <trkpt lat="44.71827" lon="6.90633">
        <ele>1989</ele>
        <time>2021-11-18T12:48:03Z</time>
      </trkpt>
      <trkpt lat="44.71878" lon="6.90514">
        <ele>1986</ele>
        <time>2021-11-18T12:48:33Z</time>
      </trkpt>
      <trkpt lat="44.7188" lon="6.9051">
        <ele>1986</ele>
        <time>2021-11-18T12:48:34Z</time>
      </trkpt>
      <trkpt lat="44.71881" lon="6.90501">
        <ele>1987</ele>
        <time>2021-11-18T12:48:36Z</time>
      </trkpt>
      <trkpt lat="44.71884" lon="6.9048">
        <ele>1987</ele>
        <time>2021-11-18T12:48:41Z</time>
      </trkpt>
      <trkpt lat="44.71884" lon="6.90478">
        <ele>1987</ele>
        <time>2021-11-18T12:48:42Z</time>
      </trkpt>
      <trkpt lat="44.71887" lon="6.90437">
        <ele>1984</ele>
        <time>2021-11-18T12:48:54Z</time>
      </trkpt>
      <trkpt lat="44.71901" lon="6.90407">
        <ele>1982</ele>
        <time>2021-11-18T12:51:30Z</time>
      </trkpt>
      <trkpt lat="44.719" lon="6.90408">
        <ele>1982</ele>
        <time>2021-11-18T12:51:59Z</time>
      </trkpt>
    </trkseg>
  </trk>
</gpx>